     2              OBSERVATION DATA    GPS                 RINEX VERSION / TYPE
ASRINEXO V2.8.2 VM                                          PGM / RUN BY / DATE
                                                            COMMENT
Original Marker Name: 1202                                  COMMENT
Campaign Name: HPGN 1991                                    COMMENT
4-Character Station Name: 1202                              COMMENT
6-Character Antenna Code: ASHL12                            COMMENT
Vertical Measurement Point: BAS                             COMMENT
Vertical Offset to Rinex Ref. Point: 0.0000                 COMMENT
Radial Measurement Point: RRP                               COMMENT
Radial Offset to Rinex Ref. Point: 0.0000                   COMMENT
Antenna Height from Field Measurement: 2.2200 m             COMMENT
Original XYZ: 6378137.0000 0.0000 0.0000                    COMMENT
New XYZ position is based on association with SCEC monument COMMENT
E1D0D6U2+0011. Position of that monument is believed to be  COMMENT
valid to within 1 m horizontally; vertical accuracy         COMMENT
should be no worse than 3-times this value.                 COMMENT
                                                            COMMENT
Revised Rinex header created by UCSD GPS archive for        COMMENT
GSAC on 12-Apr-1999 (1999:102) 02:40:57 GMT                 COMMENT
For assistance contact dagnew@ucsd.edu or hjohnson@ucsd.edu COMMENT
                                                            COMMENT
HPGN CA 12 02                                               MARKER NAME
PTD CALIF DEPT TRANSPORTATION                               OBSERVER / AGENCY
572 ASHTECH L-XII3 6A                                       REC # / TYPE / VERS
642 ASHTECH GEODETIC L                                      ANT # / TYPE
 -2474104.0000 -4716384.0000  3497481.0000                  APPROX POSITION XYZ
        2.2200        0.0000        0.0000                  ANTENNA: DELTA H/E/N
     1     2     0                                          WAVELENGTH FACT L1/2
     3    C1    L1    L2                                    # / TYPES OF OBSERV
     0                                                      INTERVAL
  1991     4    15    20    22   45.000000                  TIME OF FIRST OBS
  1991     4    16     0    39    0.000000                  TIME OF LAST OBS
     0                                                      # OF SATELLITES
                                                            END OF HEADER
 91  4 15 20 22 45.0000000  0  1 19
  29560592.524           0.586 3         0.235 2
 91  4 15 20 23  0.0000000  0  1 19
  29558827.050       -9266.221 3     -7220.641 2
 91  4 15 20 23 15.0000000  0  1 19
  29557060.669      -18546.016 3    -14451.639 2
 91  4 15 20 23 30.0000000  0  1 19
  29555310.788      -27770.962 3    -21639.902 2
 91  4 15 20 23 45.0000000  0  1 19
  29553568.986      -36898.024 3    -28751.895 2
 91  4 15 20 24  0.0000000  0  1 19
  29551856.875      -45896.537 3    -35763.719 2
 91  4 15 20 24 15.0000000  0  2 19 02
  29849965.698      -54748.825 3    -42661.604 2
  32792334.537           0.650 2         0.271 1
 91  4 15 20 24 30.0000000  0  2 19 02
  29848310.248      -63441.229 3    -49434.889 2
  32782428.494      -52054.887 2    -40562.318 1
 91  4 15 20 24 45.0000000  0  3 19 11 02
  29846689.271      -71970.880 3    -56081.361 2
  32660492.410           0.642 2         0.231 1
  32772556.635     -103942.335 2    -80993.865 1
 91  4 15 20 25  0.0000000  0  3 19 11 02
  29845097.672      -80338.753 3    -62601.782 2
  32653592.384      -36237.081 2    -28236.813 1
  32762712.042     -155662.171 2   -121294.874 1
 91  4 15 20 25 15.0000000  0  3 19 11 02
  29543741.494      -88541.555 3    -68993.572 2
  32346946.374      -72258.867 2    -56305.620 1
  32453107.086     -207214.180 2   -161465.056 1
 91  4 15 20 25 30.0000000  0  3 19 11 02
  29542218.849      -96576.671 3    -75254.704 2
  32340143.188     -108057.942 2    -84200.830 1
  32443332.346     -258589.727 2   -201497.749 1
 91  4 15 20 25 45.0000000  0  4 19 11 18 02
  22345691.599        1340.278 3      1044.116 2
  25138343.189      118767.345 2     92546.081 1
  22010209.749           0.302 4         0.414 3
  25238557.809      210986.643 2    164405.743 1
 91  4 15 20 26  0.0000000  0  4 19 11 18 02
  22344225.614       -6369.067 3     -4963.165 2
  25131612.544       83401.537 2     64988.422 1
  22012346.371       11224.867 4      8746.790 3
  25228840.637      159949.444 2    124636.722 1
 91  4 15 20 26 15.0000000  0  4 19 11 18 02
  20843824.919        1396.882 3      1088.347 2
  23625951.698      118039.282 2     91978.841 1
  20515560.872         800.788 4       624.057 3
  23720197.750      209665.846 2    163376.965 1
 91  4 15 20 26 30.0000000  0  4 19 11 18 02
  20842417.995       -5996.439 3     -4672.689 2
  23619299.300       83098.612 2     64752.442 1
  20517786.831       12486.924 4      9730.107 3
  23710547.728      158958.101 2    123864.610 1
 91  4 15 20 26 45.0000000  0  4 19 11 18 02
  20841040.152      -13230.044 3    -10309.253 2
  23612693.669       48372.586 2     37693.332 1
  20520053.858       24405.430 4     19017.214 3
  23700929.490      108416.943 2     84482.046 1
 91  4 15 20 27  0.0000000  0  4 19 11 18 02
  20839696.180      -20305.332 3    -15822.459 2
  23606126.419       13860.411 2     10800.850 1
  20522365.864       36554.906 4     28484.300 3
  23691346.922       58041.146 2     45228.351 1
 91  4 15 20 27 15.0000000  0  4 19 11 18 02
  20838382.187      -27223.294 3    -21213.076 2
  23599596.041      -20438.521 2    -15925.459 1
  20524721.033       48934.649 4     38130.810 3
  23681780.843        7829.945 2      6102.912 1
 91  4 15 20 27 30.0000000  0  4 19 11 18 02
  20837093.079      -33979.920 3    -26477.982 2
  23593113.931      -54519.812 2    -42482.190 1
  20527123.264       61548.753 4     47959.945 3
  23672267.534      -42212.337 2    -32890.883 1
 91  4 15 20 27 45.0000000  0  4 19 11 18 02
  20835837.553      -40573.274 3    -31615.650 2
  23586668.091      -88381.267 2    -68867.620 1
  20529565.379       74398.778 4     57972.910 3
  23662774.598      -92083.702 2    -71751.516 1
 91  4 15 20 28  0.0000000  0  4 19 11 18 02
  20834616.797      -47003.078 3    -36625.883 2
  23580268.119     -122022.081 2    -95081.117 1
  20532058.151       87485.122 4     68170.026 3
  23653316.449     -141783.500 2   -110478.425 1
 91  4 15 20 28 15.0000000  0  4 19 11 18 02
  20833422.425      -53272.616 3    -41511.231 2
  23573908.623     -155445.290 2   -121125.038 1
  20534594.994      100804.622 4     78548.812 3
  23643889.772     -191315.094 2   -149074.289 1
 91  4 15 20 28 30.0000000  0  4 19 11 18 02
  20832259.831      -59383.211 3    -46272.731 2
  23567588.101     -188651.860 2   -147000.157 1
  20537171.711      114355.774 4     89108.122 3
  23634493.981     -240679.593 2   -187539.975 1
 91  4 15 20 28 45.0000000  0  4 19 11 18 02
  20831125.410      -65337.041 3    -50912.074 2
  23561316.441     -221643.405 2   -172707.775 1
  20539793.396      128136.491 4     99846.300 3
  23625126.669     -289878.903 2   -225876.936 1
 91  4 15 20 29  0.0000000  0  4 19 11 18 02
  20830026.674      -71133.392 3    -55428.706 2
  23555069.664     -254418.956 2   -198247.067 1
  20542460.653      142147.538 4    110763.965 3
  23615806.718     -338912.092 2   -264084.403 1
 91  4 15 20 29 15.0000000  0  4 19 11 18 02
  20828951.313      -76773.113 3    -59823.291 2
  23548878.946     -286978.980 2   -223618.375 1
  20545169.573      156387.960 4    121860.359 3
  23606507.156     -387780.015 2   -302163.128 1
 91  4 15 20 29 30.0000000  0  4 19 11 18 02
  20827908.043      -82261.810 3    -64100.187 2
  23542725.712     -319328.681 2   -248825.825 1
  20547921.673      170852.259 4    133131.191 3
  23597231.580     -436488.023 2   -340117.284 1
 91  4 15 20 29 45.0000000  0  4 19 11 18 02
  20826890.844      -87601.465 3    -68260.954 2
  23536606.950     -351469.669 2   -273870.645 1
  20550717.538      185538.474 4    144574.954 3
  23587994.369     -485038.018 2   -377948.260 1
 91  4 15 20 30  0.0000000  0  4 19 11 18 02
  20825899.131      -92795.806 3    -72308.484 2
  23530532.852     -383405.247 2   -298755.402 1
  20553554.167      200442.915 4    156188.766 3
  23578780.252     -533433.187 2   -415658.623 1
 91  4 15 20 30 15.0000000  0  4 19 11 18 02
  20824941.297      -97841.138 3    -76239.910 2
  23524494.728     -415131.364 2   -323476.963 1
  20556432.476      215569.359 4    167975.555 3
  23569611.995     -581669.904 2   -453245.499 1
 91  4 15 20 30 30.0000000  0  4 19 11 18 02
  20824011.034     -102743.425 3    -80059.874 2
  23518492.882     -446653.630 2   -348039.605 1
  20559353.057      230911.646 4    179930.551 3
  23560458.134     -629753.936 2   -490713.386 1
 91  4 15 20 30 45.0000000  0  4 19 11 18 02
  20823100.264     -107505.048 3    -83770.231 2
  23512533.310     -477974.032 2   -372445.087 1
  20562311.105      246467.424 4    192051.891 3
  23551334.253     -677687.362 2   -528063.946 1
 91  4 15 20 31  0.0000000  0  4 19 11 18 02
  20822221.872     -112124.959 3    -87370.151 2
  23506611.814     -509091.356 2   -396692.203 1
  20565309.934      262237.518 4    204340.242 3
  23542240.945     -725469.223 2   -565296.384 1
 91  4 15 20 31 15.0000000  0  5 19 11 18 16 02
  20821369.263     -116606.949 3    -90862.608 2
  23500731.684     -540008.936 2   -420783.673 1
  20568350.730      278218.195 4    216792.682 3
  24547248.997           0.734 2         0.041 1
  23533178.523     -773102.996 2   -602413.457 1
 91  4 15 20 31 30.0000000  0  5 19 11 18 16 02
  20820550.534     -120951.955 3    -94248.330 2
  23494881.830     -570727.428 2   -444720.098 1
  20571435.588      294408.495 4    229408.456 3
  24540672.149      -34494.534 2    -26879.397 1
  23524140.078     -820589.514 2   -639415.718 1
 91  4 15 20 31 45.0000000  0  5 19 11 18 16 02
  20819741.996     -125160.312 3    -97527.558 2
  23489073.953     -601246.781 2   -468501.302 1
  20574557.327      310808.131 4    242187.351 3
  24534153.463      -68786.992 2    -53600.780 1
  23515130.112     -867929.001 2   -676303.489 1
 91  4 15 20 32  0.0000000  0  5 19 11 18 16 02
  20818970.330     -129232.368 3   -100700.593 2
  23483304.745     -631566.902 2   -492127.268 1
  20577712.344      327416.547 4    255128.936 3
  24527669.250     -102876.838 2    -80164.306 1
  23506151.033     -915121.690 2   -713076.808 1
 91  4 15 20 32 15.0000000  0  5 19 11 18 16 02
  20818219.045     -133171.297 3   -103769.896 2
  23477569.120     -661690.525 2   -515600.094 1
  20580915.925      344230.939 4    268231.013 3
  24521207.819     -136766.602 2   -106571.940 1
  23497196.226     -962170.389 2   -749738.006 1
 91  4 15 20 32 30.0000000  0  5 19 11 18 16 02
  20817498.945     -136979.252 3   -106737.120 2
  23471883.255     -691619.215 2   -538921.047 1
  20584155.488      361249.211 4    281491.961 3
  24514802.454     -170457.870 2   -132824.863 1
  23488268.713    -1009076.866 2   -786288.322 1
 91  4 15 20 32 45.0000000  0  5 19 11 18 16 02
  20816793.232     -140659.678 3   -109604.979 2
  23466220.476     -721356.416 2   -562092.794 1
  20587432.220      378467.844 4    294909.029 3
  24508437.261     -203954.045 2   -158925.767 1
  23479376.265    -1055844.569 2   -822730.512 1
 91  4 15 20 33  0.0000000  0  5 19 11 18 16 02
  20816124.400     -144208.618 3   -112370.386 2
  23460599.665     -750897.727 2   -585111.858 1
  20590749.123      395890.538 4    308485.119 3
  24502096.654     -237250.991 2   -184871.470 1
  23470510.804    -1102469.438 2   -859061.354 1
 91  4 15 20 33 15.0000000  0  5 19 11 18 16 02
  20815472.346     -147626.532 3   -115033.698 2
  23455012.437     -780243.169 2   -607978.369 1
  20594099.599      413516.967 4    322219.963 3
  24495796.515     -270349.038 2   -210662.189 1
  23461657.933    -1148951.701 2   -895281.109 1
 91  4 15 20 33 30.0000000  0  5 19 11 18 16 02
  20814837.987     -150915.882 3   -117596.818 2
  23449464.175     -809394.943 2   -630693.919 1
  20597493.248      431344.407 4    336111.435 3
  24489556.631     -303250.285 2   -236299.427 1
  23452836.237    -1195293.655 2   -931391.566 1
 91  4 15 20 33 45.0000000  0  5 19 11 18 16 02
  20814237.499     -154078.828 3   -120061.449 2
  23443958.788     -838354.903 2   -653260.016 1
  20600922.277      449370.864 4    350157.986 3
  24483308.362     -335956.824 2   -261785.153 1
  23444047.226    -1241497.375 2   -967394.308 1
 91  4 15 20 34  0.0000000  0  5 19 11 18 16 02
  20813662.200     -157116.365 3   -122428.360 2
  23438478.277     -867123.671 2   -675677.134 1
  20604390.577      467595.310 4    364358.806 3
  24477120.646     -368469.400 2   -287119.515 1
  23435282.487    -1287563.625 2  -1003289.906 1
 91  4 15 20 34 15.0000000  0  5 19 11 18 16 02
  20813108.487     -160030.725 3   -124699.289 2
  23433040.641     -895703.101 2   -697946.711 1
  20607896.352      486015.419 4    378712.095 3
  24470978.196     -400790.039 2   -312304.416 1
  23426537.546    -1333494.553 2  -1039080.066 1
 91  4 15 20 34 30.0000000  0  5 19 11 18 16 02
  20812578.149     -162823.268 3   -126875.296 2
  23427641.081     -924094.162 2   -720069.516 1
  20611436.600      504629.690 4    393216.668 3
  24464864.529     -432919.794 2   -337340.646 1
  23417822.882    -1379291.312 2  -1074765.674 1
 91  4 15 20 34 45.0000000  0  5 19 11 18 16 02
  20812069.405     -165497.972 3   -128959.477 3
  23422268.499     -952300.644 2   -742048.450 1
  20615015.823      523434.201 4    407869.482 3
  24458763.148     -464862.317 2   -362230.902 1
  23409132.193    -1424957.888 2  -1110349.824 1
 91  4 15 20 35  0.0000000  0  5 19 11 18 16 02
  20811578.941     -168055.204 3   -130952.130 2
  23416936.096     -980322.508 2   -763883.565 1
  20618630.121      542428.405 4    422670.118 3
  24452735.223     -496617.753 2   -386975.413 1
  23400467.296    -1470494.530 2  -1145832.748 1
 91  4 15 20 35 15.0000000  0  5 19 11 18 16 02
  20811114.861     -170494.549 3   -132852.923 2
  23411638.760    -1008158.935 2   -785574.140 1
  20622282.792      561612.743 4    437618.909 3
  24446733.675     -528185.670 2   -411573.791 1
  23391823.680    -1515900.432 2  -1181213.802 1
 91  4 15 20 35 30.0000000  0  5 19 11 18 16 02
  20810671.469     -172816.664 3   -134662.356 2
  23406379.500    -1035810.354 2   -807120.593 1
  20625970.834      580986.754 4    452715.493 3
  24440760.613     -559566.423 2   -436026.222 1
  23383205.541    -1561176.378 2  -1216493.593 1
 91  4 15 20 35 45.0000000  0  5 19 11 18 16 02
  20810255.063     -175027.780 3   -136385.303 2
  23401149.923    -1063282.583 2   -828527.420 1
  20629691.858      600544.187 4    467955.000 3
  24434832.818     -590766.010 2   -460337.671 1
  23374624.885    -1606328.223 2  -1251676.690 1
 91  4 15 20 36  0.0000000  0  5 19 11 18 16 02
  20809856.334     -177131.186 3   -138024.329 3
  23395955.115    -1090578.496 2   -849796.860 1
  20633446.158      620281.696 4    483334.837 3
  24428926.609     -621787.366 2   -484510.244 1
  23366049.621    -1651358.921 2  -1286765.362 1
 91  4 15 20 36 15.0000000  0  5 19 11 18 16 02
  20809476.495     -179121.638 3   -139575.337 2
  23390794.789    -1117692.629 2   -870924.627 1
  20637238.841      640204.088 4    498858.728 3
  24423051.277     -652625.155 2   -508539.692 1
  23357507.338    -1696263.063 2  -1321755.442 1
 91  4 15 20 36 30.0000000  0  5 19 11 18 16 02
  20809114.351     -180998.177 3   -141037.567 2
  23385673.133    -1144623.502 2   -891909.595 1
  20641064.487      660312.579 4    514527.637 3
  24417219.415     -683278.271 2   -532425.170 1
  23348987.828    -1741039.576 2  -1356646.022 1
 91  4 15 20 36 45.0000000  0  5 19 11 18 16 02
  20808782.482     -182759.986 3   -142410.404 2
  23380579.964    -1171370.036 2   -912750.934 1
  20644927.311      680608.019 4    530342.222 3
  24411421.728     -713745.451 2   -556165.847 1
  23340483.918    -1785687.648 2  -1391436.565 1
 91  4 15 20 37  0.0000000  0  5 19 11 18 16 02
  20808466.799     -184411.384 3   -143697.204 2
  23375529.059    -1197936.222 2   -933451.763 1
  20648824.015      701085.974 4    546299.018 3
  24405653.419     -744030.923 2   -579764.890 1
  23332013.879    -1830211.263 2  -1426130.104 1
 91  4 15 20 37 15.0000000  0  5 19 11 18 16 02
  20808175.398     -185952.957 3   -144898.431 3
  23370504.836    -1224322.353 2   -954012.266 1
  20652755.191      721745.702 4    562397.466 3
  24399934.878     -774135.360 2   -603222.867 1
  23323562.136    -1874611.075 2  -1460727.188 1
 91  4 15 20 37 30.0000000  0  5 19 11 18 16 02
  20807901.089     -187388.169 3   -146016.779 2
  23365518.384    -1250531.502 2   -974434.848 1
  20656722.350      742583.867 4    578634.952 3
  24394232.225     -804061.240 2   -626541.699 1
  23315140.068    -1918890.414 2  -1495230.427 1
 91  4 15 20 37 45.0000000  0  5 19 11 18 16 02
  20807645.967     -188714.439 3   -147050.234 2
  23360567.618    -1276560.830 2   -994717.302 1
  20660719.479      763602.893 4    595013.364 3
  24388584.733     -833806.309 2   -649719.647 1
  23306733.286    -1963046.306 2  -1529637.427 1
 91  4 15 20 38  0.0000000  0  5 19 11 18 16 02
  20807418.128     -189936.230 3   -148002.275 2
  23355647.424    -1302414.306 2  -1014862.776 1
  20664754.685      784798.335 4    611529.238 3
  24382945.634     -863374.413 2   -672759.747 1
  23298357.984    -2007083.244 2  -1563951.767 1
 91  4 15 20 38 15.0000000  0  5 19 11 18 16 02
  20807204.372     -191041.767 3   -148863.735 2
  23350764.103    -1328079.996 2  -1034861.906 1
  20668821.676      806181.924 4    628191.731 3
  24377347.909     -892754.067 2   -695652.915 1
  23290000.970    -2050989.499 2  -1598164.260 1
 91  4 15 20 38 30.0000000  0  5 19 11 18 16 02
  20807014.601     -192043.549 3   -149644.337 3
  23345904.165    -1353569.957 2  -1054724.111 1
  20672926.726      827741.203 4    644991.120 3
  24371811.043     -921957.201 2   -718408.664 1
  23281673.037    -2094777.062 2  -1632284.259 1
 91  4 15 20 38 45.0000000  0  5 19 11 18 16 02
  20806843.423     -192942.446 3   -150344.784 2
  23341096.996    -1378884.894 2  -1074449.916 1
  20677060.866      849474.991 4    661926.492 3
  24366287.970     -950984.847 2   -741027.582 1
  23273360.390    -2138446.750 2  -1666312.404 1
 91  4 15 20 39  0.0000000  0  5 19 11 18 16 02
  20806692.924     -193737.279 3   -150964.138 2
  23336308.107    -1404023.367 2  -1094038.225 1
  20681232.184      871384.357 4    678998.674 3
  24360783.177     -979835.525 2   -763508.686 1
  23265064.827    -2181997.382 2  -1700247.823 1
 91  4 15 20 39 15.0000000  0  5 19 11 18 16 02
  20806563.120     -194428.012 3   -151502.362 2
  23331561.796    -1428984.833 2  -1113488.655 1
  20685434.667      893469.471 4    696207.809 3
  24355336.850    -1008508.792 2   -785851.416 1
  23256805.848    -2225428.717 2  -1734090.233 1
 91  4 15 20 39 30.0000000  0  5 19 11 18 16 02
  20806450.392     -195014.784 3   -151959.595 2
  23326840.962    -1453768.974 2  -1132800.768 1
  20689667.139      915729.948 4    713553.585 3
  24349912.703    -1037004.662 2   -808056.034 1
  23248566.056    -2268740.639 2  -1767839.629 1
 91  4 15 20 39 45.0000000  0  5 19 11 18 16 02
  20806357.155     -195503.103 3   -152340.100 2
  23322159.409    -1478381.150 2  -1151978.993 1
  20693937.085      938160.559 4    731031.941 3
  24344519.740    -1065328.636 2   -830126.632 1
  23240344.840    -2311938.461 2  -1801500.104 1
 91  4 15 20 40  0.0000000  0  5 19 11 18 16 02
  20806281.910     -195888.620 3   -152640.507 2
  23317512.626    -1502816.753 2  -1171019.596 1
  20698240.902      960765.444 4    748646.090 3
  24339168.744    -1093475.962 2   -852059.609 1
  23232144.922    -2355017.841 2  -1835068.329 1
 91  4 15 20 40 15.0000000  0  5 19 11 18 16 02
  20806232.142     -196175.076 3   -152863.727 2
  23312885.622    -1527079.157 2  -1189925.238 1
  20702573.809      983540.796 4    766393.078 3
  24333843.827    -1121450.390 2   -873857.871 1
  23223965.682    -2397982.470 2  -1868547.072 1
 91  4 15 20 40 30.0000000  0  5 19 11 18 16 02
  20806194.973     -196362.821 3   -153010.023 2
  23308305.996    -1551168.587 2  -1208696.126 1
  20706939.382     1006485.819 4    784272.266 2
  24328551.595    -1149251.955 2   -895521.407 1
  23215817.023    -2440832.610 2  -1901936.627 1
 91  4 15 20 40 45.0000000  0  5 19 11 18 16 02
  20806177.880     -196452.505 3   -153079.902 2
  23303752.745    -1575085.196 2  -1227332.389 1
  20711340.336     1029600.220 4    802283.432 3
  24323290.232    -1176881.243 2   -917050.741 1
  23207681.557    -2483568.558 2  -1935237.185 1
 91  4 15 20 41  0.0000000  0  5 19 11 18 16 02
  20806176.982     -196444.967 3   -153074.019 2
  23299238.775    -1598829.435 2  -1245834.267 1
  20715767.674     1052883.148 4    820425.927 3
  24318071.448    -1204338.390 2   -938445.861 1
  23199576.664    -2526190.889 2  -1968449.243 1
 91  4 15 20 41 15.0000000  0  5 19 11 18 16 02
  20806200.365     -196342.027 3   -152993.826 2
  23294749.680    -1622402.900 2  -1264203.072 1
  20720231.885     1076332.447 4    838698.064 3
  24312874.546    -1231625.305 2   -959708.461 1
  23191479.274    -2568701.414 2  -2001574.159 1
 91  4 15 20 41 30.0000000  0  5 19 11 18 16 02
  20806239.637     -196140.741 3   -152836.968 2
  23290295.966    -1645802.385 2  -1282436.343 1
  20724724.871     1099951.095 4    857102.160 3
  24307713.924    -1258738.911 2   -980835.899 1
  23183413.060    -2611097.147 2  -2034609.630 1
 91  4 15 20 41 45.0000000  0  5 19 11 18 16 02
  20806293.602     -195846.082 3   -152607.373 2
  23285878.522    -1669032.632 2  -1300537.702 1
  20729252.339     1123733.908 4    875634.182 3
  24302588.070    -1285684.021 2  -1001832.102 1
  23175369.329    -2653383.049 2  -2067559.574 1
 91  4 15 20 42  0.0000000  0  5 19 11 18 16 02
  20806366.151     -195455.012 3   -152302.653 3
  23281491.956    -1692090.058 2  -1318504.429 1
  20733810.684     1147684.013 4    894296.558 3
  24297490.993    -1312457.110 2  -1022694.239 1
  23167341.488    -2695555.704 2  -2100421.191 1
 91  4 15 20 42 15.0000000  0  5 19 11 18 16 02
  20806459.989     -194969.262 3   -151924.148 2
  23277134.471    -1714976.122 2  -1336337.622 1
  20738399.306     1171800.048 4    913088.230 3
  24292429.304    -1339059.964 2  -1043423.759 1
  23159335.825    -2737616.615 2  -2133195.793 1
 91  4 15 20 42 30.0000000  0  5 19 11 18 16 02
  20806568.216     -194390.874 3   -151473.458 2
  23272814.469    -1737692.480 2  -1354038.553 1
  20743017.306     1196079.697 4    932007.384 3
  24287404.182    -1365494.309 2  -1064021.918 1
  23151358.650    -2779567.620 2  -2165884.745 1
 91  4 15 20 42 45.0000000  0  5 19 11 18 16 02
  20806695.628     -193719.877 3   -150950.611 2
  23268524.734    -1760238.940 2  -1371607.121 1
  20747670.389     1220522.599 4    951053.752 3
  24282397.043    -1391759.959 2  -1084488.643 1
  23143391.360    -2821408.549 2  -2198487.889 1
 91  4 15 20 43  0.0000000  0  5 19 11 18 16 02
  20806842.821     -192956.725 3   -150355.946 3
  23264267.082    -1782615.684 2  -1389043.464 1
  20752351.942     1245128.223 4    970226.905 2
  24277429.490    -1417857.304 2  -1104824.232 1
  23135454.059    -2863140.025 2  -2231005.755 1
 91  4 15 20 43 15.0000000  0  5 19 11 18 16 02
  20807002.613     -192106.899 3   -149693.747 3
  23260034.313    -1804828.082 2  -1406351.733 1
  20757064.086     1269890.863 4    989522.421 3
  24272499.995    -1443791.981 2  -1125033.066 1
  23127529.941    -2904767.512 2  -2263442.606 1
 91  4 15 20 43 30.0000000  0  5 19 11 18 16 02
  20807180.692     -191166.949 3   -148961.316 2
  23255838.714    -1826872.287 2  -1423528.917 1
  20761806.802     1294813.918 4   1008942.926 3
  24267599.887    -1469559.991 2  -1145112.059 1
  23119635.210    -2946287.277 2  -2295795.509 1
 91  4 15 20 43 45.0000000  0  5 19 11 18 16 02
  20807379.153     -190140.220 3   -148161.281 2
  23251678.800    -1848751.251 2  -1440577.321 1
  20766580.693     1319894.086 4   1028485.858 3
  24262723.764    -1495164.542 2  -1165063.627 1
  23111748.872    -2987702.516 2  -2328066.988 1
 91  4 15 20 44  0.0000000  0  5 19 11 18 16 02
  20807595.301     -189024.349 3   -147291.772 2
  23247548.560    -1870462.323 2  -1457494.961 1
  20771384.266     1345133.623 4   1048152.983 3
  24257874.322    -1520603.476 2  -1184886.147 1
  23103881.118    -3029010.915 2  -2360255.190 1
 91  4 15 20 44 15.0000000  0  5 19 11 18 16 02
  20807818.943     -187821.831 3   -146354.750 2
  23243443.798    -1892007.792 2  -1474283.557 1
  20776216.624     1370530.090 4   1067942.387 3
  24253075.547    -1545878.725 2  -1204581.164 1
  23096046.040    -3070214.813 2  -2392361.970 1
 91  4 15 20 44 30.0000000  0  5 19 11 18 16 02
  20808066.273     -186528.139 3   -145346.681 3
  23239374.713    -1913382.770 2  -1490939.258 1
  20781078.656     1396087.876 4   1087857.495 3
  24248294.754    -1570985.513 2  -1224144.874 1
  23088231.353    -3111309.358 2  -2424383.549 1
 91  4 15 20 44 45.0000000  0  5 19 11 18 16 02
  20808329.789     -185146.940 3   -144270.441 2
  23235344.306    -1934590.579 2  -1507464.708 1
  20785970.668     1421803.073 4   1107895.261 2
  24243549.037    -1595927.221 2  -1243579.975 1
  23080425.050    -3152297.937 2  -2456322.535 1
 91  4 15 20 45  0.0000000  0  5 19 11 18 16 02
  20808608.896     -183680.085 3   -143127.437 2
  23231339.681    -1955632.792 2  -1523861.180 1
  20790896.559     1447673.732 4   1128054.153 3
  24238840.802    -1620705.550 2  -1262887.771 1
  23072640.945    -3193182.438 2  -2488180.455 1
 91  4 15 20 45 15.0000000  0  5 19 11 18 16 02
  20808902.400     -182130.254 3   -141919.785 2
  23227366.528    -1976512.015 2  -1540130.590 1
  20795848.233     1473697.256 4   1148332.151 3
  24234149.346    -1645323.499 2  -1282070.553 1
  23064884.715    -3233965.650 2  -2519959.450 1
 91  4 15 20 45 30.0000000  0  5 19 11 18 16 02
  20809215.981     -180495.960 3   -140646.315 2
  23223423.660    -1997226.272 2  -1556271.447 1
  20800828.385     1499874.998 4   1168730.361 3
  24229490.871    -1669779.200 2  -1301126.957 1
  23057142.569    -3274645.771 2  -2551658.109 1
 91  4 15 20 45 45.0000000  0  5 19 11 18 16 02
  20809538.557     -178776.809 3   -139306.719 2
  23219514.061    -2017774.959 2  -1572283.311 1
  20805840.018     1526207.128 4   1189248.847 3
  24224881.867    -1694071.948 2  -1320056.363 1
  23049421.720    -3315222.364 2  -2583276.085 1
 91  4 15 20 46  0.0000000  0  5 19 11 18 16 02
  20809884.516     -176971.049 3   -137899.638 2
  23215631.449    -2038156.016 2  -1588164.556 1
  20810880.426     1552695.359 4   1209888.976 3
  24220289.642    -1718199.564 2  -1338857.064 1
  23041716.751    -3355693.378 2  -2614811.791 1
 91  4 15 20 46 15.0000000  0  5 19 11 18 16 02
  20810241.870     -175081.775 3   -136427.481 2
  23211789.914    -2058372.266 2  -1603917.389 1
  20815950.814     1579336.675 4   1230648.393 3
  24215723.504    -1742165.256 2  -1357531.639 1
  23034036.665    -3396061.795 2  -2646267.535 1
 91  4 15 20 46 30.0000000  0  5 19 11 18 16 02
  20810622.303     -173109.231 3   -134890.435 2
  23207972.653    -2078423.715 2  -1619541.819 1
  20821049.383     1606130.700 4   1251526.801 3
  24211185.845    -1765969.017 2  -1376080.014 1
  23026375.174    -3436327.660 2  -2677643.375 1
 91  4 15 20 46 45.0000000  0  5 19 11 18 16 02
  20811010.535     -171055.033 3   -133289.766 3
  23204188.975    -2098311.665 2  -1635038.791 2
  20826176.737     1633075.711 4   1272522.852 3
  24206688.061    -1789612.256 2  -1394503.293 1
  23018733.165    -3476492.620 2  -2708940.599 1
 91  4 15 20 47  0.0000000  0  5 19 11 18 16 02
  20811414.656     -168920.002 3   -131626.115 2
  23200433.775    -2118036.811 2  -1650408.942 1
  20831331.366     1660170.600 4   1293635.699 2
  24202216.058    -1813095.914 2  -1412802.183 1
  23011107.341    -3516557.597 2  -2740159.928 1
 91  4 15 20 47 15.0000000  0  5 19 11 18 16 02
  20811835.869     -166701.553 3   -129897.454 2
  23196707.351    -2137596.150 2  -1665649.881 1
  20836520.179     1687417.868 4   1314867.272 2
  24197791.119    -1836417.246 2  -1430974.689 1
  23003505.206    -3556519.711 2  -2771299.080 1
 91  4 15 20 47 30.0000000  0  5 19 11 18 16 02
  20812275.964     -164400.866 3   -128104.713 2
  23193023.505    -2156990.596 2  -1680762.355 1
  20841731.765     1714816.179 4   1336216.554 3
  24193387.470    -1859577.058 2  -1449021.319 1
  22995915.661    -3596380.025 2  -2802358.951 1
 91  4 15 20 47 45.0000000  0  5 19 11 18 16 02
  20812731.048     -162020.150 3   -126249.609 3
  23189364.840    -2176222.172 2  -1695747.878 1
  20846975.739     1742363.386 4   1357681.847 3
  24188987.711    -1882577.632 2  -1466943.790 1
  22988354.892    -3636140.710 2  -2833341.134 1
 91  4 15 20 48  0.0000000  0  5 19 11 18 16 02
  20813194.822     -159558.235 3   -124331.239 3
  23185736.451    -2195289.217 2  -1710605.220 1
  20852246.987     1770060.463 4   1379263.925 2
  24184656.908    -1905417.322 2  -1484740.938 1
  22980797.726    -3675800.211 2  -2864244.502 1
 91  4 15 20 48 15.0000000  0  5 19 11 18 16 02
  20813683.786     -157016.132 3   -122350.387 3
  23182131.140    -2214192.651 2  -1725335.085 1
  20857540.127     1797906.252 4   1400961.889 2
  24180333.005    -1928097.257 2  -1502413.629 1
  22973275.932    -3715359.540 2  -2895069.818 1
 91  4 15 20 48 30.0000000  0  5 19 11 18 16 02
  20814178.744     -154398.697 3   -120310.834 2
  23178567.213    -2232936.971 2  -1739940.969 1
  20862871.038     1825896.049 4   1422772.060 3
  24176058.566    -1950622.209 2  -1519965.537 1
  22965769.424    -3754823.453 2  -2925820.783 1
 91  4 15 20 48 45.0000000  0  6 19 11 18 16 02 06
  20814691.388     -151700.274 3   -118208.166 2
  23175033.256    -2251516.383 2  -1754418.328 1
  20868223.831     1854034.970 4   1444698.423 3
  24171796.115    -1972986.354 2  -1537392.135 1
  22958274.320    -3794186.342 2  -2956492.996 1
  24620743.712           0.196 2         0.251 1
 91  4 15 20 49  0.0000000  0  6 19 11 18 16 02 06
  20815220.226     -148922.222 3   -116043.456 3
  23171531.983    -2269932.036 2  -1768768.067 1
  20873609.300     1882322.001 4   1466740.207 3
  24167572.638    -1995190.717 2  -1554694.251 1
  22950805.592    -3833449.492 2  -2987087.527 1
  24614905.855      -30689.058 2    -23913.269 1
 91  4 15 20 49 15.0000000  0  6 19 11 18 16 02 06
  20815767.342     -146066.880 3   -113818.519 3
  23168053.491    -2288185.942 2  -1782991.790 1
  20879018.160     1910754.276 4   1488895.157 2
  24163386.637    -2017237.385 2  -1571873.459 1
  22943349.751    -3872615.018 2  -3017605.973 1
  24609076.689      -61329.170 2    -47788.519 1
 91  4 15 20 49 30.0000000  0  6 19 11 18 16 02 06
  20816321.962     -143138.667 3   -111536.797 3
  23164605.276    -2306282.100 2  -1797092.608 1
  20884455.195     1939327.576 4   1511160.004 2
  24159205.730    -2039130.799 2  -1588933.246 1
  22935914.597    -3911687.127 2  -3048051.630 1
  24603246.030      -91924.565 2    -71628.863 1
 91  4 15 20 49 45.0000000  0  6 19 11 18 16 02 06
  20816892.166     -140139.360 3   -109199.677 2
  23161190.042    -2324222.024 2  -1811071.659 1
  20889921.013     1968040.188 4   1533533.406 2
  24155076.389    -2060872.558 2  -1605874.840 1
  22928499.232    -3950667.430 2  -3078425.758 1
  24597435.753     -122476.949 2    -95435.776 1
 91  4 15 20 50  0.0000000  0  6 19 11 18 16 02 06
  20817477.359     -137072.284 3   -106809.742 2
  23157813.180    -2342009.018 2  -1824931.537 1
  20895412.308     1996888.412 4   1556012.478 3
  24150965.633    -2082465.977 2  -1622700.869 1
  22921102.154    -3989559.399 2  -3108731.058 1
  24591627.274     -152989.962 2   -119211.931 1
 91  4 15 20 50 15.0000000  0  6 19 11 18 16 02 06
  20818070.047     -133935.045 3   -104365.145 3
  23154458.803    -2359640.385 2  -1838670.148 1
  20900925.487     2025874.345 4   1578598.861 3
  24146885.161    -2103908.414 2  -1639409.273 1
  22913715.861    -4028360.425 2  -3138965.476 1
  24585829.282     -183461.300 2   -142955.621 1
 91  4 15 20 50 30.0000000  0  6 19 11 18 16 02 06
  20818685.821     -130725.316 3   -101864.070 3
  23151133.804    -2377113.571 2  -1852285.576 1
  20906468.051     2055000.162 4   1601294.241 3
  24142838.560    -2125197.365 2  -1655998.082 1
  22906347.864    -4067068.207 2  -3169127.274 1
  24580039.989     -213888.715 1   -166665.155 1
 91  4 15 20 50 45.0000000  0  5 19 11 18 16 02
  20819306.997     -127444.504 3    -99307.592 2
  23147834.291    -2394429.779 2  -1865778.604 1
  20912036.101     2084264.543 4   1624097.590 2
  24138813.545    -2146334.428 2  -1672468.539 1
  22899002.047    -4105683.781 2  -3199217.160 2
 91  4 15 20 51  0.0000000  0  5 19 11 18 16 02
  20819945.849     -124093.226 3    -96696.206 3
  23144573.744    -2411589.027 2  -1879149.336 1
  20917632.927     2113666.736 4   1647008.321 3
  24134823.309    -2167319.699 2  -1688820.676 1
  22891667.624    -4144207.551 2  -3229235.554 1
 91  4 15 20 51 15.0000000  0  5 19 11 18 16 02
  20820597.597     -120670.143 3    -94028.870 3
  23141336.885    -2428589.928 2  -1892396.706 1
  20923256.731     2143208.097 4   1670027.490 2
  24130857.057    -2188151.860 2  -1705053.528 1
  22884353.296    -4182638.189 2  -3259181.377 1
 91  4 15 20 51 30.0000000  0  5 19 11 18 16 02
  20821262.241     -117175.496 3    -91305.772 3
  23138133.008    -2445432.451 2  -1905520.648 1
  20928900.925     2172888.273 4   1693154.843 2
  24126927.975    -2208831.039 2  -1721167.237 1
  22877060.544    -4220975.899 2  -3289054.766 1
 91  4 15 20 51 45.0000000  0  5 19 11 18 16 02
  20821940.374     -113609.151 3    -88526.815 3
  23134956.998    -2462116.197 2  -1918520.897 1
  20934574.497     2202707.038 4   1716390.175 2
  24123012.984    -2229356.840 2  -1737161.281 1
  22869783.079    -4259220.567 2  -3318855.686 2
 91  4 15 20 52  0.0000000  0  5 19 11 18 16 02
  20822632.895     -109972.574 3    -85693.115 2
  23131810.680    -2478642.484 2  -1931398.420 1
  20940277.447     2232662.890 4   1739732.323 3
  24119132.474    -2249730.569 2  -1753036.897 1
  22862520.604    -4297373.563 2  -3348585.158 2
 91  4 15 20 52 15.0000000  0  5 19 11 18 16 02
  20823339.201     -106262.951 3    -82802.509 3
  23128702.134    -2495008.268 2  -1944150.902 1
  20946003.186     2262758.350 4   1763183.270 3
  24115286.132    -2269949.397 2  -1768791.824 1
  22855278.223    -4335431.892 2  -3378240.861 1
 91  4 15 20 52 30.0000000  0  5 19 11 18 16 02
  20824059.904     -102479.143 3    -79854.092 2
  23125611.875    -2511212.247 2  -1956777.281 1
  20951757.404     2292994.453 4   1786743.796 2
  24111470.974    -2290012.072 2  -1784424.963 1
  22848046.922    -4373394.464 2  -3407821.961 1
 91  4 15 20 52 45.0000000  0  5 19 11 18 16 02
  20824793.493      -98621.447 3    -76848.104 3
  23122560.285    -2527254.202 2  -1969277.474 1
  20957535.302     2323371.002 4   1810413.771 3
  24107678.003    -2309918.704 2  -1799936.758 1
  22840847.408    -4411261.243 2  -3437328.413 1
 91  4 15 20 53  0.0000000  0  5 19 11 18 16 02
  20825542.073      -94686.868 3    -73782.204 3
  23119541.075    -2543131.071 2  -1981648.931 1
  20963344.375     2353891.014 4   1834195.537 3
  24103931.197    -2329665.844 2  -1815324.129 1
  22833665.579    -4449029.008 2  -3466757.713 1
 91  4 15 20 53 15.0000000  0  5 19 11 18 16 02
  20826305.947      -90673.848 3    -70655.180 3
  23116553.946    -2558841.056 2  -1993890.376 1
  20969181.036     2384555.630 4   1858089.970 3
  24100205.078    -2349252.286 2  -1830586.316 1
  22826492.448    -4486696.240 2  -3496108.662 2
 91  4 15 20 53 30.0000000  0  6 19 11 18 16 02 06
  20827085.108      -86583.962 3    -67468.264 2
  23113591.091    -2574385.470 2  -2006002.833 1
  20975042.582     2415363.215 4   1882095.813 3
  24096496.043    -2368679.354 2  -1845724.260 1
  22819349.594    -4524264.265 2  -3525382.292 2
  24511189.954      142195.85012    110803.096 1
 91  4 15 20 53 45.0000000  0  6 19 11 18 16 02 06
  20827877.758      -82416.731 3    -64221.073 2
  23110664.821    -2589763.692 2  -2017985.776 1
  20980932.903     2446313.834 4   1906213.109 2
  24092829.883    -2387946.539 2  -1860737.635 1
  22812216.033    -4561732.830 2  -3554578.446 1
  24505519.986      112348.007 2     87545.255 1
 91  4 15 20 54  0.0000000  0  6 19 11 18 16 02 06
  20828686.000      -78172.079 3    -60913.563 3
  23107769.428    -2604975.314 2  -2029838.901 1
  20986850.202     2477407.700 4   1930442.034 3
  24089199.095    -2407053.793 2  -1875626.486 1
  22805105.854    -4599101.787 3  -3583697.004 1
  24499847.312       82547.904 2     64324.432 1
 91  4 15 20 54 15.0000000  0  6 19 11 18 16 02 06
  20829505.637      -73842.388 3    -57539.781 3
  23104909.102    -2620012.474 2  -2041556.074 1
  20992794.793     2508652.333 4   1954788.430 3
  24085594.386    -2425993.049 2  -1890384.292 1
  22798014.862    -4636363.375 2  -3612731.876 1
  24494191.426       52803.113 2     41146.921 1
 91  4 15 20 54 30.0000000  0  6 19 11 18 16 02 06
  20830353.744      -69427.765 3    -54099.814 3
  23102079.663    -2634875.014 2  -2053137.203 1
  20998769.058     2540047.424 4   1979252.074 3
  24082021.463    -2444764.363 2  -1905011.310 1
  22790944.261    -4673517.426 2  -3641682.959 2
  24488533.438       23113.491 2     18012.366 1
 91  4 15 20 54 45.0000000  0  6 19 11 18 16 02 06
  20831204.259      -64925.069 3    -50591.225 3
  23099285.595    -2649559.715 2  -2064579.753 1
  21004775.100     2571595.956 4   2003835.270 2
  24078470.719    -2463364.577 2  -1919504.952 1
  22783892.541    -4710560.838 2  -3670547.840 2
  24482901.842       -6518.018 2     -5077.127 1
 91  4 15 20 55  0.0000000  0  6 19 11 18 16 02 06
  20832080.547      -60332.432 3    -47012.548 3
  23096529.603    -2664064.462 2  -2075882.071 1
  21010804.220     2603299.564 4   2028539.303 3
  24074978.738    -2481791.653 2  -1933863.717 1
  22776870.503    -4747491.630 3  -3699324.941 2
  24477275.334      -36089.685 2    -28119.774 1
 91  4 15 20 55 15.0000000  0  6 19 11 18 16 02 06
  20832971.538      -55649.050 3    -43363.169 3
  23093798.199    -2678388.261 2  -2087043.362 1
  21016867.229     2635158.863 4   2053364.669 3
  24071501.747    -2500044.985 2  -1948087.155 1
  22769855.359    -4784308.929 2  -3728013.630 1
  24471643.730      -65600.760 2    -51115.240 1
 91  4 15 20 55 30.0000000  0  6 19 11 18 16 02 06
  20833881.706      -50877.903 3    -39645.396 2
  23091106.364    -2692534.017 2  -2098065.980 1
  21022960.504     2667170.844 4   2078309.004 3
  24068061.629    -2518127.240 2  -1962177.126 1
  22762879.189    -4821015.768 3  -3756616.228 1
  24466049.609      -95054.533 2    -74066.094 1
 91  4 15 20 55 45.0000000  0  6 19 11 18 16 02 06
  20834806.263      -46018.410 3    -35858.779 2
  23088450.502    -2706500.821 3  -2108949.139 1
  21029078.673     2699335.970 3   2103372.669 2
  24064640.400    -2536037.452 2  -1976132.910 1
  22755912.006    -4857611.428 3  -3785132.202 1
  24460455.479     -124450.221 2    -96971.708 1
 91  4 15 20 56  0.0000000  0  6 19 11 18 16 02 06
  20835741.315      -41073.086 3    -32005.281 3
  23085829.112    -2720290.846 2  -2119694.524 2
  21035231.009     2731651.584 3   2128553.596 2
  24061277.324    -2553778.395 2  -1989957.271 1
  22748967.614    -4894098.126 3  -3813563.278 2
  24454868.547     -153790.451 1   -119834.090 1
 91  4 15 20 56 15.0000000  0  6 19 11 18 16 02 06
  20836702.447      -36044.760 3    -28087.113 2
  23083238.008    -2733906.721 3  -2130304.180 1
  21041406.135     2764114.719 3   2153849.474 2
  24057931.943    -2571352.614 2  -2003651.458 1
  22742038.813    -4930478.631 2  -3841911.600 2
  24449293.011     -183078.010 1   -142655.441 1
 91  4 15 20 56 30.0000000  0  5 19 11 18 16 02
  20837680.375      -30933.762 3    -24104.520 2
  23080676.578    -2747348.786 2  -2140778.475 2
  21047612.445     2796724.867 3   2179259.923 2
  24054612.336    -2588760.439 2  -2017216.014 1
  22735144.790    -4966753.303 2  -3870177.450 1
 91  4 15 20 56 45.0000000  0  5 19 11 18 16 02
  20838659.192      -25743.451 3    -20060.123 2
  23078154.123    -2760620.008 3  -2151119.631 1
  21053846.325     2829478.365 3   2204782.046 3
  24051330.212    -2606004.919 2  -2030653.274 1
  22728257.957    -5002925.379 2  -3898363.365 1
 91  4 15 20 57  0.0000000  0  5 19 11 18 16 02
  20839666.803      -20472.980 3    -15953.268 3
  23075659.256    -2773719.457 2  -2161326.901 2
  21060104.497     2862375.818 3   2230416.356 3
  24048089.157    -2623085.280 2  -2043962.647 1
  22721392.405    -5038994.077 3  -3926468.727 2
 91  4 15 20 57 15.0000000  0  5 19 11 18 16 02
  20840680.093      -15127.801 3    -11788.195 3
  23073197.057    -2786652.317 3  -2171404.357 1
  21066391.741     2895411.730 3   2256158.562 2
  24044872.680    -2640006.852 2  -2057148.265 1
  22714547.845    -5074964.658 2  -3954497.639 2
 91  4 15 20 57 30.0000000  0  5 19 11 18 16 02
  20841712.884       -9709.491 3     -7566.136 2
  23070767.236    -2799419.853 3  -2181353.050 1
  21072705.666     2928584.779 3   2282007.611 2
  24041672.397    -2656771.129 2  -2070211.329 1
  22707723.666    -5110838.476 2  -3982451.141 2
 91  4 15 20 57 45.0000000  0  5 19 11 18 16 02
  20842757.062       -4218.132 3     -3287.159 2
  23068369.201    -2812021.861 3  -2191172.736 1
  21079044.178     2961894.541 4   2307963.205 2
  24038523.375    -2673378.165 2  -2083151.867 1
  22700916.284    -5146615.555 2  -4010329.254 2
 91  4 15 20 58  0.0000000  0  6 19 11 18 16 02 06
  20843822.223        1346.237 3      1048.712 2
  23066003.239    -2824458.272 3  -2200863.345 2
  21085410.873     2995340.635 3   2334025.023 3
  24035377.650    -2689827.752 2  -2095969.825 1
  22694124.188    -5182295.802 2  -4038131.928 1
  24410538.232      130913.75712    102013.559 1
 91  4 15 20 58 15.0000000  0  6 19 11 18 16 02 06
  20844889.487        6977.913 3      5437.031 3
  23063667.851    -2836734.748 2  -2210429.383 1
  21091798.254     3028917.089 4   2360188.413 3
  24032283.796    -2706125.597 2  -2108669.344 1
  22687350.677    -5217885.091 2  -4065863.738 2
  24405037.348      101982.312 2     79469.698 1
 91  4 15 20 58 30.0000000  0  6 19 11 18 16 02 06
  20845973.233       12678.570 3      9879.096 3
  23061361.551    -2848849.350 3  -2219869.231 1
  21098211.410     3062625.729 3   2386454.814 2
  24029204.924    -2722269.866 2  -2121249.279 1
  22680599.345    -5253381.582 2  -4093523.218 2
  24399536.751       73088.542 2     56955.189 1
 91  4 15 20 58 45.0000000  0  6 19 11 18 16 02 06
  20847070.171       18445.743 3     14372.990 3
  23059086.724    -2860804.172 2  -2229184.613 1
  21104650.357     3096463.817 3   2412822.091 3
  24026169.231    -2738262.834 2  -2133711.360 1
  22673855.219    -5288787.323 2  -4121111.968 2
  24394050.254       44230.046 2     34468.176 1
 91  4 15 20 59  0.0000000  0  6 19 11 18 16 02 06
  20848183.905       24277.756 3     18917.408 2
  23056844.275    -2872600.757 3  -2238376.678 1
  21111115.375     3130429.451 3   2439288.742 3
  24023153.921    -2754106.058 2  -2146056.676 1
  22667144.363    -5324104.167 3  -4148631.465 2
  24388556.856       15405.009 2     12007.143 1
 91  4 15 20 59 15.0000000  0  6 19 11 18 16 02 06
  20849300.928       30176.384 3     23513.752 2
  23054630.313    -2884237.382 3  -2247444.123 1
  21117603.785     3164524.259 3   2465856.048 2
  24020162.291    -2769798.010 2  -2158284.180 1
  22660437.703    -5359330.570 2  -4176080.521 2
  24383087.138      -13385.142 2    -10426.585 1
 91  4 15 20 59 30.0000000  0  6 19 11 18 16 02 06
  20850436.545       36138.922 3     28159.871 2
  23052445.424    -2895716.393 2  -2256388.763 1
  21124114.679     3198745.359 3   2492521.769 2
  24017212.026    -2785341.129 2  -2170395.751 1
  22653749.332    -5394468.938 2  -4203460.951 1
  24377604.532      -42143.071 2    -32835.239 1
 91  4 15 20 59 45.0000000  0  6 19 11 18 16 02 06
  20851582.352       42160.674 3     32852.138 2
  23050287.818    -2907042.499 2  -2265214.214 1
  21130650.754     3233087.872 3   2519282.101 2
  24014284.857    -2800740.215 2  -2182394.979 1
  22647078.654    -5429523.751 2  -4230776.253 2
  24372140.520      -70873.648 2    -55222.600 1
 91  4 15 21  0  0.0000000  0  6 19 11 18 16 02 06
  20852739.249       48240.797 3     37589.898 3
  23048165.287    -2918216.388 2  -2273921.086 1
  21137208.712     3267550.650 3   2546136.141 2
  24011377.170    -2815996.266 2  -2194282.815 1
  22640424.459    -5464496.070 2  -4258027.304 2
  24366683.392      -99577.826 2    -77589.494 1
 91  4 15 21  0 15.0000000  0  6 19 11 18 16 02 06
  20853905.439       54377.586 3     42371.820 2
  23046067.936    -2929239.334 3  -2282510.319 1
  21143788.561     3302132.044 3   2573082.601 2
  24008488.671    -2831110.540 2  -2206060.178 1
  22633782.557    -5499387.604 2  -4285215.386 2
  24361220.881     -128257.383 2    -99937.015 1
 91  4 15 21  0 30.0000000  0  6 19 11 18 16 02 06
  20855083.625       60569.384 3     47196.580 2
  23043996.377    -2940112.782 2  -2290983.064 1
  21150391.793     3336830.329 3   2600120.153 2
  24005648.735    -2846084.952 2  -2217728.531 1
  22627160.443    -5534199.685 3  -4312341.603 2
  24355774.249     -156913.895 2   -122266.659 1
 91  4 15 21  0 45.0000000  0  6 19 11 18 16 02 06
  20856276.199       66816.275 3     52064.288 3
  23041952.390    -2950836.408 2  -2299339.063 1
  21157017.501     3371645.259 3   2627248.584 2
  24002834.285    -2860918.839 2  -2229287.425 1
  22620554.515    -5568932.099 3  -4339405.693 2
  24350324.624     -185547.332 2   -144578.321 1
 91  4 15 21  1  0.0000000  0  6 19 11 18 16 02 06
  20857476.573       73116.386 3     56973.473 2
  23039943.782    -2961412.019 2  -2307579.744 1
  21163664.498     3406574.556 3   2654466.148 2
  24000031.527    -2875614.203 2  -2240738.330 1
  22613955.183    -5603586.720 2  -4366409.179 1
  24344878.891     -214159.848 2   -166873.732 1
 91  4 15 21  1 15.0000000  0  6 19 11 18 16 02 06
  20858683.535       79469.219 3     61923.734 2
  23037960.356    -2971839.985 2  -2315705.391 2
  21170332.488     3441617.942 3   2681772.585 2
  23997259.342    -2890171.390 2  -2252081.649 1
  22607378.336    -5638164.040 3  -4393352.406 2
  24339442.450     -242752.002 2   -189153.144 1
 91  4 15 21  1 30.0000000  0  6 19 11 18 16 02 06
  20859900.688       85874.553 3     66914.902 3
  23035995.208    -2982120.339 2  -2323715.987 1
  21177022.954     3476774.674 3   2709167.380 2
  23994519.841    -2904590.600 2  -2263317.355 1
  22600811.086    -5672664.084 3  -4420235.470 2
  24333989.231     -271323.964 2   -211416.853 1
 91  4 15 21  1 45.0000000  0  6 19 11 18 16 02 06
  20861131.940       92332.339 3     71946.940 3
  23034071.147    -2992252.959 2  -2331611.477 1
  21183734.404     3512045.026 3   2736650.694 2
  23991805.818    -2918871.862 2  -2274445.609 1
  22594260.318    -5707086.808 3  -4447058.261 2
  24328561.786     -299875.938 1   -233665.044 1
 91  4 15 21  2  0.0000000  0  6 19 11 18 16 02 06
  20862368.280       98837.179 3     77015.647 2
  23032167.163    -3002243.008 2  -2339395.870 2
  21190469.839     3547423.338 3   2764218.123 2
  23989101.994    -2933020.352 2  -2285470.422 1
  22587723.946    -5741437.571 3  -4473824.976 2
  24323125.049     -328413.467 1   -255901.875 1
 91  4 15 21  2 15.0000000  0  6 19 11 18 16 02 06
  20863616.616      105391.889 3     82123.211 2
  23030297.354    -3012087.594 2  -2347066.886 1
  21197224.164     3582911.763 3   2791871.371 2
  23986438.933    -2947033.746 2  -2296389.921 1
  22581197.765    -5775713.683 3  -4500533.532 2
  24317703.004     -356933.841 2   -278125.435 1
 91  4 15 21  2 30.0000000  0  6 19 11 18 16 02 06
  20864873.948      111994.689 3     87268.254 2
  23028450.336    -3021788.393 2  -2354625.904 2
  21203995.276     3618508.349 3   2819608.890 2
  23983799.562    -2960913.346 2  -2307205.217 1
  22574691.670    -5809916.826 3  -4527185.199 1
  24312279.162     -385439.067 2   -300337.150 1
 91  4 15 21  2 45.0000000  0  6 19 11 18 16 02 06
  20866135.476      118646.844 3     92451.752 3
  23026634.196    -3031343.952 2  -2362071.731 1
  21210787.380     3654214.063 3   2847431.437 2
  23981192.866    -2974657.901 2  -2317915.198 1
  22568198.165    -5844045.731 3  -4553779.044 2
  24306854.116     -413927.940 2   -322536.122 1
 91  4 15 21  3  0.0000000  0  6 19 11 18 16 02 06
  20867411.994      125346.120 3     97671.970 2
  23024840.532    -3040756.150 2  -2369405.861 1
  21217605.259     3690026.961 3   2875337.509 2
  23978594.563    -2988269.350 2  -2328521.558 1
  22561718.750    -5878102.244 3  -4580316.481 2
  24301439.864     -442402.574 2   -344724.062 1
 91  4 15 21  3 15.0000000  0  6 19 11 18 16 02 06
  20868696.304      132094.844 3    102930.719 2
  23023079.255    -3050022.674 2  -2376626.442 1
  21224440.230     3725949.234 3   2903328.806 2
  23976023.841    -3001745.335 2  -2339022.315 1
  22555250.129    -5912084.132 3  -4606795.766 2
  24296024.110     -470860.836 2   -366899.177 1
 91  4 15 21  3 30.0000000  0  6 19 11 18 16 02 06
  20869992.306      138888.354 3    108224.368 2
  23021344.956    -3059148.026 2  -2383737.075 1
  21231295.879     3761975.774 3   2931401.357 2
  23973483.700    -3015090.911 2  -2349421.494 1
  22548795.896    -5945996.155 3  -4633220.600 2
  24290614.054     -499307.475 2   -389065.265 1
 91  4 15 21  3 45.0000000  0  6 19 11 18 16 02 06
  20871291.309      145727.514 3    113553.583 2
  23019633.736    -3068131.261 2  -2390736.937 1
  21238169.817     3798107.447 3   2959555.833 2
  23970973.538    -3028305.061 2  -2359718.215 1
  22542353.650    -5979837.424 3  -4659590.306 1
  24285200.708     -527741.917 2   -411221.813 1
 91  4 15 21  4  0.0000000  0  6 19 11 18 16 02 06
  20872601.096      152613.834 3    118919.552 2
  23017949.502    -3076970.611 2  -2397624.660 1
  21245067.443     3834345.047 3   2987792.835 2
  23968490.058    -3041386.157 2  -2369911.278 1
  22535929.998    -6013606.309 3  -4685903.632 2
  24279791.551     -556162.604 2   -433367.655 1
 91  4 15 21  4 15.0000000  0  6 19 11 18 16 02 06
  20873923.788      159544.952 3    124320.439 2
  23016296.146    -3085668.206 3  -2404401.978 1
  21251982.162     3870686.692 3   3016110.912 2
  23966017.668    -3054336.200 2  -2380002.195 1
  22529520.141    -6047304.942 3  -4712162.185 2
  24274384.496     -584571.911 2   -455504.620 1
 91  4 15 21  4 30.0000000  0  6 19 11 18 16 02 06
  20875248.564      166521.904 3    129757.033 2
  23014665.877    -3094222.895 2  -2411067.898 2
  21258919.059     3907133.065 3   3044510.602 2
  23963580.658    -3067154.273 2  -2389990.297 1
  22523115.073    -6080932.303 3  -4738365.227 2
  24268979.832     -612968.978 2   -477632.107 1
 91  4 15 21  4 45.0000000  0  6 19 11 18 16 02 06
  20876586.237      173543.228 3    135228.195 3
  23013070.386    -3102635.959 3  -2417623.464 2
  21265874.838     3943682.470 3   3072990.563 2
  23961166.429    -3079841.846 2  -2399876.722 1
  22516730.091    -6114489.702 3  -4764513.722 1
  24263580.569     -641355.391 2   -499751.227 1
 91  4 15 21  5  0.0000000  0  6 19 11 18 16 02 06
  20877926.614      180608.097 3    140733.289 2
  23011495.277    -3110908.161 2  -2424069.278 1
  21272851.610     3980333.791 3   3101549.964 2
  23958779.186    -3092399.834 2  -2409662.172 1
  22510358.903    -6147977.914 3  -4790608.334 2
  24258180.407     -669731.963 2   -521862.745 1
 91  4 15 21  5 15.0000000  0  6 19 11 18 16 02 06
  20879281.371      187717.580 3    146273.160 2
  23009947.146    -3119038.318 2  -2430404.408 2
  21279843.075     4017087.959 3   3130189.493 2
  23956411.122    -3104826.840 2  -2419345.579 1
  22503999.703    -6181395.945 3  -4816648.259 2
  24252781.746     -698097.769 2   -543965.935 1
 91  4 15 21  5 30.0000000  0  6 19 11 18 16 02 06
  20880642.435      194871.594 3    151847.717 2
  23008425.696    -3127026.286 2  -2436628.742 1
  21286855.218     4053944.734 3   3158908.968 2
  23954070.943    -3117122.940 2  -2428926.947 1
  22497654.900    -6214743.683 3  -4842633.397 2
  24247382.483     -726453.114 2   -566060.925 1
 91  4 15 21  5 45.0000000  0  6 19 11 18 16 02 06
  20882012.784      202068.130 3    157455.407 3
  23006933.031    -3134874.020 3  -2442743.819 1
  21293888.345     4090901.873 3   3187706.662 2
  23951766.136    -3129290.423 2  -2438408.124 1
  22491320.279    -6248023.324 3  -4868565.484 2
  24241996.718     -754799.940 2   -588149.191 1
 91  4 15 21  6  0.0000000  0  6 19 11 18 16 02 06
  20883389.431      209306.288 3    163095.533 2
  23005460.747    -3142582.256 2  -2448750.151 1
  21300940.065     4127958.065 3   3216581.528 2
  23949470.630    -3141330.104 2  -2447789.683 1
  22484999.758    -6281235.658 3  -4894445.129 2
  24236593.851     -783139.468 2   -610231.822 1
 91  4 15 21  6 15.0000000  0  6 19 11 18 16 02 06
  20884774.176      216587.665 3    168769.338 2
  23004024.743    -3150149.113 3  -2454646.379 1
  21308011.268     4165114.895 3   3245534.824 2
  23947200.601    -3153240.024 2  -2457070.132 1
  22478693.921    -6314378.887 3  -4920270.909 2
  24231195.792     -811469.869 2   -632307.321 1
 91  4 15 21  6 30.0000000  0  6 19 11 18 16 02 06
  20886169.408      223911.301 3    174476.076 3
  23002610.926    -3157575.657 2  -2460433.211 1
  21315100.760     4202371.174 3   3274565.609 2
  23944967.147    -3165021.385 2  -2466250.447 1
  22472400.980    -6347454.135 3  -4946043.727 2
  24225808.526     -839792.479 2   -654376.723 1
 91  4 15 21  6 45.0000000  0  6 19 11 18 16 02 06
  20887569.134      231275.868 3    180214.697 2
  23001220.789    -3164863.140 2  -2466111.735 1
  21322208.539     4239725.435 3   3303672.737 2
  23942743.579    -3176675.302 2  -2475331.406 1
  22466117.628    -6380462.683 3  -4971764.565 2
  24220433.545     -868108.715 2   -676441.229 1
 91  4 15 21  7  0.0000000  0  6 19 11 18 16 02 06
  20888981.162      238682.363 3    185985.997 2
  22999863.023    -3172010.174 2  -2471680.799 1
  21329336.708     4277178.444 3   3332856.825 2
  23940555.401    -3188200.813 2  -2484312.337 1
  22459848.070    -6413403.493 3  -4997432.623 1
  24215041.174     -896417.692 2   -698500.146 1
 91  4 15 21  7 15.0000000  0  6 19 11 18 16 02 06
  20890396.776      246131.709 3    191790.688 2
  22998532.252    -3179015.726 3  -2477139.646 2
  21336483.462     4314731.044 3   3362118.502 2
  23938383.398    -3199596.976 2  -2493192.496 1
  22453596.198    -6446275.461 3  -5023047.055 2
  24209652.408     -924718.364 2   -720552.489 1
 91  4 15 21  7 30.0000000  0  6 19 11 18 16 02 06
  20891821.097      253623.361 3    197628.344 2
  22997226.949    -3185880.325 3  -2482488.612 1
  21343646.402     4352382.379 3   3391457.121 2
  23936240.485    -3210864.405 2  -2501972.325 1
  22447350.320    -6479078.967 3  -5048608.109 2
  24204272.628     -953011.488 2   -742599.004 1
 91  4 15 21  7 45.0000000  0  6 19 11 18 16 02 06
  20893256.500      261156.009 3    203497.937 3
  22995947.735    -3192605.170 3  -2487728.707 2
  21350833.928     4390130.808 3   3420871.391 2
  23934122.151    -3222004.591 2  -2510653.012 1
  22441121.238    -6511815.368 3  -5074116.897 2
  24198890.754     -981298.551 2   -764640.682 1
 91  4 15 21  8  0.0000000  0  6 19 11 18 16 02 06
  20894699.999      268730.658 3    209400.258 2
  22994693.405    -3199189.059 3  -2492858.946 1
  21358033.138     4427977.145 3   3450361.970 2
  23932025.699    -3233016.293 2  -2519233.535 1
  22434904.737    -6544483.793 3  -5099572.711 2
  24193502.885    -1009578.575 2   -786676.935 1
 91  4 15 21  8 15.0000000  0  6 19 11 18 16 02 06
  20896143.499      276349.667 3    215337.163 2
  22993465.756    -3205629.414 3  -2497877.351 1
  21365255.146     4465923.768 3   3479930.673 2
  23929945.145    -3243896.881 2  -2527711.877 1
  22428704.727    -6577081.637 3  -5124973.540 2
  24188132.101    -1037849.201 2   -808705.872 1
 91  4 15 21  8 30.0000000  0  6 19 11 18 16 02 06
  20897602.590      284011.384 3    221307.335 2
  22992265.687    -3211927.889 3  -2502785.216 1
  21372494.831     4503968.686 3   3509575.973 2
  23927895.765    -3254648.356 2  -2536089.679 1
  22422514.018    -6609610.451 3  -5150320.562 2
  24182746.030    -1066112.220 2   -830728.921 1
 91  4 15 21  8 45.0000000  0  6 19 11 18 16 02 06
  20899071.576      291714.802 3    227309.992 2
  22991097.395    -3218085.303 3  -2507583.171 1
  21379751.905     4542110.728 3   3539296.959 2
  23925880.561    -3265271.332 2  -2544367.362 1
  22416334.094    -6642071.340 3  -5175614.639 2
  24177367.158    -1094368.663 2   -852746.773 1
 91  4 15 21  9  0.0000000  0  6 19 11 18 16 02 06
  20900549.853      299457.677 3    233343.405 2
  22989950.688    -3224103.880 3  -2512272.910 1
  21387027.870     4580347.389 3   3569091.656 2
  23923882.738    -3275767.959 2  -2552546.579 1
  22410169.464    -6674466.542 3  -5200857.569 2
  24171992.177    -1122621.056 2   -874761.530 1
 91  4 15 21  9 15.0000000  0  6 19 11 18 16 02 06
  20902024.833      307240.915 3    239408.276 2
  22988832.164    -3229982.557 3  -2516853.668 1
  21394324.818     4618679.188 3   3598960.530 2
  23921908.011    -3286137.685 2  -2560626.893 1
  22404020.723    -6706795.033 3  -5226048.482 2
  24166629.489    -1150868.491 2   -896772.378 1
 91  4 15 21  9 30.0000000  0  6 19 11 18 16 02 06
  20903512.700      315067.890 3    245507.221 2
  22987741.220    -3235717.926 3  -2521322.734 1
  21401637.951     4657109.315 3   3628906.010 2
  23919961.753    -3296377.222 2  -2568605.740 1
  22397876.771    -6739053.443 3  -5251184.803 2
  24161236.220    -1179107.711 2   -918776.859 1
 91  4 15 21  9 45.0000000  0  6 19 11 18 16 02 06
  20905012.563      322936.312 3    251638.461 2
  22986677.856    -3241312.100 3  -2525681.785 1
  21408967.278     4695635.370 3   3658926.227 2
  23918043.084    -3306488.715 2  -2576484.879 1
  22391756.805    -6771244.022 3  -5276268.251 2
  24155875.339    -1207341.271 2   -940776.908 1
 91  4 15 21 10  0.0000000  0  6 19 11 18 16 02 06
  20906523.517      330849.296 3    257804.419 2
  22985637.570    -3246761.803 3  -2529928.271 1
  21416316.394     4734260.419 3   3689023.581 2
  23916134.301    -3316469.064 2  -2584261.753 1
  22385639.841    -6803363.765 3  -5301296.530 2
  24150496.161    -1235566.091 2   -962770.127 1
 91  4 15 21 10 15.0000000  0  6 19 11 18 16 02 06
  20908031.774      338805.320 3    264003.924 2
  22984627.569    -3252068.585 3  -2534063.374 1
  21423684.992     4772982.507 3   3719196.549 2
  23914266.901    -3326319.459 2  -2591937.449 1
  22379543.267    -6835414.056 3  -5326270.684 2
  24145126.580    -1263783.841 2   -984757.840 1
 91  4 15 21 10 30.0000000  0  6 19 11 18 16 02 06
  20909562.812      346804.321 3    270236.913 2
  22983644.852    -3257232.305 3  -2538087.021 1
  21431073.380     4811801.528 3   3749445.070 2
  23912412.082    -3336040.214 2  -2599512.017 1
  22373457.478    -6867394.822 3  -5351190.661 2
  24139761.790    -1291994.502 2  -1006740.069 1
 91  4 15 21 10 45.0000000  0  6 19 11 18 16 02 06
  20911084.558      354848.726 3    276505.280 3
  22982694.809    -3262250.416 3  -2541997.195 1
  21438478.249     4850719.526 3   3779770.696 2
  23910587.845    -3345628.984 2  -2606983.834 1
  22367379.183    -6899303.827 3  -5376054.695 2
  24134402.104    -1320195.835 2  -1028715.035 1
 91  4 15 21 11  0.0000000  0  6 19 11 18 16 02 06
  20912628.493      362934.712 3    282806.040 2
  22981766.955    -3267126.548 3  -2545796.743 1
  21445904.110     4889732.487 3   3810170.314 2
  23908799.582    -3355089.772 2  -2614355.885 1
  22361321.279    -6931144.590 3  -5400865.576 2
  24129039.417    -1348391.664 2  -1050685.624 1
 91  4 15 21 11 15.0000000  0  6 19 11 18 16 02 06
  20914173.020      371065.059 3    289141.382 2
  22980866.681    -3271857.846 3  -2549483.427 1
  21453347.658     4928842.951 3   3840645.920 2
  23907012.819    -3364419.691 2  -2621625.949 1
  22355282.858    -6962914.287 3  -5425621.086 2
  24123672.829    -1376579.337 2  -1072649.919 1
 91  4 15 21 11 30.0000000  0  6 19 11 18 16 02 06
  20915727.442      379240.882 3    295512.160 2
  22979992.783    -3276443.229 3  -2553056.421 1
  21460807.390     4968051.850 3   3871198.217 2
  23905252.441    -3373617.322 2  -2628792.988 1
  22349249.838    -6994611.966 3  -5450320.479 2
  24118311.939    -1404758.047 2  -1094607.220 1
 91  4 15 21 11 45.0000000  0  6 19 11 18 16 02 06
  20917289.062      387459.276 3    301916.095 3
  22979145.871    -3280885.490 3  -2556517.886 1
  21468285.419     5007356.106 3   3901824.830 2
  23903540.627    -3382685.456 2  -2635859.067 1
  22343229.704    -7026240.331 3  -5474965.840 2
  24112948.649    -1432930.569 2  -1116559.704 1
 91  4 15 21 12  0.0000000  0  6 19 11 18 16 02 06
  20918862.976      395722.905 3    308355.288 2
  22978324.734    -3285181.803 3  -2559865.612 1
  21475782.330     5046758.146 3   3932527.638 2
  23901831.806    -3391621.632 2  -2642822.368 1
  22337225.163    -7057796.546 3  -5499555.011 2
  24107588.667    -1461094.313 2  -1138505.344 1
 91  4 15 21 12 15.0000000  0  6 19 11 18 16 02 06
  20920445.876      404034.020 3    314831.471 2
  22977537.179    -3289329.922 3  -2563097.906 1
  21483302.920     5086259.979 3   3963308.192 2
  23900168.556    -3400423.683 2  -2649681.077 1
  22331230.813    -7089278.715 3  -5524086.469 2
  24102228.675    -1489247.385 2  -1160442.761 1
 91  4 15 21 12 30.0000000  0  6 19 11 18 16 02 06
  20922036.577      412391.755 3    321344.004 2
  22976777.510    -3293330.672 3  -2566215.339 2
  21490839.398     5125860.577 3   3994165.719 2
  23898516.997    -3409092.736 2  -2656436.222 1
  22325256.547    -7120687.595 3  -5548560.819 2
  24096871.083    -1517390.651 2  -1182372.825 1
 91  4 15 21 12 45.0000000  0  6 19 11 18 16 02 06
  20923637.469      420794.910 3    327891.900 3
  22976044.819    -3297185.179 3  -2569218.824 1
  21498390.875     5165558.198 3   4025098.837 2
  23896889.729    -3417629.954 2  -2663088.595 1
  22319289.777    -7152024.309 3  -5572978.934 2
  24091513.788    -1545525.514 2  -1204296.032 1
 91  4 15 21 13  0.0000000  0  6 19 11 18 16 02 06
  20925242.557      429244.170 3    334475.735 2
  22975337.606    -3300892.553 3  -2572107.639 1
  21505962.132     5205353.651 3   4056108.189 2
  23895290.932    -3426034.446 2  -2669637.569 1
  22313341.896    -7183288.133 3  -5597340.252 2
  24086158.901    -1573651.113 2  -1226211.888 1
 91  4 15 21 13 15.0000000  0  6 19 11 18 16 02 06
  20926857.234      437738.509 3    341094.705 3
  22974661.872    -3304453.791 3  -2574882.584 1
  21513553.474     5245245.401 3   4087192.580 2
  23893720.622    -3434307.086 2  -2676083.832 1
  22307408.107    -7214480.153 3  -5621645.621 2
  24080809.100    -1601768.695 2  -1248121.557 1
 91  4 15 21 13 30.0000000  0  6 19 11 18 16 02 06
  20928482.713      446277.529 3    347748.476 2
  22974007.122    -3307869.234 2  -2577543.948 1
  21521165.809     5285233.019 3   4118351.664 2
  23892170.397    -3442448.535 2  -2682427.771 1
  22301486.602    -7245600.784 3  -5645895.358 2
  24075463.802    -1629878.712 2  -1270025.259 1
 91  4 15 21 13 45.0000000  0  6 19 11 18 16 02 06
  20930116.586      454862.901 3    354438.377 2
  22973391.653    -3311136.906 2  -2580090.154 1
  21528792.226     5325318.005 3   4149586.625 2
  23890650.448    -3450456.801 2  -2688668.010 1
  22295579.189    -7276648.108 3  -5670087.982 2
  24070119.699    -1657979.516 2  -1291921.864 1
 91  4 15 21 14  0.0000000  0  6 19 11 18 16 02 06
  20931758.547      463492.403 3    361162.660 2
  22972795.964    -3314259.137 3  -2582523.027 1
  21536439.932     5365497.895 3   4180895.537 2
  23889144.590    -3458334.550 2  -2694806.553 1
  22289683.772    -7307624.504 3  -5694225.325 2
  24064768.110    -1686073.655 2  -1313813.218 1
 91  4 15 21 14 15.0000000  0  6 19 11 18 16 02 06
  20933409.800      472166.014 3    367921.314 3
  22972226.956    -3317236.039 3  -2584842.664 1
  21544103.823     5405772.023 3   4212277.890 2
  23887673.807    -3466081.801 2  -2700843.425 1
  22283800.946    -7338529.971 3  -5718307.394 2
  24059431.501    -1714161.313 2  -1335699.554 1
 91  4 15 21 14 30.0000000  0  6 19 11 18 16 02 06
  20935070.354      480884.725 3    374715.109 2
  22971690.929    -3320066.496 3  -2587048.191 1
  21551785.113     5446141.352 3   4243734.417 2
  23886224.907    -3473697.765 2  -2706777.914 1
  22277935.509    -7369363.558 3  -5742333.475 2
  24054079.310    -1742241.489 2  -1357580.077 1
 91  4 15 21 14 45.0000000  0  6 19 11 18 16 02 06
  20936736.597      489647.054 3    381542.893 2
  22971180.685    -3322751.650 3  -2589140.464 2
  21559482.884     5486604.329 3   4275263.912 2
  23884799.695    -3481183.642 2  -2712611.043 1
  22272083.858    -7400126.455 3  -5766304.464 2
  24048743.304    -1770315.711 2  -1379455.900 1
 91  4 15 21 15  0.0000000  0  6 19 11 18 16 02 06
  20938412.140      498453.701 3    388405.216 2
  22970696.520    -3325290.921 3  -2591119.091 1
  21567203.139     5527161.000 3   4306866.434 2
  23883391.873    -3488538.441 2  -2718342.139 1
  22266240.600    -7430817.944 3  -5790219.815 2
  24043401.304    -1798383.438 2  -1401326.690 1
 91  4 15 21 15 15.0000000  0  6 19 11 18 16 02 06
  20940097.875      507305.896 3    395303.026 2
  22970242.029    -3327682.878 3  -2592982.921 2
  21574940.182     5567812.982 3   4338543.201 2
  23882023.322    -3495761.246 2  -2723970.287 1
  22260412.934    -7461436.974 3  -5814078.695 2
  24038061.092    -1826443.368 2  -1423191.435 1
 91  4 15 21 15 30.0000000  0  6 19 11 18 16 02 06
  20941792.003      516202.038 3    402235.074 2
  22969813.329    -3329929.085 3  -2594733.179 2
  21582691.010     5608558.222 3   4370292.653 2
  23880675.450    -3502853.674 2  -2729496.904 1
  22254596.960    -7491984.987 3  -5837882.255 2
  24032721.797    -1854497.372 2  -1445051.501 1
 91  4 15 21 15 45.0000000  0  6 19 11 18 16 02 06
  20943490.625      525143.760 3    409202.643 2
  22969419.399    -3332027.907 3  -2596368.579 1
  21590463.433     5649397.915 3   4402115.696 2
  23879344.975    -3509814.294 2  -2734920.779 1
  22248801.978    -7522460.478 3  -5861629.289 2
  24027384.883    -1882543.925 2  -1466906.206 1
 91  4 15 21 16  0.0000000  0  6 19 11 18 16 02 06
  20945199.743      534129.775 3    416204.724 2
  22969044.062    -3333980.424 3  -2597890.000 2
  21598251.439     5690330.911 3   4434011.442 2
  23878049.270    -3516644.354 2  -2740242.916 1
  22243013.880    -7552864.560 3  -5885320.695 2
  24022046.783    -1910584.249 2  -1488755.809 1
 91  4 15 21 16 15.0000000  0  6 19 11 18 16 02 06
  20946920.552      543161.540 3    423242.456 2
  22968703.199    -3335785.257 3  -2599296.312 2
  21606061.031     5731358.342 3   4465980.785 2
  23876774.253    -3523342.381 2  -2745462.171 1
  22237241.977    -7583195.865 3  -5908955.365 2
  24016710.175    -1938617.090 2  -1510599.739 1
 91  4 15 21 16 30.0000000  0  6 19 11 18 16 02 06
  20948644.651      552240.403 3    430316.888 2
  22968383.615    -3337441.103 3  -2600586.549 1
  21613886.520     5772480.948 3   4498024.280 2
  23875521.720    -3529906.927 2  -2750577.474 1
  22231486.563    -7613453.041 3  -5932532.282 2
  24011383.461    -1966641.206 2  -1532436.869 1
 91  4 15 21 16 45.0000000  0  6 19 11 18 16 02 06
  20950381.655      561366.440 3    437428.081 2
  22968100.311    -3338947.711 3  -2601760.501 2
  21621732.086     5813698.600 3   4530141.846 2
  23874295.571    -3536338.000 2  -2755588.678 1
  22225737.746    -7643636.117 3  -5956051.488 2
  24006048.057    -1994656.756 2  -1554266.929 1
 91  4 15 21 17  0.0000000  0  6 19 11 18 16 02 06
  20952130.044      570538.906 3    444575.459 2
  22967839.491    -3340305.646 3  -2602818.592 1
  21629588.749     5855010.470 3   4562332.823 2
  23873111.391    -3542636.453 2  -2760496.579 1
  22220012.303    -7673745.493 3  -5979513.235 2
  24000725.243    -2022664.366 2  -1576090.972 1
 91  4 15 21 17 15.0000000  0  6 19 11 18 16 02 06
  20953883.530      579756.403 3    451757.918 2
  22967609.855    -3341516.381 3  -2603761.993 2
  21637467.889     5896414.992 3   4594596.001 2
  23871929.008    -3548803.813 2  -2765302.341 1
  22214294.364    -7703782.727 3  -6002918.766 2
  23995388.941    -2050665.650 2  -1597909.995 1
 91  4 15 21 17 30.0000000  0  6 19 11 18 16 02 06
  20955650.207      589022.018 3    458977.872 2
  22967403.297    -3342576.775 3  -2604588.225 2
  21645363.528     5937914.978 3   4626933.550 2
  23870784.701    -3554837.096 2  -2770003.613 1
  22208592.008    -7733744.837 3  -6026265.772 2
  23990062.227    -2078657.574 2  -1619721.774 1
 91  4 15 21 17 45.0000000  0  6 19 11 18 16 02 06
  20957416.283      598334.243 3    466234.144 2
  22967232.712    -3343488.393 2  -2605298.533 2
  21653282.847     5979508.433 3   4659343.950 2
  23869661.082    -3560737.802 2  -2774601.582 1
  22202906.745    -7763633.319 3  -6049555.421 2
  23984733.715    -2106641.899 2  -1641527.588 1
 91  4 15 21 18  0.0000000  0  6 19 11 18 16 02 06
  20959205.445      607692.199 3    473526.054 2
  22967081.018    -3344252.042 2  -2605893.567 1
  21661215.053     6021194.365 3   4691826.410 2
  23868563.838    -3566506.616 2  -2779096.746 1
  22197229.282    -7793449.049 3  -6072788.357 2
  23979414.496    -2134619.562 2  -1663328.379 1
 91  4 15 21 18 15.0000000  0  6 19 11 18 16 02 06
  20960988.909      617097.091 3    480854.535 2
  22966970.095    -3344866.395 3  -2606372.242 2
  21669164.351     6062973.556 3   4724381.535 2
  23867485.781    -3572142.450 2  -2783488.313
  22191574.591    -7823190.623 3  -6095963.508 2
  23974098.576    -2162589.293 2  -1685123.190 1
 91  4 15 21 18 30.0000000  0  6 19 11 18 16 02 06
  20962789.466      626551.780 3    488221.811 3
  22966880.462    -3345328.704 3  -2606732.446 2
  21677133.429     6104848.701 3   4757011.432 2
  23866432.913    -3577642.769 2  -2787774.314 1
  22185926.802    -7852855.340 3  -6119078.785 2
  23968773.659    -2190548.570 2  -1706909.471 1
 91  4 15 21 18 45.0000000  0  6 19 11 18 16 02 06
  20964597.815      636055.322 3    495627.173 3
  22966825.895    -3345639.814 3  -2606974.827 1
  21685118.701     6146818.785 3   4789715.310 2
  23865422.014    -3583008.567 2  -2791955.518 1
  22180295.800    -7882444.138 3  -6142134.908 2
  23963448.446    -2218498.367 2  -1728688.370 1
 91  4 15 21 19  0.0000000  0  6 19 11 18 16 02 06
  20966414.252      645606.766 3    503069.845 2
  22966789.023    -3345800.579 3  -2607100.065 2
  21693127.357     6188882.430 3   4822492.080 2
  23864424.603    -3588240.602 2  -2796032.427 1
  22174677.693    -7911957.866 3  -6165132.521 2
  23958136.731    -2246439.618 2  -1750460.656 1
 91  4 15 21 19 15.0000000  0  6 19 11 18 16 02 06
  20968247.188      655208.988 3    510552.098 2
  22966792.923    -3345808.271 3  -2607106.011 2
  21701150.408     6231042.309 3   4855343.844 2
  23863457.171    -3593336.251 2  -2800003.088 1
  22169081.766    -7941393.621 3  -6188069.376 2
  23952822.310    -2274369.667 2  -1772224.213 1
 91  4 15 21 19 30.0000000  0  6 19 11 18 16 02 06
  20970078.614      664862.289 3    518074.141 2
  22966817.205    -3345662.450 3  -2606992.367 2
  21709189.637     6273298.506 3   4888270.660 2
  23862514.624    -3598295.206 2  -2803867.215 1
  22163496.030    -7970751.185 3  -6210945.310 2
  23947512.078    -2302288.223 2  -1793978.761 1
 91  4 15 21 19 45.0000000  0  6 19 11 18 16 02 06
  20971925.039      674565.384 3    525634.993 2
  22966878.063    -3345364.198 3  -2606759.951 2
  21717248.959     6315649.627 3   4921271.434 2
  23861585.871    -3603118.729 2  -2807625.858 1
  22157919.290    -8000032.039 3  -6233761.478 2
  23942195.564    -2330196.669 2  -1815725.428 1
 91  4 15 21 20  0.0000000  0  6 19 11 18 16 02 06
  20973778.959      684320.508 3    533236.382 2
  22966961.100    -3344911.228 3  -2606406.934 2
  21725325.670     6358097.646 3   4954347.734 2
  23860696.085    -3607804.350 2  -2811276.986 1
  22152365.932    -8029233.699 3  -6256515.933 2
  23936892.530    -2358092.892 2  -1837462.662 1
 91  4 15 21 20 15.0000000  0  6 19 11 18 16 02 06
  20975650.556      694127.262 3    540878.004 2
  22967080.424    -3344303.888 3  -2605933.645 1
  21733422.763     6400641.735 3   4987498.889 2
  23859842.577    -3612353.132 2  -2814821.509 1
  22146822.775    -8058356.457 3  -6279208.893 2
  23931586.809    -2385977.314 2  -1859190.571 1
 91  4 15 21 20 30.0000000  0  6 19 11 18 16 02 06
  20977524.561      703985.656 3    548559.861 2
  22967221.021    -3343542.377 3  -2605340.223 2
  21741534.549     6443281.753 3   5020724.771 2
  23858999.862    -3616764.931 2  -2818259.312 1
  22141295.497    -8087400.411 3  -6301840.450 2
  23926274.186    -2413850.140 2  -1880909.528 1
 91  4 15 21 20 45.0000000  0  6 19 11 18 16 02 06
  20979411.453      713893.734 3    556280.432 2
  22967394.607    -3342628.480 3  -2604628.065 1
  21749668.514     6486015.076 3   5054023.382 2
  23858181.726    -3621041.565 2  -2821591.752 1
  22135783.819    -8116367.478 3  -6324412.097 2
  23920975.052    -2441713.386 2  -1902621.038 1
 91  4 15 21 21  0.0000000  0  6 19 11 18 16 02 06
  20981302.551      723853.023 3    564040.921 2
  22967593.068    -3341560.626 3  -2603795.945 2
  21757820.174     6528843.534 3   5087396.113 2
  23857395.070    -3625181.805 2  -2824817.996 1
  22130291.320    -8145256.110 3  -6346922.634 2
  23915679.522    -2469565.639 2  -1924323.938 1
 91  4 15 21 21 15.0000000  0  6 19 11 18 16 02 06
  20983209.223      733863.447 3    571841.250 2
  22967831.996    -3340338.822 3  -2602843.862 1
  21765982.627     6571766.675 3   5120842.628 2
  23856630.899    -3629185.521 2  -2827937.725 1
  22124803.915    -8174066.438 3  -6369372.132 2
  23910376.488    -2497407.016 2  -1946018.398 1
 91  4 15 21 21 30.0000000  0  6 19 11 18 16 02 06
  20985127.900      743926.769 3    579682.790 2
  22968095.216    -3338961.585 3  -2601770.673 2
  21774171.752     6614785.733 3   5154363.865 2
  23855899.107    -3633051.438 2  -2830950.156 1
  22119335.104    -8202796.955 3  -6391759.471 2
  23905081.856    -2525236.117 2  -1967703.194 1
 91  4 15 21 21 45.0000000  0  6 19 11 18 16 02 06
  20987049.265      754042.305 3    587565.028 2
  22968387.219    -3337429.442 3  -2600576.737 2
  21782378.275     6657899.895 3   5187959.234 2
  23855186.798    -3636779.990 2  -2833855.544 1
  22113881.580    -8231448.102 3  -6414084.957 2
  23899793.821    -2553053.473 2  -1989378.969 1
 91  4 15 21 22  0.0000000  0  6 19 11 18 16 02 06
  20988987.723      764211.459 3    595489.038 2
  22968705.895    -3335741.041 3  -2599261.087 1
  21790600.382     6701110.073 3   5221629.398 2
  23854506.571    -3640369.933 2  -2836652.915 1
  22108443.045    -8260018.533 3  -6436347.535 2
  23894492.890    -2580857.909 2  -2011044.586 1
 91  4 15 21 22 15.0000000  0  6 19 11 18 16 02 06
  20990929.478      774431.521 3    603452.713 2
  22969056.653    -3333899.006 3  -2597825.711 1
  21798838.978     6744413.335 3   5255372.106 2
  23853845.827    -3643824.143 2  -2839344.552 1
  22103023.697    -8288510.968 3  -6458549.347 2
  23889210.246    -2608652.311 2  -2032702.421 1
 91  4 15 21 22 30.0000000  0  6 19 11 18 16 02 06
  20992887.427      784701.552 3    611455.335 2
  22969435.593    -3331904.379 3  -2596271.433 2
  21807098.559     6787808.545 3   5289186.465 2
  23853215.961    -3647143.947 2  -2841931.465 1
  22097615.743    -8316926.377 3  -6480691.134 2
  23883915.309    -2636437.597 2  -2054353.176 1
 91  4 15 21 22 45.0000000  0  6 19 11 18 16 02 06
  20994846.869      795021.841 3    619497.115 2
  22969845.403    -3329756.718 3  -2594597.911 1
  21815370.730     6831295.941 3   5323072.661 2
  23852613.379    -3650328.749 2  -2844413.087 1
  22092224.568    -8345264.335 3  -6502772.564 2
  23878639.262    -2664213.639 2  -2075996.700 1
 91  4 15 21 23  0.0000000  0  6 19 11 18 16 02 06
  20996829.999      805391.976 3    627577.732 2
  22970281.902    -3327456.446 3  -2592805.460 1
  21823664.792     6874874.898 3   5357030.198 2
  23852032.680    -3653378.982 2  -2846789.931 1
  22086843.898    -8373525.364 3  -6524794.060 2
  23873348.522    -2691980.836 2  -2097633.289 1
 91  4 15 21 23 15.0000000  0  6 19 11 18 16 02 06
  20998804.133      815811.357 3    635696.718 2
  22970754.978    -3325004.206 3  -2590894.611 2
  21831976.541     6918544.157 3   5391058.086 2
  23851474.465    -3656295.233 2  -2849062.372 1
  22081483.305    -8401710.100 3  -6546756.097 2
  23868068.278    -2719739.941 2  -2119263.632 1
 91  4 15 21 23 30.0000000  0  6 19 11 18 16 02 06
  21000799.251      826283.916 3    643857.150 2
  22971245.434    -3322396.072 3  -2588862.267 2
  21840302.074     6962307.468 3   5425159.277 2
  23850942.634    -3659074.030 2  -2851227.688 1
  22076135.913    -8429814.665 3  -6568655.663 2
  23862787.135    -2747487.165 2  -2140884.743 1
 91  4 15 21 23 45.0000000  0  6 19 11 18 16 02 06
  21002800.661      836807.936 3    652057.691 2
  22971774.873    -3319633.546 3  -2586709.631 2
  21848651.593     7006163.097 3   5459332.395 2
  23850440.181    -3661717.169 2  -2853287.282 1
  22070801.398    -8457840.621 3  -6590493.985 2
  23857516.184    -2775224.187 2  -2162497.828 1
 91  4 15 21 24  0.0000000  0  6 19 11 18 16 02 06
  21004813.770      847383.599 3    660298.457 2
  22972325.593    -3316716.602 3  -2584436.671 2
  21857014.907     7050110.604 3   5493577.112 2
  23849969.209    -3664224.279 2  -2855240.881 1
  22065486.080    -8485787.949 3  -6612271.018 2
  23852231.446    -2802951.065 2  -2184103.062 1
 91  4 15 21 24 15.0000000  0  6 19 11 18 16 02 06
  21006832.874      858010.756 3    668579.346 2
  22972906.886    -3313645.344 3  -2582043.462 2
  21865392.006     7094149.818 3   5527893.274 2
  23849514.421    -3666595.554 2  -2857088.694 1
  22060179.460    -8513656.724 3  -6633986.850 2
  23846957.197    -2830667.883 2  -2205700.469 1
 91  4 15 21 24 30.0000000  0  6 19 11 18 16 02 06
  21008866.967      868688.442 3    676899.610 2
  22973530.452    -3310420.811 3  -2579530.819 1
  21873790.386     7138279.545 3   5562279.968 2
  23849091.716    -3668832.181 2  -2858831.481 1
  22054889.915    -8541447.962 3  -6655642.263 2
  23841686.847    -2858375.750 2  -2227290.831 1
 91  4 15 21 24 45.0000000  0  6 19 11 18 16 02 06
  21010906.749      879417.383 3    685259.829 2
  22974167.211    -3307042.283 3  -2576898.171 2
  21882208.563     7182500.185 3   5596737.514 2
  23848686.696    -3670933.467 2  -2860468.931 1
  22049618.666    -8569160.978 3  -6677236.727 2
  23836415.293    -2886074.086 2  -2248873.824 1
 91  4 15 21 25  0.0000000  0  6 19 11 18 16 02 06
  21012958.232      890194.688 3    693657.731 2
  22974838.451    -3303512.676 3  -2574147.806 1
  21890636.032     7226808.669 3   5631263.500 2
  23848308.960    -3672902.197 2  -2862002.992 1
  22044358.508    -8596798.643 3  -6698772.493 2
  23831151.836    -2913765.954 2  -2270451.779 1
 91  4 15 21 25 15.0000000  0  6 19 11 18 16 02 06
  21015020.507      901018.232 3    702091.649 2
  22975540.866    -3299834.044 3  -2571281.317 2
  21899085.079     7271202.426 3   5665855.945 2
  23847964.502    -3674740.845 2  -2863435.752 1
  22039114.839    -8624363.077 3  -6720251.170 2
  23825870.694    -2941453.600 2  -2292026.413 1
 91  4 15 21 25 30.0000000  0  6 19 11 18 16 02 06
  21017085.173      911887.058 3    710560.856 2
  22976267.563    -3296007.373 3  -2568299.470 2
  21907551.819     7315680.280 3   5700513.921 2
  23847638.025    -3676450.572 2  -2864768.003 1
  22033881.659    -8651855.233 3  -6741673.539 2
  23820601.243    -2969137.989 2  -2313598.482 1
 91  4 15 21 25 45.0000000  0  6 19 11 18 16 02 06
  21019164.532      922805.243 3    719068.528 2
  22977026.935    -3292028.653 3  -2565199.165 2
  21916030.845     7360245.930 3   5735240.299 2
  23847336.433    -3678027.637 2  -2865996.939 1
  22028661.679    -8679271.074 3  -6763036.442 2
  23815343.483    -2996815.127 2  -2335164.951 1
 91  4 15 21 26  0.0000000  0  6 19 11 18 16 02 06
  21021256.185      933771.947 3    727614.007 2
  22977812.989    -3287898.718 3  -2561980.993 1
  21924527.566     7404898.175 3   5770034.161 2
  23847069.620    -3679472.341 2  -2867122.703 1
  22023459.377    -8706611.428 3  -6784340.519 2
  23810077.627    -3024486.050 2  -2356726.574 1
 91  4 15 21 26 15.0000000  0  6 19 11 18 16 02 06
  21023343.938      944787.881 3    736197.852 3
  22978626.326    -3283616.894 3  -2558644.485 1
  21933044.066     7449637.381 3   5804895.767 2
  23846814.497    -3680784.613 2  -2868145.226 1
  22018272.064    -8733875.637 3  -6805585.266 2
  23804813.568    -3052150.139 2  -2378282.846 1
 91  4 15 21 26 30.0000000  0  6 19 11 18 16 02 06
  21025450.581      955853.242 3    744820.208 2
  22979466.048    -3279183.160 3  -2555189.601 1
  21941570.469     7494463.623 3   5839825.216 2
  23846587.854    -3681964.229 2  -2869064.465 1
  22013100.648    -8761063.639 3  -6826770.626 2
  23799542.023    -3079807.332 2  -2399833.767 1
 91  4 15 21 26 45.0000000  0  6 19 11 18 16 02 06
  21027567.720      966968.671 3    753481.576 2
  22980342.337    -3274596.849 3  -2551615.864 1
  21950120.849     7539377.325 3   5874822.794 2
  23846384.890    -3683010.593 2  -2869879.819 1
  22007941.823    -8788174.794 3  -6847896.127 2
  23794281.865    -3107457.100 2  -2421378.941 1
 91  4 15 21 27  0.0000000  0  6 19 11 18 16 02 06
  21029691.446      978135.034 3    762182.638 2
  22981242.916    -3269856.978 3  -2547922.427 1
  21958682.921     7584379.166 3   5909889.062 2
  23846216.112    -3683922.691 2  -2870590.532 1
  22002798.580    -8815208.030 3  -6868960.900 2
  23789024.699    -3135098.411 2  -2442917.494 1
 91  4 15 21 27 15.0000000  0  6 19 11 18 16 02 06
  21031826.567      989349.056 3    770920.836 2
  22982176.468    -3264966.917 3  -2544111.974 2
  21967260.278     7629465.566 3   5945021.212 2
  23846068.309    -3684704.214 2  -2871199.549 1
  21997662.833    -8842166.929 3  -6889967.745 2
  23783764.243    -3162734.881 2  -2464452.266 1
 91  4 15 21 27 30.0000000  0  6 19 11 18 16 02 06
  21033969.184     1000612.308 3    779697.385 2
  22983135.209    -3259925.179 3  -2540183.324 1
  21975856.535     7674637.757 3   5980220.219 2
  23845950.188    -3685353.720 2  -2871705.669 1
  21992550.478    -8869049.904 3  -6910915.436 2
  23778507.086    -3190365.006 2  -2485982.133 1
 91  4 15 21 27 45.0000000  0  6 19 11 18 16 02 06
  21036121.398     1011925.230 3    788512.644 2
  22984119.122    -3254731.325 3  -2536136.148 1
  21984468.968     7719895.682 3   6015486.023 2
  23845843.166    -3685870.690 2  -2872108.502 1
  21987449.509    -8895856.484 3  -6931803.588 2
  23773248.419    -3217988.391 2  -2507506.701 1
 91  4 15 21 28  0.0000000  0  6 19 11 18 16 02 06
  21038288.296     1023286.303 3    797365.417 2
  22985138.119    -3249386.838 3  -2531971.582 1
  21993098.196     7765237.646 3   6050817.324 2
  23845774.211    -3686256.933 2  -2872409.483 1
  21982360.824    -8922588.174 3  -6952633.393 2
  23767997.561    -3245606.721 2  -2529027.350 1
 91  4 15 21 28 15.0000000  0  6 19 11 18 16 02 06
  21040458.798     1034699.086 3    806258.506 2
  22986187.095    -3243888.099 3  -2527686.828 1
  22001742.415     7810666.989 3   6086216.708 2
  23845722.349    -3686508.853 2  -2872605.787 1
  21977289.241    -8949241.258 3  -6973401.941 2
  23762734.698    -3273216.405 2  -2550541.257 1
 91  4 15 21 28 30.0000000  0  6 19 11 18 16 02 06
  21042635.887     1046160.038 3    815189.106 3
  22987259.149    -3238238.873 3  -2523284.799 2
  22010401.614     7856179.895 3   6121681.208 2
  23845699.865    -3686630.296 2  -2872700.422 1
  21972235.336    -8975819.552 3  -6994112.216 2
  23757499.423    -3300821.214 2  -2572051.356 1
 91  4 15 21 28 45.0000000  0  6 19 11 18 16 02 06
  21044827.669     1057671.442 3    824159.023 2
  22988365.388    -3232436.963 3  -2518763.817 2
  22019080.305     7901778.319 3   6157212.338 2
  23845699.865    -3686619.070 2  -2872691.667 1
  21967188.933    -9002320.969 3  -7014762.573 2
  23752243.767    -3328418.960 2  -2593555.980 1
 91  4 15 21 29  0.0000000  0  6 19 11 18 16 02 06
  21047031.745     1069235.375 3    833169.870 2
  22989498.902    -3226480.123 3  -2514122.101 2
  22027774.589     7947464.125 3   6192811.560 2
  23845732.540    -3686472.982 2  -2872577.910 1
  21962163.811    -9028743.007 3  -7035351.088 2
  23746989.602    -3356007.488 2  -2615053.351 1
 91  4 15 21 29 15.0000000  0  6 19 11 18 16 02 06
  21049238.212     1080848.013 3    842218.678 2
  22990660.598    -3220372.321 3  -2509362.736 1
  22036485.362     7993233.263 3   6228475.702 2
  23845777.213    -3686196.187 2  -2872362.178 1
  21957147.982    -9055089.744 3  -7055880.929 2
  23741736.336    -3383590.850 2  -2636546.772 1
 91  4 15 21 29 30.0000000  0  6 19 11 18 16 02 06
  21051457.277     1092513.209 3    851308.438 2
  22991848.077    -3214109.903 3  -2504482.910 1
  22045209.616     8039088.895 3   6264207.251 2
  23845859.656    -3685784.844 2  -2872041.704 1
  21952149.847    -9081357.469 3  -7076349.188 2
  23736487.276    -3411165.413 2  -2658033.277 1
 91  4 15 21 29 45.0000000  0  6 19 11 18 16 02 06
  21053690.137     1104228.150 3    860436.961 2
  22993071.232    -3207695.507 3  -2499484.671 2
  22053955.464     8085028.269 3   6300004.054 2
  23845965.483    -3685242.099 2  -2871618.820 1
  21947163.098    -9107548.997 3  -7096758.081 2
  23731240.004    -3438733.975 2  -2679515.172 1
 91  4 15 21 30  0.0000000  0  6 19 11 18 16 02 06
  21055926.287     1115993.560 3    869604.812 2
  22994323.163    -3201128.526 3  -2494367.518 1
  22062709.706     8131051.542 3   6335866.245 2
  23846092.591    -3684567.519 2  -2871093.222 1
  21942197.037    -9133663.408 3  -7117106.879 2
  23726001.431    -3466295.964 2  -2700991.903 1
 91  4 15 21 30 15.0000000  0  6 19 11 18 16 02 06
  21058174.128     1127808.734 3    878811.431 2
  22995602.378    -3194409.712 3  -2489132.069 2
  22071484.932     8177157.905 3   6371793.161 2
  23846240.089    -3683761.639 2  -2870465.251 1
  21937240.268    -9159701.558 3  -7137396.252 2
  23720763.460    -3493852.031 2  -2722464.018 1
 91  4 15 21 30 30.0000000  0  6 19 11 18 16 02 06
  21060433.669     1139673.777 3    888056.914 2
  22996908.570    -3187539.073 3  -2483778.308 1
  22080275.444     8223347.010 3   6407784.564 2
  23846417.566    -3682824.418 2  -2869735.009 1
  21932301.481    -9185663.418 3  -7157626.201 2
  23715509.296    -3521402.282 2  -2743931.651 1
 91  4 15 21 30 45.0000000  0  6 19 11 18 16 02 06
  21062701.595     1151589.032 3    897341.515 2
  22998246.548    -3180516.352 3  -2478306.033 1
  22089080.344     8269619.221 3   6443840.712 2
  23846625.625    -3681755.475 2  -2868902.090 1
  21927374.996    -9211548.715 3  -7177796.463 2
  23710267.425    -3548946.499 2  -2765394.513 1
 91  4 15 21 31  0.0000000  0  6 19 11 18 16 02 06
  21064977.619     1163558.073 3    906668.036 3
  22999606.705    -3173338.062 3  -2472712.524 2
  22097900.845     8315977.343 3   6479963.817 2
  23846857.364    -3680551.786 2  -2867964.163 1
  21922463.798    -9237354.150 3  -7197904.515 2
  23705035.143    -3576481.290 2  -2786850.039 1
 91  4 15 21 31 15.0000000  0  6 19 11 18 16 02 06
  21067258.441     1175578.002 3    916034.212 2
  23001008.534    -3166006.923 3  -2466999.922 1
  22106741.125     8362418.510 3   6516151.634 2
  23847114.589    -3679216.152 2  -2866923.452 1
  21917567.581    -9263082.191 3  -7217952.244 2
  23699793.874    -3604009.439 2  -2808300.444 1
 91  4 15 21 31 30.0000000  0  6 19 11 18 16 02 06
  21069562.349     1187649.118 3    925440.273 2
  23002425.055    -3158522.746 3  -2461168.082 2
  22115590.096     8408942.794 3   6552404.197 2
  23847392.492    -3677748.414 2  -2865779.772 1
  21912681.869    -9288732.505 3  -7237939.421 2
  23694555.301    -3631530.595 2  -2829745.346 1
 91  4 15 21 31 45.0000000  0  6 19 11 18 16 02 06
  21071868.352     1199771.580 3    934886.340 2
  23003883.841    -3150885.588 3  -2455217.048 2
  22124463.357     8455549.835 3   6588721.255 2
  23847699.485    -3676148.893 2  -2864533.431 1
  21907818.031    -9314305.204 3  -7257866.109 2
  23689325.418    -3659045.039 2  -2851184.998 1
 91  4 15 21 32  0.0000000  0  6 19 11 18 16 02 06
  21074186.945     1211943.961 3    944371.305 2
  23005362.119    -3143096.764 3  -2449147.833 1
  22133345.605     8502238.132 3   6625101.643 2
  23848024.757    -3674418.816 2  -2863185.300 1
  21902966.190    -9339801.688 3  -7277733.421 2
  23684089.245    -3686554.118 2  -2872620.553 1
 91  4 15 21 32 15.0000000  0  6 19 11 18 16 02 06
  21076512.431     1224169.636 3    953897.791 2
  23006880.567    -3135152.991 3  -2442957.864 2
  22142245.242     8549010.596 3   6661547.596 2
  23848373.413    -3672555.002 2  -2861733.066 1
  21898132.942    -9365218.795 3  -7297538.877 2
  23678852.775    -3714054.520 2  -2894049.327 1
 91  4 15 21 32 30.0000000  0  6 19 11 18 16 02 06
  21078845.717     1236444.513 3    963462.627 2
  23008419.100    -3127058.603 3  -2436650.530 2
  22151163.167     8595862.774 3   6698055.664 2
  23848760.144    -3670561.767 2  -2860179.935 1
  21893306.875    -9390560.448 3  -7317285.530 2
  23673619.891    -3741550.597 2  -2915474.727 1
 91  4 15 21 32 45.0000000  0  6 19 11 18 16 02 06
  21081190.991     1248769.361 3    973066.403 2
  23009987.918    -3118812.847 3  -2430225.250 2
  22160093.386     8642795.375 3   6734626.407 2
  23849167.563    -3668438.491 2  -2858525.419 1
  21888502.106    -9415825.782 3  -7336972.725 2
  23668392.416    -3769041.549 2  -2936896.130 1
 91  4 15 21 33  0.0000000  0  6 19 11 18 16 02 06
  21083551.264     1261146.440 3    982710.866 2
  23011582.816    -3110413.313 3  -2423680.136 1
  22169038.595     8689810.343 3   6771261.354 2
  23849591.167    -3666182.839 2  -2856767.796 1
  21883706.324    -9441012.798 3  -7356598.880 2
  23663158.337    -3796525.183 2  -2958311.818 1
 91  4 15 21 33 15.0000000  0  6 19 11 18 16 02 06
  21085915.123     1273572.506 3    992393.499 3
  23013213.382    -3101863.422 3  -2417017.865 1
  22178000.590     8736903.890 3   6807957.501 2
  23850050.754    -3663798.546 2  -2854909.994 1
  21878933.026    -9466124.835 3  -7376166.621 2
  23657924.258    -3824004.860 2  -2979724.395 1
 91  4 15 21 33 30.0000000  0  6 19 11 18 16 02 06
  21088290.682     1286048.836 3   1002115.309 2
  23014863.439    -3093162.146 3  -2410237.651 2
  22186979.373     8784077.298 3   6844715.882 2
  23850524.728    -3661284.310 2  -2852950.883 1
  21874169.326    -9491160.646 3  -7395674.964 2
  23652703.676    -3851479.505 2  -3001133.117 1
 91  4 15 21 33 45.0000000  0  6 19 11 18 16 02 06
  21090672.235     1298574.647 3   1011875.674 2
  23016552.472    -3084310.333 3  -2403340.111 2
  22195972.849     8831329.324 3   6881535.538 2
  23851031.971    -3658640.906 2  -2850891.079 1
  21869416.122    -9516121.170 3  -7415124.639 2
  23647471.996    -3878949.980 2  -3022538.560 1
 91  4 15 21 34  0.0000000  0  6 19 11 18 16 02 06
  21093069.668     1311149.419 3   1021674.209 2
  23018262.192    -3075308.567 3  -2396325.716 1
  22204980.712     8878658.770 3   6918415.491 2
  23851553.915    -3655869.473 2  -2848731.616 1
  21864679.095    -9541006.928 3  -7434516.055 2
  23642248.710    -3906417.030 2  -3043941.300 1
 91  4 15 21 34 15.0000000  0  6 19 11 18 16 02 06
  21095465.609     1323772.744 3   1031510.540 2
  23020009.378    -3066157.241 3  -2389194.799 1
  22213998.766     8926065.221 3   6955355.475 1
  23852103.135    -3652970.205 2  -2846472.500 1
  21859959.465    -9565818.256 3  -7453849.486 2
  23637020.633    -3933881.044 2  -3065341.709 1
 91  4 15 21 34 30.0000000  0  6 19 11 18 16 02 06
  21097878.346     1336443.846 3   1041384.107 2
  23021772.460    -3056857.224 3  -2381948.013 2
  22223029.717     8973547.581 3   6992354.603 1
  23852680.833    -3649944.064 2  -2844114.507 1
  21855249.425    -9590555.823 3  -7473125.427 2
  23631786.850    -3961342.726 2  -3086740.297 1
 91  4 15 21 34 45.0000000  0  6 19 11 18 16 02 06
  21100298.866     1349164.959 3   1051296.643 2
  23023575.112    -3047406.397 3  -2374583.741 2
  22232082.253     9021107.717 3   7029414.327 1
  23853281.915    -3646789.135 2  -2841656.134 1
  21850557.375    -9615217.596 3  -7492342.316 2
  23626567.464    -3988800.017 2  -3108135.540 1
 91  4 15 21 35  0.0000000  0  6 19 11 18 16 02 06
  21102734.384     1361937.286 3   1061249.101 2
  23025402.647    -3037803.655 3  -2367101.069 2
  22241151.567     9068746.873 3   7066535.642 1
  23853911.780    -3643504.173 2  -2839096.532 1
  21845880.612    -9639802.357 3  -7511499.201 2
  23621349.884    -4016251.781 2  -3129526.354 1
 91  4 15 21 35 15.0000000  0  6 19 11 18 16 02 06
  21105167.800     1374760.034 3   1071240.849 2
  23027254.167    -3028049.771 3  -2359500.616 1
  22250231.090     9116463.924 3   7103717.647 2
  23854559.035    -3640090.273 2  -2836436.322 1
  21841211.946    -9664311.054 3  -7530596.818 2
  23616118.797    -4043698.882 2  -3150913.621 1
 91  4 15 21 35 30.0000000  0  6 19 11 18 16 02 06
  21107626.090     1387634.863 3   1081273.173 2
  23029141.958    -3018143.275 3  -2351781.272 1
  22259325.890     9164259.784 3   7140961.054 2
  23855231.470    -3636545.629 2  -2833674.344 1
  21836565.459    -9688742.031 3  -7549633.876 2
  23610903.913    -4071139.863 2  -3172296.064 1
 91  4 15 21 35 45.0000000  0  6 19 11 18 16 02 06
  21110074.801     1400559.049 3   1091343.949 2
  23031061.831    -3008087.119 3  -2343945.297 2
  22268435.384     9212131.532 3   7178263.588 2
  23855938.379    -3632873.758 2  -2830813.176 1
  21831926.171    -9713098.131 3  -7568612.576 2
  23605683.026    -4098577.654 2  -3193676.005 1
 91  4 15 21 36  0.0000000  0  6 19 11 18 16 02 06
  21112544.487     1413530.877 3   1101451.854 2
  23032999.983    -2997883.080 3  -2335994.073 2
  22277561.062     9260077.062 3   7215623.626 2
  23856655.181    -3629076.143 2  -2827854.044 1
  21827308.764    -9737381.141 3  -7587534.334 2
  23600461.842    -4126014.029 2  -3215054.933 1
 91  4 15 21 36 15.0000000  0  6 19 11 18 16 02 06
  21115023.770     1426552.897 3   1111598.876 2
  23034969.319    -2987528.676 3  -2327925.695 1
  22286696.339     9308098.881 3   7253043.109 2
  23857399.869    -3625150.422 2  -2824795.125 1
  21822705.153    -9761588.455 3  -7606397.101 2
  23595238.259    -4153446.456 2  -3236430.744 1
 91  4 15 21 36 30.0000000  0  6 19 11 18 16 02 06
  21117510.548     1439622.698 3   1121783.125 2
  23036971.940    -2977026.318 3  -2319742.026 1
  22295848.105     9356194.058 3   7290519.745 2
  23858175.130    -3621099.297 2  -2821638.384 1
  21818110.536    -9785722.524 3  -7625202.806 2
  23590021.272    -4180877.376 2  -3257805.348 1
 91  4 15 21 36 45.0000000  0  6 19 11 18 16 02 06
  21120012.621     1452742.093 3   1132006.023 2
  23038993.740    -2966374.388 3  -2311441.805 2
  22305017.558     9404364.243 3   7328054.834 2
  23858968.975    -3616921.182 2  -2818382.771 1
  21813530.011    -9809781.640 3  -7643950.099 2
  23584801.581    -4208305.059 2  -3279177.407 1
 91  4 15 21 37  0.0000000  0  6 19 11 18 16 02 06
  21122513.787     1465909.488 3   1142266.317 2
  23041048.512    -2955574.565 3  -2303026.361 2
  22314200.499     9452607.481 3   7365646.847 2
  23859779.922    -3612617.573 2  -2815029.294 1
  21808966.265    -9833767.363 3  -7662640.198 2
  23579574.098    -4235731.186 2  -3300548.313 1
 91  4 15 21 37 15.0000000  0  6 19 11 18 16 02 06
  21125027.849     1479126.016 3   1152564.894 2
  23043132.967    -2944625.618 3  -2294494.702 2
  22323395.438     9500924.791 3   7403296.567 2
  23860630.725    -3608187.316 2  -2811577.248 1
  21804419.017    -9857678.556 3  -7681272.220 2
  23574360.705    -4263154.643 2  -3321917.153 1
 91  4 15 21 37 30.0000000  0  6 19 11 18 16 02 06
  21127553.297     1492390.195 3   1162900.618 2
  23045243.806    -2933529.360 3  -2285848.236 1
  22332601.161     9549314.157 3   7441002.451 2
  23861489.031    -3603632.433 2  -2808028.047 1
  21799879.858    -9881516.822 3  -7699847.410 2
  23569134.732    -4290577.131 2  -3343285.208 1
 91  4 15 21 37 45.0000000  0  6 19 11 18 16 02 06
  21130083.247     1505700.572 3   1173272.330 2
  23047386.422    -2922287.370 3  -2277088.230 1
  22341818.880     9597773.778 3   7478763.073 2
  23862383.913    -3598954.697 2  -2804383.069 1
  21795356.587    -9905283.860 3  -7718367.105 2
  23563926.435    -4318000.272 2  -3364653.770 1
 91  4 15 21 38  0.0000000  0  6 19 11 18 16 02 06
  21132628.789     1519060.589 3   1183682.709 2
  23049554.821    -2910896.112 3  -2268211.922 1
  22351058.186     9646306.841 3   7516580.921 2
  23863306.375    -3594150.748 2  -2800639.845 1
  21790850.112    -9928976.059 3  -7736828.491 2
  23558709.448    -4345420.496 2  -3386020.034 1
 91  4 15 21 38 15.0000000  0  6 19 11 18 16 02 06
  21135180.621     1532468.554 3   1194130.467 2
  23051749.308    -2899357.486 3  -2259220.785 2
  22360305.580     9694911.280 3   7554454.393 2
  23864242.030    -3589222.528 2  -2796799.669 1
  21786352.021    -9952595.192 3  -7755232.929 2
  23553485.865    -4372839.738 2  -3407385.542 1
 91  4 15 21 38 30.0000000  0  6 19 11 18 16 02 06
  21137746.545     1545928.940 3   1204619.068 2
  23053970.765    -2887667.201 3  -2250111.454 2
  22369566.768     9743591.369 3   7592386.812 2
  23865204.366    -3584165.539 2  -2792859.222 1
  21781872.821    -9976136.905 3  -7773577.039 2
  23548266.775    -4400253.634 2  -3428746.917 1
 91  4 15 21 38 45.0000000  0  6 19 11 18 16 02 06
  21140314.266     1559445.010 3   1215151.068 2
  23056223.710    -2875821.982 3  -2240881.419 1
  22378846.244     9792349.927 3   7630380.344 2
  23866192.476    -3578976.755 2  -2788816.057 1
  21777412.510    -9999597.928 3  -7791858.276 2
  23543056.681    -4427658.932 2  -3450101.542 1
 91  4 15 21 39  0.0000000  0  6 19 11 18 16 02 06
  21142891.279     1573011.286 3   1225722.176 2
  23058500.928    -2863827.470 2  -2231535.052 1
  22388135.920     9841181.264 3   7668430.614 2
  23867197.381    -3573661.801 2  -2784674.600 1
  21772963.290   -10022983.828 3  -7810080.977 2
  23537840.890    -4455061.155 2  -3471453.788 1
 91  4 15 21 39 15.0000000  0  6 19 11 18 16 02 06
  21145485.681     1586623.877 3   1236329.388 2
  23060815.927    -2851687.806 3  -2222075.570 1
  22397447.766     9890080.966 3   7706534.166 2
  23868232.266    -3568224.798 2  -2780438.058 1
  21768524.862   -10046298.701 3  -7828248.338 2
  23532626.006    -4482464.305 2  -3492806.772 1
 91  4 15 21 39 30.0000000  0  6 19 11 18 16 02 06
  21148081.890     1600284.435 3   1246973.965 2
  23063155.512    -2839401.484 3  -2212501.793 1
  22406764.717     9939050.555 3   7744692.166 2
  23869294.130    -3562664.374 2  -2776105.279 1
  21764101.127   -10069540.901 3  -7846359.067 2
  23527410.214    -4509866.987 2  -3514159.367 1
 91  4 15 21 39 45.0000000  0  6 19 11 18 16 02 06
  21150691.884     1613996.533 3   1257658.711 2
  23065522.975    -2826964.910 2  -2202810.954 2
  22416099.659     9988093.380 3   7782907.219 2
  23870375.781    -3556976.788 2  -2771673.376 1
  21759691.779   -10092706.911 3  -7864410.432 2
  23522199.221    -4537265.616 2  -3535508.862 1
 91  4 15 21 40  0.0000000  0  6 19 11 18 16 02 06
  21153312.662     1627760.522 3   1268383.886 2
  23067916.211    -2814377.873 3  -2193002.849 1
  22425445.088    10037209.281 3   7821179.208 1
  23871480.816    -3551162.126 2  -2767142.571 1
  21755301.017   -10115796.192 3  -7882402.009 2
  23516985.829    -4564659.815 2  -3556854.817 1
 91  4 15 21 40 15.0000000  0  6 19 11 18 16 02 06
  21155939.749     1641574.235 3   1279147.802 2
  23070342.437    -2801642.739 3  -2183079.381 2
  22434802.811    10086396.010 3   7859506.396 2
  23872611.634    -3545222.943 2  -2762514.656 1
  21750919.852   -10138811.124 3  -7900335.646 2
  23511772.140    -4592051.944 2  -3578199.229 1
 91  4 15 21 40 30.0000000  0  6 19 11 18 16 02 06
  21158581.520     1655436.849 3   1289949.827 2
  23072793.835    -2788760.303 3  -2173041.108 2
  22444177.923    10135652.289 3   7897887.801 1
  23873765.233    -3539160.079 2  -2757790.405 1
  21746556.076   -10161752.540 3  -7918212.017 2
  23506559.045    -4619442.847 2  -3599542.657 1
 91  4 15 21 40 45.0000000  0  6 19 11 18 16 02 06
  21161227.488     1669351.430 3   1300792.350 2
  23075273.423    -2775727.508 3  -2162885.696 2
  22453561.420    10184980.783 3   7936325.466 1
  23874940.121    -3532970.623 2  -2752967.462 1
  21742201.287   -10184617.225 3  -7936028.576 2
  23501342.363    -4646829.459 2  -3620882.742 1
 91  4 15 21 41  0.0000000  0  6 19 11 18 16 02 06
  21163882.451     1683317.669 3   1311675.120 2
  23077781.482    -2762544.949 3  -2152613.579 1
  22462967.410    10234381.026 3   7974819.023 1
  23876146.786    -3526654.968 2  -2748046.259 1
  21737864.489   -10207405.868 3  -7953785.891 2
  23496141.858    -4674212.165 2  -3642219.791 1
 91  4 15 21 41 15.0000000  0  6 19 11 18 16 02 06
  21166553.896     1697334.320 3   1322597.176 2
  23080322.225    -2749214.085 3  -2142225.871 1
  22472379.394    10283851.294 3   8013367.142 2
  23877374.741    -3520214.581 2  -2743027.803 1
  21733542.977   -10230119.772 3  -7971484.971 2
  23490928.169    -4701592.555 2  -3663555.051 1
 91  4 15 21 41 30.0000000  0  6 19 11 18 16 02 06
  21169228.352     1711402.775 3   1333559.594 2
  23082883.350    -2735733.761 3  -2131721.720 1
  22481805.173    10333392.724 3   8051970.730 2
  23878623.077    -3513648.814 2  -2737911.662 1
  21729235.565   -10252757.788 3  -7989124.920 2
  23485718.677    -4728969.216 2  -3684887.356 1
 91  4 15 21 41 45.0000000  0  6 19 11 18 16 02 06
  21171915.092     1725522.382 3   1344561.871 2
  23085477.456    -2722104.690 3  -2121101.653 1
  22491248.035    10383004.142 3   8090628.837 1
  23879901.986    -3506958.211 2  -2732698.267 1
  21724940.735   -10275320.480 3  -8006706.172 2
  23480504.683    -4756342.986 2  -3706217.469 1
 91  4 15 21 42  0.0000000  0  6 19 11 18 16 02 06
  21174613.524     1739694.220 3   1355604.847 2
  23088099.141    -2708325.885 3  -2110364.923 2
  22500701.987    10432686.259 3   8129342.054 1
  23881199.192    -3500141.897 2  -2727386.895 1
  21720661.802   -10297806.873 3  -8024227.962 2
  23475294.292    -4783712.803 2  -3727544.453 1
 91  4 15 21 42 15.0000000  0  6 19 11 18 16 02 06
  21177320.646     1753918.001 3   1366688.302 2
  23090753.503    -2694397.706 3  -2099511.802 2
  22510172.430    10482438.451 3   8168109.853 2
  23882508.682    -3493200.345 2  -2721977.991 1
  21716397.248   -10320217.064 3  -8041690.384 2
  23470084.800    -4811078.873 2  -3748868.530 1
 91  4 15 21 42 30.0000000  0  6 19 11 18 16 02 06
  21180039.460     1768192.577 3   1377811.347 2
  23093427.653    -2680321.572 3  -2088543.386 2
  22519652.470    10532259.725 3   8206931.505 1
  23883857.750    -3486134.664 2  -2716472.358 1
  21712145.599   -10342552.427 3  -8059094.480 2
  23464878.903    -4838442.465 2  -3770190.706 1
 91  4 15 21 42 45.0000000  0  6 19 11 18 16 02 06
  21182763.081     1782519.791 3   1388975.387 2
  23096138.378    -2666095.866 3  -2077458.389 1
  22529147.195    10582151.213 3   8245807.857 2
  23885228.403    -3478943.662 2  -2710869.026 1
  21707913.424   -10364811.293 3  -8076438.977 2
  23459669.708    -4865802.131 2  -3791509.821 1
 91  4 15 21 43  0.0000000  0  6 19 11 18 16 02 06
  21185497.486     1796899.823 3   1400180.596 2
  23098870.088    -2651720.494 3  -2066256.826 2
  22538651.220    10632112.690 3   8284738.758 2
  23886622.135    -3471627.178 2  -2705167.896 1
  21703690.244   -10386993.483 3  -8093723.730 2
  23454476.104    -4893157.694 2  -3812825.727 1
 91  4 15 21 43 15.0000000  0  6 19 11 18 16 02 06
  21188249.883     1811331.723 3   1411426.213 2
  23101631.175    -2637196.445 3  -2054939.359 1
  22548171.125    10682143.119 3   8323723.362 1
  23888029.364    -3464185.980 2  -2699369.610 1
  21699483.564   -10409099.854 3  -8110949.398 2
  23449265.111    -4920509.853 2  -3834138.980 1
 91  4 15 21 43 30.0000000  0  6 19 11 18 16 02 06
  21191001.372     1825818.200 3   1422714.364 2
  23104429.134    -2622521.008 3  -2043503.956 1
  22557705.427    10732244.954 3   8362763.612 1
  23889477.060    -3456617.909 2  -2693472.527 1
  21695290.364   -10431127.699 3  -8128113.896 2
  23444061.317    -4947856.108 2  -3855447.644 1
 91  4 15 21 43 45.0000000  0  6 19 11 18 16 02 06
  21193768.157     1840356.305 3   1434042.750 2
  23107245.983    -2607697.416 3  -2031953.086 1
  22567257.109    10782414.823 3   8401856.893 2
  23890934.049    -3448925.870 2  -2687478.801 1
  21691116.655   -10453080.127 3  -8145219.611 2
  23438857.819    -4975199.501 2  -3876754.106 1
 91  4 15 21 44  0.0000000  0  6 19 11 18 16 02 06
  21196547.531     1854946.817 3   1445411.963 2
  23110092.820    -2592725.197 3  -2020286.446 2
  22576814.201    10832652.832 2   8441003.268 2
  23892422.221    -3441109.727 2  -2681388.392 1
  21686950.137   -10474956.643 3  -8162266.184 2
  23433656.118    -5002539.481 2  -3898057.885 1
 91  4 15 21 44 15.0000000  0  6 19 11 18 16 02 06
  21199331.112     1869590.590 3   1456822.684 2
  23112980.718    -2577603.595 3  -2008503.382 2
  22586386.570    10882959.956 3   8480203.473 2
  23893931.377    -3433168.900 2  -2675200.802 1
  21682802.211   -10496756.350 3  -8179252.902 2
  23428454.715    -5029875.205 2  -3919358.306 1
 91  4 15 21 44 30.0000000  0  6 19 11 18 16 02 06
  21202129.969     1884285.567 3   1468273.300 2
  23115877.907    -2562334.720 3  -1996605.544 1
  22595974.531    10933333.626 3   8519455.535 2
  23895463.619    -3425105.166 2  -2668917.415 1
  21678670.471   -10518481.211 3  -8196181.287 2
  23423257.516    -5057208.722 2  -3940657.063 1
 91  4 15 21 44 45.0000000  0  6 19 11 18 16 02 06
  21204934.830     1899033.978 3   1479765.560 2
  23118814.674    -2546916.600 3  -1984591.417 1
  22605573.887    10983775.815 2   8558761.019 1
  23897024.332    -3416916.848 2  -2662537.044 1
  21674551.617   -10540129.342 3  -8213049.899 2
  23418054.620    -5084537.915 2  -3961952.432 1
 91  4 15 21 45  0.0000000  0  6 19 11 18 16 02 06
  21207751.383     1913835.629 3   1491299.300 2
  23121779.327    -2531349.501 3  -1972461.215 1
  22615185.834    11034285.911 3   8598119.386 2
  23898612.031    -3408604.579 2  -2656059.999 1
  21670446.864   -10561700.956 3  -8229858.872 2
  23412853.522    -5111863.086 2  -3983244.658 1
 91  4 15 21 45 15.0000000  0  6 19 11 18 16 02 06
  21210578.423     1928691.811 3   1502875.535 2
  23124766.760    -2515632.387 2  -1960214.120 1
  22624807.369    11084864.938 2   8637531.476 2
  23900221.918    -3400166.999 2  -2649485.370 1
  21666355.896   -10583194.685 3  -8246607.159 2
  23407657.519    -5139183.026 2  -4004532.822 1
 91  4 15 21 45 30.0000000  0  6 19 11 18 16 02 06
  21213418.053     1943602.979 3   1514494.612 2
  23127791.363    -2499765.078 3  -1947849.957 1
  22634445.098    11135512.662 3   8676997.100 1
  23901850.093    -3391603.933 2  -2642812.873 1
  21662278.417   -10604610.391 3  -8263294.654 2
  23402455.818    -5166497.470 2  -4025816.713 1
 91  4 15 21 45 45.0000000  0  6 19 11 18 16 02 06
  21216265.789     1958570.192 3   1526157.361 2
  23130840.256    -2483746.485 3  -1935367.925 2
  22644102.014    11186230.415 3   8716517.275 2
  23903503.746    -3382914.614 2  -2636042.027 1
  21658218.929   -10625946.832 3  -8279920.385 2
  23397259.815    -5193805.217 2  -4047095.387 1
 91  4 15 21 46  0.0000000  0  5 19 11 18 02 06
  21219123.410     1973592.766 3   1537863.243 2
  23133916.721    -2467577.476 3  -1922768.688 1
  22653765.525    11237016.970 3   8756091.069 2
  21654172.930   -10647204.847 3  -8296485.004 2
  23392068.908    -5221107.132 2  -4068369.461 1
 91  4 15 21 46 15.0000000  0  6 19 11 18 16 02 06
  21221989.425     1988669.042 3   1549610.981 2
  23137013.882    -2451259.764 3  -1910053.588 1
  22663434.429    11287870.428 3   8795717.004 1
  23906879.709      163726.98512    127574.839 1
  21650141.616   -10668386.104 3  -8312989.802 3
  23386869.005    -5248404.826 2  -4089640.326 1
 91  4 15 21 46 30.0000000  0  6 19 11 18 16 02 06
  21224874.321     2003799.157 3   1561400.665 2
  23140150.907    -2434793.499 3  -1897222.753 1
  22673128.522    11338790.401 3   8835394.762 2
  23908607.114      172789.078 2    134636.093
  21646124.698   -10689490.567 3  -8329434.773 2
  23381682.294    -5275698.345 2  -4110907.867 1
 91  4 15 21 46 45.0000000  0  6 19 11 18 16 02 06
  21227759.828     2018985.026 3   1573233.794 2
  23143311.316    -2418176.944 2  -1884274.767 2
  22682828.305    11389778.580 3   8875125.653 2
  23910356.106      181976.249 2    141794.923 1
  21642125.466   -10710516.390 3  -8345818.460 2
  23376486.893    -5302985.872 2  -4132170.814 1
 91  4 15 21 47  0.0000000  0  6 19 11 18 16 02 06
  21230664.216     2034224.419 3   1585108.624 2
  23146499.611    -2401412.574 3  -1871211.627 1
  22692548.477    11440832.215 3   8914907.578 2
  23912117.383      191285.849 2    149049.112 1
  21638139.731   -10731466.123 3  -8362142.855 2
  23371292.687    -5330269.799 2  -4153430.896 1
 91  4 15 21 47 15.0000000  0  6 19 11 18 16 02 06
  21233569.809     2049516.660 3   1597024.640 2
  23149717.282    -2384501.160 2  -1858033.909 1
  22702282.139    11491950.454 3   8954739.810 1
  23913918.542      200717.253 2    156398.151 1
  21634164.476   -10752340.423 3  -8378408.476 2
  23366099.084    -5357550.826 2  -4174688.721 1
 91  4 15 21 47 30.0000000  0  6 19 11 18 16 02 06
  21236495.783     2064862.780 3   1608982.644 2
  23152969.733    -2367441.967 3  -1844741.019 1
  22712016.097    11543133.725 3   8994622.739 1
  23915737.378      210271.410 2    163842.844 1
  21630206.321   -10773138.353 3  -8394614.585 2
  23360911.780    -5384828.019 2  -4195943.594 1
 91  4 15 21 47 45.0000000  0  6 19 11 18 16 02 06
  21239420.858     2080262.839 3   1620982.673 2
  23156242.565    -2350235.050 2  -1831333.028 2
  22721768.047    11594381.785 3   9034556.135 2
  23917578.708      219948.042 2    171383.063 1
  21626266.743   -10793859.832 3  -8410761.129 2
  23355717.871    -5412101.353 2  -4217195.434 1
 91  4 15 21 48  0.0000000  0  6 19 11 18 16 02 06
  21242369.613     2095717.772 3   1633025.461 2
  23159545.978    -2332879.566 3  -1817809.285 1
  22731534.087    11645695.568 3   9074540.763 1
  23919439.520      229747.851 2    179019.208 1
  21622335.270   -10814503.914 3  -8426847.346 2
  23350524.869    -5439369.829 2  -4238443.477 1
 91  4 15 21 48 15.0000000  0  6 19 11 18 16 02 06
  21245312.976     2111226.438 3   1645110.119 2
  23162872.775    -2315376.676 3  -1804170.668 1
  22741312.413    11697073.452 3   9114575.324 1
  23921331.211      239669.468 2    186750.318 1
  21618424.179   -10835071.847 3  -8442874.245 2
  23345341.160    -5466634.774 2  -4259688.790 1
 91  4 15 21 48 30.0000000  0  6 19 11 18 16 02 06
  21248277.323     2126788.458 3   1657236.356 2
  23166232.849    -2297727.323 3  -1790417.909 1
  22751097.343    11748514.549 3   9154659.137 1
  23923244.479      249712.112 2    194575.672 1
  21614520.277   -10855564.272 3  -8458842.288 2
  23340158.942    -5493896.801 2  -4280931.822 1
 91  4 15 21 48 45.0000000  0  6 19 11 18 16 02 06
  21251245.265     2142404.709 3   1669404.844 2
  23169619.308    -2279930.636 3  -1776550.369 1
  22760896.059    11800019.514 2   9194792.741 1
  23925180.546      259876.291 2    202495.687 1
  21610638.267   -10875980.114 3  -8474750.664 2
  23334969.239    -5521154.913 2  -4302171.803 1
 91  4 15 21 49  0.0000000  0  6 19 11 18 16 02 06
  21254234.496     2158076.005 3   1681616.231 2
  23173033.042    -2261986.021 3  -1762567.537 1
  22770713.063    11851588.942 2   9234976.590 1
  23927139.385      270162.997 2    210511.312 1
  21606765.845   -10896318.825 3  -8490598.941 2
  23329778.933    -5548408.342 2  -4323408.101 1
 91  4 15 21 49 15.0000000  0  6 19 11 18 16 02 06
  21257222.532     2173803.345 3   1693871.287 2
  23176479.460    -2243892.704 3  -1748468.859 1
  22780538.164    11903223.320 2   9275210.991 1
  23929115.020      280572.674 2    218622.675 1
  21602913.518   -10916579.490 3  -8506386.411 2
  23324589.221    -5575656.300 2  -4344640.212 1
 91  4 15 21 49 30.0000000  0  6 19 11 18 16 02 06
  21260224.650     2189587.554 3   1706170.659 2
  23179944.462    -2225649.817 3  -1734253.625 1
  22790375.855    11954923.457 2   9315496.704 1
  23931112.233      291105.921 2    226830.299 1
  21599072.873   -10936761.082 3  -8522112.251 2
  23319407.309    -5602897.829 2  -4365867.299 1
 91  4 15 21 49 45.0000000  0  6 19 11 18 16 02 06
  21263237.264     2205430.334 3   1718515.666 2
  23183450.831    -2207255.934 3  -1719920.734 2
  22800228.832    12006690.660 2   9355834.619 1
  23933140.629      301764.461 2    235135.669 1
  21595243.920   -10956862.071 3  -8537775.288 2
  23314232.892    -5630131.366 2  -4387088.129 1
 91  4 15 21 50  0.0000000  0  6 19 11 18 16 02 06
  21266263.969     2221330.244 3   1730905.192 2
  23186978.488    -2188712.797 3  -1705471.544 1
  22810091.399    12058522.857 2   9396223.193 1
  23935199.309      312546.227 2    243536.945 1
  21591434.459   -10976884.209 3  -8553376.894 2
  23309048.581    -5657358.644 2  -4408304.109 1
 91  4 15 21 50 15.0000000  0  6 19 11 18 16 02 06
  21269302.968     2237287.173 3   1743339.141 2
  23190532.225    -2170020.763 2  -1690906.313 1
  22819965.064    12110419.761 2   9436662.186 2
  23937275.370      323450.776 2    252034.020 1
  21587643.583   -10996827.680 3  -8568917.187 2
  23303863.074    -5684579.688 2  -4429515.176 1
 91  4 15 21 50 30.0000000  0  6 19 11 18 16 02 06
  21272350.658     2253300.299 3   1755816.881 2
  23194118.943    -2151180.777 3  -1676225.810 2
  22829856.423    12162380.000 2   9477150.547 1
  23939371.822      334477.304 2    260626.064 1
  21583862.906   -11016693.332 3  -8584396.846 2
  23298688.954    -5711795.352 2  -4450722.095 1
 91  4 15 21 50 45.0000000  0  6 19 11 18 16 02 06
  21275411.539     2269370.608 3   1768339.185 2
  23197734.139    -2132192.216 3  -1661429.546 1
  22839752.572    12214404.109 2   9517688.656 1
  23941494.946      345626.823 2    269313.873 1
  21580096.608   -11036480.318 3  -8599815.208 2
  23293509.441    -5739004.807 2  -4471924.167 1
 91  4 15 21 51  0.0000000  0  6 19 11 18 16 02 06
  21278480.213     2285498.696 3   1780906.502 2
  23201376.619    -2113054.524 3  -1646517.039 1
  22849664.907    12266492.772 2   9558277.108 1
  23943642.065      356899.359 2    278097.616 1
  21576343.807   -11056188.011 3  -8615171.778 2
  23288329.327    -5766207.460 2  -4493120.952 1
 91  4 15 21 51 15.0000000  0  6 19 11 18 16 02 06
  21281555.185     2301684.041 3   1793518.453 2
  23205044.585    -2093768.397 2  -1631488.889 1
  22859587.737    12318644.853 2   9598914.919 1
  23945816.755      368294.054 2    286976.536 1
  21572609.295   -11075817.132 3  -8630467.130 2
  23283159.403    -5793403.991 2  -4514312.921 1
 91  4 15 21 51 30.0000000  0  6 19 11 18 16 02 06
  21284646.046     2317927.229 3   1806175.461 2
  23208740.122    -2074333.493 2  -1616344.806 2
  22869528.856    12370860.586 2   9639602.374 1
  23948006.137      379811.478 2    295951.075 1
  21568890.366   -11095367.081 3  -8645700.789 2
  23277984.087    -5820593.708 2  -4535499.657 1
 91  4 15 21 51 45.0000000  0  6 19 11 18 16 02 06
  21287750.396     2334227.166 3   1818876.695 2
  23212474.338    -2054751.139 3  -1601085.835 1
  22879477.469    12423138.628 2   9680338.353 1
  23950209.315      391449.987 2    305020.047 1
  21565185.536   -11114839.253 3  -8660873.848 2
  23272817.165    -5847778.050 2  -4556682.146 1
 91  4 15 21 52  0.0000000  0  6 19 11 18 16 02 06
  21290860.444     2350582.982 3   1831621.465 2
  23216225.044    -2035022.215 3  -1585712.664 1
  22889437.775    12475477.849 2   9721122.025 1
  23952447.567      403208.908 2    314182.671 1
  21561490.889   -11134234.367 3  -8675986.854 2
  23267635.855    -5874957.593 2  -4577860.910 1
 91  4 15 21 52 15.0000000  0  6 19 11 18 16 02 06
  21293984.277     2367000.180 3   1844414.067 2
  23220007.527    -2015141.623 3  -1570221.302 1
  22899405.574    12527883.590 2   9761957.512 1
  23954717.893      415093.079 2    323443.076 1
  21557816.937   -11153547.142 3  -8691035.708 2
  23262468.025    -5902127.176 2  -4599031.949 1
 91  4 15 21 52 30.0000000  0  6 19 11 18 16 02 06
  21297125.805     2383480.730 3   1857256.035 2
  23223822.380    -1995107.644 3  -1554610.446 2
  22909393.756    12580357.008 2   9802845.734 1
  23956999.011      427104.027 2    332802.180 1
  21554157.670   -11172775.621 3  -8706018.873 2
  23257299.908    -5929284.895 2  -4620193.698 1
 91  4 15 21 52 45.0000000  0  6 19 11 18 16 02 06
  21300268.834     2400020.933 3   1870144.486 2
  23227660.626    -1974924.215 3  -1538883.102 2
  22919391.239    12632894.139 3   9843783.614 1
  23959307.117      439237.964 2    342257.090 1
  21550513.690   -11191923.627 3  -8720939.330 2
  23252136.284    -5956434.436 2  -4641349.105 1
 91  4 15 21 53  0.0000000  0  6 19 11 18 16 02 06
  21303431.939     2416619.896 3   1883078.726 2
  23231529.749    -1954592.468 3  -1523040.178 1
  22929402.507    12685493.807 2   9884770.219 1
  23961637.707      451493.523 2    351806.838 1
  21546888.599   -11210992.193 3  -8735797.891 2
  23246966.360    -5983576.836 2  -4662498.913 1
 91  4 15 21 53 15.0000000  0  6 19 11 18 16 02 06
  21306602.547     2433278.609 3   1896059.527 2
  23235420.450    -1934111.419 2  -1507080.940 2
  22939420.067    12738156.895 3   9925806.230 1
  23964001.871      463871.822 2    361452.271 1
  21543273.699   -11229980.158 3  -8750593.639 2
  23241805.729    -6010710.931 2  -4683642.269 1
 91  4 15 21 53 30.0000000  0  6 19 11 18 16 02 06
  21309777.946     2449994.188 3   1909084.639 2
  23239352.533    -1913484.274 3  -1491007.847 2
  22949455.626    12790879.749 2   9966888.827 1
  23966373.225      476369.698 2    371190.789 1
  21539676.188   -11248890.702 3  -8765329.065 3
  23236643.309    -6037839.893 2  -4704781.637 1
 91  4 15 21 53 45.0000000  0  6 19 11 18 16 02 06
  21312969.538     2466765.059 3   1922152.821 2
  23243306.491    -1892712.786 3  -1474822.287 1
  22959501.071    12843660.793 3  10008016.762 1
  23968768.267      488985.368 2    381021.098 1
  21536089.479   -11267725.625 3  -8780005.578 2
  23231481.176    -6064965.262 2  -4725918.192 1
 91  4 15 21 54  0.0000000  0  6 19 11 18 16 02 06
  21316169.524     2483593.125 3   1935265.579 2
  23247283.238    -1871795.214 2  -1458522.860 1
  22969557.003    12896501.558 2  10049191.218 1
  23971197.782      501720.459 2    390944.488 1
  21532522.541   -11286482.951 3  -8794621.604 2
  23226320.554    -6092085.215 2  -4747050.497 1
 91  4 15 21 54 15.0000000  0  6 19 11 18 16 02 06
  21319384.195     2500480.959 3   1948424.920 2
  23251293.264    -1850729.297 2  -1442107.899 2
  22979618.938    12949404.166 2  10090413.899 1
  23973639.897      514577.049 2    400962.523 1
  21528966.711   -11305160.164 3  -8809175.213 3
  23221168.918    -6119197.221 2  -4768176.643 1
 91  4 15 21 54 30.0000000  0  6 19 11 18 16 02 06
  21322611.464     2517426.850 3   1961629.493 2
  23255326.969    -1829516.902 3  -1425578.758 1
  22989703.960    13002366.645 2  10131683.199 1
  23976116.178      527553.178 2    411073.718 1
  21525429.159   -11323759.244 3  -8823667.936 2
  23216000.198    -6146303.142 2  -4789298.083 1
 91  4 15 21 54 45.0000000  0  6 19 11 18 16 02 06
  21325846.525     2534430.341 3   1974878.946 2
  23259393.655    -1808158.763 3  -1408936.072 1
  22999791.974    13055388.104 2  10172998.436 1
  23978604.161      540647.966 2    421277.413 1
  21521902.095   -11342280.753 3  -8838100.211 2
  23210845.570    -6173403.512 2  -4810415.171 1
 91  4 15 21 55  0.0000000  0  6 19 11 18 16 02 06
  21329095.372     2551492.442 3   1988174.068 2
  23263491.219    -1786654.054 3  -1392179.164 1
  23009894.080    13108469.412 2  10214360.350 1
  23981124.513      553862.329 2    431574.208 1
  21518392.428   -11360723.573 3  -8852471.177 2
  23205691.534    -6200497.265 2  -4831527.075 1
 91  4 15 21 55 15.0000000  0  6 19 11 18 16 02 06
  21332349.925     2568612.449 3   2001514.311 2
  23267608.266    -1765003.861 3  -1375308.896 2
  23020002.782    13161609.402 2  10255768.003 1
  23983654.463      567195.377 2    441963.510 1
  21514899.846   -11379088.561 3  -8866781.488 2
  23200535.100    -6227585.274 2  -4852634.547 1
 91  4 15 21 55 30.0000000  0  6 19 11 18 16 02 06
  21335623.359     2585790.586 3   2014899.854 2
  23271753.801    -1743208.114 3  -1358325.194 1
  23030128.872    13214807.768 2  10297221.080 1
  23986207.491      580646.927 2    452445.150 1
  21511420.150   -11397375.609 3  -8881031.083 3
  23195381.370    -6254667.324 2  -4873737.379 1
 91  4 15 21 55 45.0000000  0  6 19 11 18 16 02 06
  21338900.989     2603026.711 3   2028330.584 2
  23275928.111    -1721267.053 3  -1341228.289 1
  23040258.261    13268064.132 2  10338719.401 1
  23988798.901      594216.784 2    463018.984 1
  21507954.554   -11415584.846 3  -8895220.039 2
  23190224.944    -6281743.482 2  -4894835.601 1
 91  4 15 21 56  0.0000000  0  6 19 11 18 16 02 06
  21342194.509     2620321.393 3   2041806.938 2
  23280132.104    -1699180.420 3  -1324017.930 1
  23050410.432    13321378.835 2  10380263.132 1
  23991402.299      607905.052 2    473685.099 1
  21504506.636   -11433715.837 3  -8909348.012 2
  23185076.310    -6308813.319 2  -4915928.881 1
 91  4 15 21 56 15.0000000  0  6 19 11 18 16 02 06
  21345498.821     2637673.923 3   2055328.375 2
  23284370.561    -1676949.054 3  -1306694.781 1
  23060565.001    13374750.797 2  10421851.536 1
  23994032.980      621711.078 2    484442.931 1
  21501069.519   -11451769.431 3  -8923415.697 3
  23179930.668    -6335877.473 2  -4937017.726 1
 91  4 15 21 56 30.0000000  0  6 19 11 18 16 02 06
  21348809.424     2655086.405 3   2068896.516 2
  23288621.321    -1654571.098 2  -1289257.446 2
  23070733.060    13428181.678 2  10463485.835 1
  23996683.145      635636.343 2    495293.653 1
  21497645.594   -11469743.458 3  -8937421.367 2
  23174779.032    -6362933.962 2  -4958100.616 1
 91  4 15 21 56 45.0000000  0  6 19 11 18 16 02 06
  21352131.727     2672554.266 3   2082507.817 2
  23292910.454    -1632051.503 3  -1271709.718 1
  23080907.121    13481666.589 2  10505162.208 1
  23999354.293      649676.213 2    506233.832 1
  21494239.948   -11487642.814 3  -8951368.860 3
  23169632.501    -6389987.597 2  -4979181.281 1
 91  4 15 21 57  0.0000000  0  6 19 11 18 16 02 06
  21355460.025     2690077.305 3   2096162.128 2
  23297219.968    -1609390.628 3  -1254051.918 2
  23091097.665    13535204.997 2  10546880.310 1
  24002052.725      663829.983 2    517262.612 1
  21490850.497   -11505467.793 4  -8965258.385 2
  23164480.865    -6417038.508 2  -5000259.804 1
 91  4 15 21 57 15.0000000  0  6 19 11 18 16 02 06
  21358808.704     2707652.950 3   2109857.417 2
  23301560.963    -1586591.476 3  -1236286.349 1
  23101300.502    13588793.831 2  10588637.662 1
  24004759.847      678094.504 2    528377.730 1
  21487470.337   -11523221.192 3  -8979092.135 3
  23159343.023    -6444089.597 2  -5021338.502 1
 91  4 15 21 57 30.0000000  0  6 19 11 18 16 02 06
  21362163.081     2725278.831 3   2123591.843 2
  23305917.253    -1563656.516 2  -1218414.962 2
  23111499.142    13642430.491 2  10630432.336 1
  24007493.956      692467.435 2    539577.400 1
  21484107.863   -11540905.247 3  -8992871.853 2
  23154180.594    -6471143.106 2  -5042419.074 1
 91  4 15 21 57 45.0000000  0  6 19 11 18 16 02 06
  21365526.750     2742954.295 3   2137364.921 2
  23310314.010    -1540586.480 3  -1200438.311 1
  23121715.468    13696113.964 2  10672263.455 1
  24010257.442      706947.800 2    550860.677 1
  21480753.783   -11558520.637 4  -9006598.072 3
  23149032.257    -6498199.518 2  -5063501.897 1
 91  4 15 21 58  0.0000000  0  6 19 11 18 16 02 06
  21368896.125     2760658.818 3   2151160.641 2
  23314725.451    -1517402.114 3  -1182372.581 1
  23131939.594    13749823.361 2  10714114.733 1
  24013030.221      721514.895 2    562211.600 1
  21477409.597   -11576088.147 4  -9020286.963 3
  23143882.427    -6525279.546 2  -5084603.123 1
 91  4 15 21 58 15.0000000  0  6 19 11 18 16 02 06
  21372275.683     2778418.320 3   2164999.206 2
  23319162.683    -1494077.816 3  -1164197.824 2
  23142165.509    13803584.400 2  10756006.342 1
  24015817.396      736194.414 2    573650.094 1
  21474082.199   -11593581.759 4  -9033918.285 2
  23138731.393    -6552357.260 2  -5105702.547 1
 91  4 15 21 58 30.0000000  0  6 19 11 18 16 02 06
  21375667.830     2796236.341 3   2178883.357 2
  23323631.990    -1470610.378 3  -1145911.532 1
  23152411.518    13857400.170 2  10797940.556 1
  24018640.239      750989.438 2    585178.675 1
  21470766.500   -11610998.160 3  -9047489.448 2
  23133575.857    -6579429.248 2  -5126797.530 1
 91  4 15 21 58 45.0000000  0  6 19 11 18 16 02 06
  21379071.679     2814114.862 3   2192814.654 2
  23328119.278    -1446998.188 3  -1127512.438 1
  23162665.920    13911272.289 2  10839918.651 1
  24021468.483      765901.869 2    596798.598 1
  21467467.283   -11628335.585 3  -9060999.072 3
  23128427.825    -6606493.664 2  -5147886.593 1
 91  4 15 21 59  0.0000000  0  6 19 11 18 16 02 06
  21382489.312     2832057.063 3   2206795.570 2
  23332644.643    -1423238.401 2  -1108998.338 1
  23172927.215    13965203.383 2  10881942.713 1
  24024329.403      780934.336 2    608512.188 1
  21464185.753   -11645591.053 3  -9074444.826 2
  23123284.583    -6633547.474 2  -5168967.381 1
 91  4 15 21 59 15.0000000  0  6 19 11 18 16 02 06
  21385910.244     2850059.833 3   2220823.691 2
  23337190.399    -1399334.145 2  -1090371.664 1
  23183196.310    14019190.337 2  10924010.302 1
  24027220.005      796083.407 2    620316.582 1
  21460917.414   -11662767.502 3  -9087829.008 2
  23118134.151    -6660593.696 2  -5190042.270 1
 91  4 15 21 59 30.0000000  0  6 19 11 18 16 02 06
  21389348.565     2868129.026 3   2234903.565 2
  23341771.526    -1375279.599 2  -1071627.888 1
  23193483.685    14073238.511 2  10966125.608 1
  24030124.088      811354.622 2    632216.172 1
  21457662.870   -11679859.112 3  -9101147.086 2
  23112991.205    -6687626.315 2  -5211106.545 1
 91  4 15 21 59 45.0000000  0  6 19 11 18 16 02 06
  21392800.070     2886267.377 3   2249037.327 2
  23346377.537    -1351072.548 2  -1052765.234 1
  23203780.657    14127350.036 2  11008290.245 1
  24033054.860      826750.696 2    644213.122 1
  21454426.910   -11696863.389 3  -9114397.106 2
  23107844.368    -6714642.877 2  -5232158.318 1
 91  4 15 22  0  0.0000000  0  6 19 11 18 16 02 06
  21396264.776     2904471.257 3   2263222.157 2
  23351011.434    -1326716.909 2  -1033786.824 1
  23214092.017    14181521.258 2  11050501.479 1
  24036008.118      842267.444 2    656303.965 1
  21451208.933   -11713784.189 4  -9127582.090 3
  23102712.521    -6741647.095 2  -5253200.464 1
 91  4 15 22  0 15.0000000  0  6 19 11 18 16 02 06
  21399739.071     2922742.699 3   2277459.631 2
  23355674.106    -1302210.655 2  -1014691.087 1
  23224412.678    14235753.878 2  11092760.450 1
  24038978.162      857907.034 2    668490.609 1
  21448004.157   -11730619.390 3  -9140700.371 2
  23097571.983    -6768636.856 2  -5274231.372 1
 91  4 15 22  0 30.0000000  0  6 19 11 18 16 02 06
  21403235.545     2941084.124 3   2291751.634 2
  23360363.459    -1277551.779 2   -995476.388 1
  23234740.825    14290050.002 2  11135068.967 1
  24041978.186      873671.319 2    680774.334 1
  21444819.457   -11747366.851 3  -9153750.276 2
  23092441.637    -6795609.831 2  -5295249.227 1
 91  4 15 22  1  0.0000000  0  3 19 18 06
  21410211.723       25155.84413     19599.582 2
  23255398.323       29489.35612     22943.989 1
  23082144.063      132254.85512    103086.782 1
 91  4 15 22  1 15.0000000  0  6 19 11 18 16 02 06
  21413697.709       43494.359 3     33889.316 2
  23374534.947      197577.60913    153974.863 1
  23265730.370       83760.544 2     65233.036 1
  24051051.104      921278.040 2    717870.327 1
  21435274.066      243272.44013    189605.027 2
  23076982.541      105118.948 2     81941.979 1
 91  4 15 22  1 30.0000000  0  6 19 11 18 16 02 06
  21417206.180       61903.510 3     48234.090 2
  23379306.447      222632.054 3    173497.782 1
  23276067.818      138094.310 2    107570.873 1
  24054099.692      937325.227 2    730374.538 1
  21432113.657      226662.982 3    176662.663 2
  23071820.113       78000.363 2     60810.722 1
 91  4 15 22  1 45.0000000  0  6 19 11 18 16 02 06
  21420718.543       80384.451 3     62634.807 2
  23384097.125      247839.640 3    193140.024 1
  23286423.248      192491.516 2    149958.155 1
  24057168.967      953497.604 2    742976.334 1
  21428967.932      210142.698 3    163789.767 2
  23066663.983       50900.092 2     39693.734 1
 91  4 15 22  2  0.0000000  0  6 19 11 18 16 02 06
  21424246.506       98933.292 3     77088.424 2
  23388925.879      273196.198 3    212898.354 1
  23296785.571      246947.962 2    192391.584 1
  24060260.430      969790.722 2    755672.227 1
  21425840.801      193707.503 3    150983.175 2
  23061507.252       23814.252 2     18588.003 1
 91  4 15 22  2 15.0000000  0  6 19 11 18 16 02 06
  21427790.950      117549.493 3     91594.536 2
  23393778.026      298700.918 3    232772.136 2
  23307157.789      301462.487 2    234870.266 1
  24063377.371      986203.610 2    768461.385
  21422727.752      177356.645 3    138242.316 2
  23056359.813       -3257.741 2     -2506.960 1
 91  4 15 22  2 30.0000000  0  6 19 11 18 16 02 06
  21431347.688      136237.164 3    106156.329 2
  23398661.644      324357.540 2    252764.273 1
  23317536.009      356038.880 2    277397.178 1
  24066539.577     1002740.388 2    781347.108 1
  21419636.891      161094.211 3    125570.336 2
  23051199.784      -30311.878 2    -23588.029 1
 91  4 15 22  2 45.0000000  0  6 19 11 18 16 02 06
  21434916.118      154994.013 3    120772.036 2
  23403574.639      350163.520 3    272872.796 1
  23327933.110      410674.618 2    319970.285 1
  24069717.384     1019398.206 2    794327.146 1
  21416556.526      144917.849 3    112965.440 3
  23046063.739      -57350.473 2    -44656.957 1
 91  4 15 22  3  0.0000000  0  6 19 11 18 16 02 06
  21438498.334      173817.874 3    135439.962 2
  23408509.822      376116.518 2    293095.896 1
  23338342.506      465367.472 2    362587.927 1
  24072900.574     1036174.621 2    807399.664 1
  21413494.746      128825.410 3    100425.940 2
  23040926.797      -84375.668 2    -65715.452 1
 91  4 15 22  3 15.0000000  0  6 19 11 18 16 02 06
  21442089.249      192704.384 3    150156.702 2
  23413475.291      402211.880 2    313429.931 1
  23348761.490      520112.444 2    405246.197 1
  24076119.747     1053064.910 2    820560.860 1
  21410446.760      112812.357 3     87948.293 2
  23035783.860     -111391.921 2    -86766.984 1
 91  4 15 22  3 30.0000000  0  6 19 11 18 16 02 06
  21445701.749      211653.550 3    164922.270 2
  23418470.433      428449.502 2    333874.797 1
  23359193.064      574909.287 2    447944.868 1
  24079358.106     1070068.864 2    833810.626 1
  21407416.757       96878.635 3     75532.460 2
  23030642.118     -138399.148 2   -107811.534 1
 91  4 15 22  3 45.0000000  0  6 19 11 18 16 02 06
  21449318.743      230666.132 3    179737.250 2
  23423487.754      454829.809 2    354430.842 1
  23369623.749      629758.361 2    490684.232 1
  24082597.966     1087186.957 2    847149.281 1
  21404396.342       81024.880 3     63178.934 3
  23025506.074     -165396.618 2   -128848.413 1
 91  4 15 22  4  0.0000000  0  6 19 11 18 16 02 06
  21452937.237      249741.834 3    194601.414 2
  23428537.464      481351.975 2    375097.438 1
  23380072.110      684659.031 2    533463.783 1
  24085892.383     1104418.661 2    860576.623 1
  21401396.318       65250.676 3     50887.398 2
  23020369.428     -192384.813 2   -149878.069 1
 91  4 15 22  4 15.0000000  0  6 19 11 18 16 02 06
  21456584.516      268879.329 3    209513.726 2
  23433609.649      508014.463 2    395873.380 1
  23390538.166      739609.635 2    576282.275 1
  24089193.101     1121762.072 2    874090.858 1
  21398405.892       49554.481 3     38656.655 3
  23015228.585     -219365.143 2   -170901.610 1
 91  4 15 22  4 30.0000000  0  6 19 11 18 16 02 06
  21460241.384      288078.373 3    224473.990 2
  23438712.415      534816.813 2    416758.301 1
  23401000.627      794609.444 2    619139.102 1
  24092512.097     1139216.590 2    887691.663 1
  21395438.543       33935.798 3     26486.297 3
  23010099.443     -246337.848 2   -191919.220 1
 91  4 15 22  4 45.0000000  0  6 19 11 18 16 02 06
  21463904.551      307342.451 3    239484.926 2
  23443840.964      561762.357 2    437754.810 1
  23411477.468      849661.537 2    662036.670 1
  24095851.188     1156785.368 2    901381.551 1
  21392479.894       18398.285 3     14379.196 2
  23004972.386     -273299.373 2   -212928.125 1
 91  4 15 22  5  0.0000000  0  6 19 11 18 16 02 06
  21467587.498      326677.046 3    254550.827 2
  23448993.795      588856.119 2    458866.815 1
  23421961.515      904771.208 2    704979.090 1
  24099218.155     1174474.025 2    915164.839 1
  21389540.727        2947.157 3      2339.410 3
  22999837.842     -300244.438 2   -233924.178 1
 91  4 15 22  5 15.0000000  0  6 19 11 18 16 02 06
  21471283.637      346094.310 3    269681.134 2
  23454180.812      616110.025 3    480103.590 1
  23432459.042      959950.230 2    747975.593 1
  24102604.614     1192294.278 2    929050.666 1
  21386618.051      -12405.502 3     -9623.653 3
  22994716.186     -327160.752 2   -254897.822 1
 91  4 15 22  5 30.0000000  0  6 19 11 18 16 02 06
  21474989.671      365583.359 3    284867.386 2
  23459394.797      643513.094 2    501456.629 1
  23442974.570     1015187.421 2    791017.355 1
  24106024.045     1210234.954 2    943030.342 1
  21383715.461      -27670.465 3    -21518.371 2
  22989595.131     -354059.128 2   -275857.526 1
 91  4 15 22  5 45.0000000  0  6 19 11 18 16 02 06
  21478710.398      385145.013 3    300110.203 2
  23464641.467      671065.660 3    522926.101 1
  23453500.576     1070483.095 2    834104.727 1
  24109462.663     1228296.283 2    957104.007 1
  21380824.562      -42847.187 3    -33344.340 3
  22984483.369     -380939.010 2   -296802.787 1
 91  4 15 22  6  0.0000000  0  6 19 11 18 16 02 06
  21482449.412      404776.371 3    315407.336 2
  23469907.323      698764.607 2    544509.670 1
  23464028.694     1125834.034 2    877235.154 1
  24112924.071     1246474.910 2    971269.029 1
  21377953.748      -57938.731 3    -45103.936 3
  22979372.811     -407803.236 2   -317735.829 1
 91  4 15 22  6 15.0000000  0  6 19 11 18 16 02 06
  21486198.016      424481.589 3    330762.019 2
  23475203.752      726613.749 2    566210.286 2
  23474574.794     1181244.155 2    920411.710 1
  24116404.063     1264774.808 2    985528.691 1
  21375101.527      -72941.107 3    -56794.040 2
  22974265.246     -434647.775 2   -338653.590 1
 91  4 15 22  6 30.0000000  0  6 19 11 18 16 02 06
  21489961.007      444258.402 3    346172.500 2
  23480536.765      754610.660 3    588026.023 2
  23485130.779     1236710.830 2    963632.322 1
  24119901.436     1283193.242 2    999880.634 1
  21372260.091      -87856.577 3    -68416.440 2
  22969163.980     -461474.855 2   -359557.717 1
 91  4 15 22  6 45.0000000  0  6 19 11 18 16 02 06
  21493738.098      464107.317 3    361639.164 2
  23485886.863      782755.533 2    609957.050 1
  23495692.768     1292233.915 2   1006896.890 1
  24123437.495     1301730.913 2   1014325.461 1
  21369440.240     -102684.708 3    -79970.769 3
  22964056.712     -488284.029 2   -380447.872 1
 91  4 15 22  7  0.0000000  0  6 19 11 18 16 02 06
  21497530.466      484029.440 3    377162.862 2
  23491269.932      811049.139 2    632004.012 2
  23506276.639     1347814.434 2   1050206.224 1
  24126979.244     1320388.179 2   1028863.487 1
  21366633.286     -117424.706 3    -91456.433 3
  22958956.345     -515074.318 2   -401323.300 1
 91  4 15 22  7 15.0000000  0  6 19 11 18 16 02 06
  21501334.238      504025.210 3    392743.958 2
  23496685.982      839491.594 2    654166.921 1
  23516861.418     1403452.435 2   1093560.348 1
  24130562.358     1339165.380 2   1043495.030 1
  21363847.315     -132076.113 3   -102873.069 2
  22953872.468     -541845.268 2   -422183.716 1
 91  4 15 22  7 30.0000000  0  6 19 11 18 16 02 06
  21505154.492      524095.164 3    408382.854 2
  23502125.416      868083.276 2    676446.139 2
  23527462.678     1459148.021 2   1136959.334 1
  24134160.471     1358062.771 2   1058220.145 1
  21361074.833     -146638.347 3   -114220.208 2
  22948781.690     -568596.066 2   -443028.400 1
 91  4 15 22  7 45.0000000  0  6 19 11 18 16 02 06
  21508986.142      544237.489 3    424078.160 2
  23507600.823      896822.047 2    698839.944 1
  23538067.533     1514899.250 2   1180401.677 1
  24137770.572     1377078.199 2   1073037.266 1
  21358320.639     -161113.288 3   -125499.323 2
  22943691.514     -595328.621 2   -463858.848 1
 91  4 15 22  8  0.0000000  0  6 19 11 18 16 02 06
  21512838.469      564454.386 3    439831.548 2
  23513097.223      925709.696 2    721349.770 1
  23548692.779     1570708.084 2   1223888.931 1
  24141417.842     1396213.170 2   1087947.516 1
  21355578.145     -175499.151 3   -136709.042 2
  22938603.431     -622040.900 2   -484673.493 1
 91  4 15 22  8 15.0000000  0  6 19 11 18 16 02 06
  21516694.400      584747.103 3    455644.036 2
  23518621.796      954747.113 2    743976.288 2
  23559316.227     1626575.085 2   1267421.490 1
  24145087.003     1415468.908 2   1102951.907 1
  21352860.221     -189794.751 3   -147848.422 2
  22933527.050     -648731.806 2   -505471.523 1
 91  4 15 22  8 30.0000000  0  6 19 11 18 16 02 06
  21520570.416      605114.041 3    471514.344 2
  23524178.154      983932.575 2    766718.153 1
  23569961.252     1682498.292 2   1310997.835 1
  24148768.755     1434843.507 2   1118048.917 1
  21350160.594     -204001.803 3   -158918.790 3
  22928446.471     -675402.822 2   -526254.016 1
 91  4 15 22  8 45.0000000  0  6 19 11 18 16 02 06
  21524459.930      625555.170 3    487442.474 2
  23529752.190     1013265.760 2    789575.155 2
  23580605.990     1738477.512 2   1354617.840 1
  24152484.386     1454336.626 2   1133238.261 1
  21347470.250     -218120.295 3   -169920.161 2
  22923370.683     -702054.096 2   -547021.169 1
 91  4 15 22  9  0.0000000  0  6 19 11 18 16 02 06
  21528367.121      646068.866 3    503427.152 2
  23535364.302     1042744.817 2    812545.817 2
  23591267.803     1794510.635 2   1398279.853 1
  24156209.903     1473946.321 2   1148518.461 1
  21344804.197     -232152.087 3   -180853.964 3
  22918308.087     -728687.189 2   -567774.125 2
 91  4 15 22  9 15.0000000  0  6 19 11 18 16 02 06
  21532282.714      666659.156 3    519471.502 2
  23541002.503     1072373.379 2    835632.937 1
  23601948.810     1850601.299 2   1441986.714 1
  24159960.304     1493676.133 2   1163892.231 1
  21342149.836     -246093.084 3   -191717.027 3
  22913254.783     -755298.035 2   -588509.765 2
 91  4 15 22  9 30.0000000  0  6 19 11 18 16 02 06
  21536217.791      687325.780 3    535575.351 2
  23546675.176     1102150.933 2    858836.220 2
  23612633.413     1906749.101 2   1485738.065 1
  24163746.085     1513525.633 2   1179359.276 1
  21339511.363     -259943.678 3   -202509.652 3
  22908190.093     -781886.896 2   -609228.269 1
 91  4 15 22  9 45.0000000  0  6 19 11 18 16 02 06
  21540159.760      708069.385 3    551739.184 2
  23552367.332     1132077.692 2    882155.750 1
  23623330.012     1962954.393 2   1529534.213 1
  24167552.850     1533494.746 2   1194919.593 1
  21336896.273     -273703.470 3   -213231.504 2
  22903130.489     -808453.295 2   -629929.261 1
 91  4 15 22 10  0.0000000  0  6 19 11 18 16 02 06
  21544124.816      728889.024 3    567962.252 2
  23558087.374     1162152.226 2    905590.439 1
  23634039.499     2019215.206 2   1573373.625 1
  24171364.117     1553582.046 2   1210571.893 1
  21334294.080     -287373.762 4   -223883.624 3
  22898079.593     -834998.421 2   -650613.702 2
 91  4 15 22 10 15.0000000  0  6 19 11 18 16 02 06
  21548098.859      749783.255 3    584243.444 2
  23563839.193     1192372.948 3    929139.002 1
  23644757.379     2075530.019 2   1617255.154 1
  24175203.854     1573785.860 2   1226315.040 1
  21331711.063     -300956.025 3   -234467.151 2
  22893028.384     -861523.593 2   -671282.589 1
 91  4 15 22 10 30.0000000  0  6 19 11 18 16 02 06
  21552089.401      770751.854 3    600582.586 2
  23569615.599     1222739.419 2    952801.142 1
  23655481.550     2131898.535 2   1661178.496 1
  24179076.878     1594106.240 2   1242149.005 1
  21329140.044     -314450.348 3   -244982.153 2
  22887992.469     -888028.765 2   -691935.889 1
 91  4 15 22 10 45.0000000  0  6 19 11 18 16 02 06
  21556096.721      791798.715 3    616982.718 2
  23575425.273     1253255.247 2    976579.697 2
  23666218.015     2188324.244 2   1705146.426 1
  24182960.685     1614546.543 2   1258076.425 1
  21326590.611     -327853.053 4   -255425.762 2
  22882945.168     -914510.174 2   -712570.664 1
 91  4 15 22 11  0.0000000  0  6 19 11 18 16 02 06
  21560113.343      812923.904 3    633443.881 2
  23581260.434     1283920.094 2   1000474.330 1
  23676962.882     2244806.666 2   1749158.522 1
  24186887.665     1635106.493 2   1274097.130 1
  21324057.066     -341164.201 4   -265798.040 2
  22877918.545     -940967.896 2   -733186.976 1
 91  4 15 22 11 15.0000000  0  6 19 11 18 16 02 06
  21564149.447      834126.411 3    649965.286 2
  23587122.573     1314732.674 2   1024484.111 2
  23687720.033     2301344.567 2   1793213.813 1
  24190815.849     1655784.741 2   1290209.905 1
  21321542.403     -354384.897 3   -276099.826 3
  22872879.935     -967402.817 2   -753785.506 1
 91  4 15 22 11 30.0000000  0  6 19 11 18 16 02 06
  21568205.942      855403.979 3    666545.186 2
  23593018.592     1345690.494 2   1048607.056 1
  23698499.068     2357935.504 2   1837310.492 1
  24194778.802     1676578.837 2   1306412.928
  21319042.738     -367517.321 3   -286332.838 3
  22867859.010     -993817.265 2   -774368.132 1
 91  4 15 22 11 45.0000000  0  6 19 11 18 16 02 06
  21572260.936      876757.592 3    683184.351 2
  23598937.095     1376794.180 2   1072843.667 1
  23709272.413     2414580.002 2   1881448.894 1
  24198750.750     1697488.866 2   1322706.347 1
  21316560.156     -380560.880 4   -296496.601 2
  22862834.193    -1020210.291 2   -794934.040 1
 91  4 15 22 12  0.0000000  0  6 19 11 18 16 02 06
  21576344.104      898188.905 3    699884.049 2
  23604882.576     1408045.176 2   1097195.050 1
  23720064.038     2471279.170 2   1925629.862 1
  24202756.884     1718516.350 2   1339091.350 1
  21314097.957     -393513.841 3   -306589.773 3
  22857816.566    -1046580.263 2   -815481.977 1
 91  4 15 22 12 15.0000000  0  6 19 11 18 16 02 06
  21580433.580      919696.341 3    716643.060 2
  23610857.443     1439441.585 2   1121659.748 1
  23730862.268     2528031.372 2   1969852.236 1
  24206769.902     1739659.601 2   1355566.498 1
  21311646.253     -406377.905 3   -316613.669 2
  22852806.731    -1072928.586 2   -836013.066 1
 91  4 15 22 12 30.0000000  0  6 19 11 18 16 02 06
  21584549.127      941281.023 3    733462.269 2
  23616855.990     1470984.080 2   1146238.278 1
  23741674.876     2584837.205 2   2014116.285 1
  24210817.698     1760919.260 2   1372132.294 1
  21309216.433     -419152.265 4   -326567.663 2
  22847797.201    -1099254.362 2   -856526.544 1
 91  4 15 22 12 45.0000000  0  6 19 11 18 16 02 06
  21588659.883      962946.466 3    750344.421 2
  23622886.018     1502675.884 2   1170933.167 1
  23752487.494     2641699.598 2   2058424.466 1
  24214887.682     1782298.404 2   1388791.293 1
  21306802.806     -431833.579 4   -336449.169 2
  22842781.974    -1125554.134 2   -877019.819 1
 91  4 15 22 13  0.0000000  0  6 19 11 18 16 02 06
  21592808.114      984690.484 3    767287.782 2
  23628945.719     1534514.326 2   1195742.303 2
  23763320.493     2698616.100 2   2102774.825 1
  24218987.340     1803794.506 2   1405541.573 1
  21304406.568     -444424.178 4   -346259.981 2
  22837785.933    -1151830.211 2   -897494.567 1
 91  4 15 22 13 15.0000000  0  6 19 11 18 16 02 06
  21596955.141     1006516.942 3    784295.384 2
  23635036.901     1566503.209 2   1220668.666 1
  23774165.786     2755590.352 2   2147170.183 1
  24223085.803     1825410.985 2   1422385.343 1
  21302028.915     -456920.253 4   -355997.136 3
  22832794.089    -1178078.597 2   -917947.801 1
 91  4 15 22 13 30.0000000  0  6 19 11 18 16 02 06
  21601124.050     1028423.930 3    801365.728 2
  23641150.271     1598640.419 2   1245710.617 1
  23785023.067     2812620.387 2   2191609.007 1
  24227229.541     1847145.980 2   1439321.636 1
  21299667.150     -469323.615 4   -365662.052 2
  22827804.338    -1204301.017 2   -938380.784 1
 91  4 15 22 13 45.0000000  0  6 19 11 18 16 02 06
  21605308.255     1050411.193 3    818498.640 2
  23647295.417     1630925.180 2   1270867.536 1
  23795880.950     2869705.377 2   2236090.612 1
  24231389.760     1868998.734 2   1456349.603 1
  21297326.064     -481634.626 4   -375255.003 2
  22822815.792    -1230497.891 2   -958793.807 2
 91  4 15 22 14  0.0000000  0  6 19 11 18 16 02 06
  21609514.647     1072478.273 3    835693.747 2
  23653464.846     1663356.735 2   1296138.849 1
  23806757.723     2926844.249 2   2280614.646 1
  24235560.772     1890968.285 2   1473468.645 1
  21295000.875     -493853.824 4   -384776.402 3
  22817839.540    -1256669.687 2   -979187.340 1
 91  4 15 22 14 15.0000000  0  6 19 11 18 16 02 06
  21613721.633     1094627.222 3    852952.646 2
  23659667.849     1695937.005 2   1321526.023 1
  23817637.192     2984038.934 2   2325181.862 1
  24239769.258     1913056.488 2   1490680.107 1
  21292695.177     -505979.446 4   -394224.893 3
  22812864.779    -1282814.229 2   -999559.636 1
 91  4 15 22 14 30.0000000  0  6 19 11 18 16 02 06
  21617951.103     1116857.162 3    870274.649 2
  23665890.047     1728664.544 2   1347027.960 1
  23828530.150     3041288.123 2   2369791.389 1
  24243996.329     1935262.029 2   1507983.089 2
  21290403.257     -518012.474 4   -403601.224 3
  22807892.122    -1308932.574 2  -1019911.523 1
 91  4 15 22 14 45.0000000  0  6 19 11 18 16 02 06
  21622198.861     1139164.792 3    887657.203 2
  23672149.710     1761536.031 2   1372642.065 1
  23839435.106     3098588.310 2   2414440.682 1
  24248237.195     1957581.497 2   1525374.734 1
  21288128.133     -529956.212 4   -412907.976 3
  22802928.765    -1335027.734 2  -1040245.313 1
 91  4 15 22 15  0.0000000  0  6 19 11 18 16 02 06
  21626461.313     1161553.315 3    905102.765 2
  23678430.366     1794554.134 2   1398370.403 1
  23850351.744     3155942.269 2   2459131.948 1
  24252514.636     1980017.520 2   1542857.347 1
  21285876.095     -541807.651 4   -422142.821 3
  22797968.096    -1361096.774 2  -1060558.809 2
 91  4 15 22 15 15.0000000  0  6 19 11 18 16 02 06
  21630734.854     1184021.953 3    922610.767 2
  23684738.001     1827717.657 2   1424212.089 1
  23861273.486     3213348.977 2   2503864.249 1
  24256808.864     2002569.276 2   1560429.980 1
  21283635.748     -553567.636 4   -431306.396 2
  22793008.927    -1387140.441 2  -1080852.485 1
 91  4 15 22 15 30.0000000  0  6 19 11 18 16 02 06
  21635025.487     1206571.907 3    940182.146 2
  23691087.306     1861027.480 2   1450167.764 1
  23872213.211     3270809.013 2   2548638.177 1
  24261120.472     2025237.192 2   1578093.128 1
  21281413.385     -565235.150 3   -440397.915 3
  22788064.748    -1413157.554 2  -1101125.453 2
 91  4 15 22 15 45.0000000  0  6 19 11 18 16 02 06
  21639329.304     1229203.088 3    957816.803 2
  23697445.903     1894483.318 2   1476237.203 2
  23883150.841     3328322.211 2   2593453.463 1
  24265460.272     2048020.843 2   1595846.523 1
  21279214.404     -576810.290 4   -449417.469 2
  22783109.785    -1439148.174 2  -1121377.817 1
 91  4 15 22 16  0.0000000  0  6 19 11 18 16 02 06
  21643655.012     1251913.889 3    975513.501 2
  23703841.975     1928083.276 2   1502418.947 1
  23894110.049     3385886.474 2   2638308.966 1
  24269808.159     2070918.116 2   1613688.479 1
  21277031.016     -588295.073 4   -458366.600 3
  22778171.600    -1465113.895 2  -1141610.772 1
 91  4 15 22 16 15.0000000  0  6 19 11 18 16 02 06
  21647989.411     1274705.268 3    993272.983 2
  23710267.119     1961827.971 2   1528713.462 1
  23905074.658     3443502.332 2   2683204.292 1
  24274200.719     2093929.910 2   1631619.598 1
  21274860.217     -599688.528 4   -467244.560 3
  22773238.816    -1491053.790 2  -1161823.592 1
 91  4 15 22 16 30.0000000  0  6 19 11 18 16 02 06
  21652344.191     1297579.522 3   1011097.054 2
  23716713.858     1995719.447 2   1555122.378 1
  23916053.358     3501171.852 2   2728141.449 1
  24278598.078     2117058.470 2   1649641.789 1
  21272711.310     -610988.387 4   -476049.609 2
  22768303.031    -1516965.453 2  -1182014.402 1
 91  4 15 22 16 45.0000000  0  6 19 11 18 16 02 06
  21656711.274     1320533.716 3   1028983.410 2
  23723191.178     2029754.322 2   1581643.009 1
  23927038.061     3558891.659 2   2773117.706 1
  24283017.014     2140299.984 2   1667751.924 1
  21270578.588     -622197.794 4   -484784.162 3
  22763379.836    -1542851.993 2  -1202185.625 1
 91  4 15 22 17  0.0000000  0  6 19 11 18 16 02 06
  21661092.736     1343569.245 3   1046933.135 2
  23729691.280     2063933.719 2   1608276.232 1
  23938028.147     3616662.956 2   2818134.132 1
  24287462.344     2163655.865 2   1685951.180 1
  21268461.755     -633315.386 4   -493447.171 3
  22758458.150    -1568711.904 2  -1222336.162 1
 91  4 15 22 17 15.0000000  0  6 19 11 18 16 02 06
  21665490.095     1366688.377 3   1064948.027 2
  23736221.657     2098259.423 2   1635023.514 1
  23949027.534     3674487.491 2   2863192.003 1
  24291935.847     2187127.682 2   1704240.766 1
  21266362.301     -644339.206 4   -502037.112 3
  22753539.449    -1594543.057 2  -1242464.264 1
 91  4 15 22 17 30.0000000  0  6 19 11 18 16 02 06
  21669906.640     1389887.995 3   1083025.617 2
  23742785.016     2132728.002 2   1661882.112 1
  23960041.012     3732361.785 2   2908288.708 1
  24296417.141     2210712.123 2   1722618.180 1
  21264283.841     -655272.361 4   -510556.400 3
  22748631.854    -1620348.464 2  -1262572.264 2
 91  4 15 22 17 45.0000000  0  6 19 11 18 16 02 06
  21674340.862     1413168.313 3   1101166.100 2
  23749368.154     2167339.454 2   1688852.024 1
  23971063.477     3790285.778 2   2953424.113 1
  24300925.117     2234409.209 2   1741083.345 1
  21262221.574     -666114.738 4   -519004.950 3
  22743720.647    -1646127.883 2  -1282660.053 1
 91  4 15 22 18  0.0000000  0  6 19 11 18 16 02 06
  21678787.684     1436531.123 3   1119370.850 2
  23755984.578     2202095.237 2   1715934.410 1
  23982099.736     3848260.922 2   2998599.355 1
  24305451.389     2258220.189 2   1759637.226 1
  21260174.585     -676864.570 4   -527381.395 2
  22738825.634    -1671879.516 2  -1302726.191 2
 91  4 15 22 18 15.0000000  0  6 19 11 18 16 02 06
  21683248.902     1459974.701 3   1137638.545 2
  23762628.574     2236993.202 2   1743127.580 1
  23993139.293     3906284.998 2   3043812.704 1
  24310008.531     2282143.025 2   1778278.266 1
  21258147.393     -687523.906 4   -535687.319 3
  22733924.933    -1697605.095 2  -1322772.003 1
 91  4 15 22 18 30.0000000  0  6 19 11 18 16 02 06
  21687721.201     1483500.206 3   1155970.062 2
  23769290.265     2272034.298 2   1770432.314 1
  24004187.846     3964359.210 2   3089065.176 1
  24314578.569     2306178.549 2   1797007.134 1
  21256134.580     -698091.374 4   -543921.658 3
  22729034.719    -1723303.424 2  -1342796.616 1
 91  4 15 22 18 45.0000000  0  6 19 11 18 16 02 06
  21692214.789     1507106.952 3   1174364.917 2
  23775988.827     2307217.439 2   1797847.698 1
  24015246.590     4022482.237 2   3134355.640 1
  24319178.280     2330325.491 2   1815822.823 1
  21254144.558     -708567.991 4   -552085.199 3
  22724156.789    -1748975.103 2  -1362800.414 1
 91  4 15 22 19  0.0000000  0  6 19 11 18 16 02 06
  21696723.070     1530796.381 3   1192824.182 2
  23782712.274     2342543.780 2   1825374.671 1
  24026320.621     4080654.919 2   3179684.840 1
  24323804.080     2354584.942 2   1834726.152 1
  21252166.532     -718952.563 4   -560177.021 3
  22719273.774    -1774618.859 2  -1382782.501 1
 91  4 15 22 19 15.0000000  0  6 19 11 18 16 02 06
  21701247.536     1554566.979 3   1211346.708 2
  23789454.000     2378011.416 2   1853011.750 1
  24037398.254     4138875.669 2   3225051.483 1
  24328429.574     2378955.326 2   1853715.918 1
  21250204.386     -729246.577 3   -568198.283 3
  22714406.044    -1800236.152 2  -1402743.948 2
 91  4 15 22 19 30.0000000  0  6 19 11 18 16 02 06
  21705784.602     1578419.753 3   1229933.238 2
  23796233.514     2413620.961 2   1880759.416 1
  24048484.282     4197145.015 2   3270455.952 1
  24333094.053     2403437.305 2   1872792.709 1
  21248263.834     -739449.088 3   -576148.227 3
  22709532.320    -1825826.012 2  -1422684.013 1
 91  4 15 22 19 45.0000000  0  6 19 11 18 16 02 06
  21710342.939     1602354.145 3   1248583.382 2
  23803034.004     2449371.682 2   1908617.063 1
  24059583.493     4255462.181 2   3315897.758 1
  24337756.725     2428030.130 1   1891955.776 1
  21246341.867     -749560.680 4   -584027.341 3
  22704665.786    -1851388.821 2  -1442603.022 1
 91  4 15 22 20  0.0000000  0  6 19 11 18 16 02 06
  21714912.976     1626369.458 3   1267296.592 2
  23809868.670     2485262.672 2   1936584.059 1
  24070695.905     4313826.116 2   3361375.954 1
  24342474.557     2452732.384 2   1911204.138 1
  21244435.187     -759582.064 4   -591836.155 2
  22699804.653    -1876925.052 2  -1462501.299 2
 91  4 15 22 20 15.0000000  0  6 19 11 18 16 02 06
  21719498.606     1650467.018 3   1286073.861 2
  23816727.024     2521294.608 2   1964660.848 1
  24081802.017     4372237.935 2   3406891.479 1
  24347194.186     2477544.784 2   1930538.343 1
  21242545.293     -769512.525 4   -599574.118 3
  22694950.709    -1902433.771 2  -1482378.142 1
 91  4 15 22 20 30.0000000  0  6 19 11 18 16 02 06
  21724100.420     1674647.592 3   1304915.840 2
  23823617.452     2557468.062 2   1992847.899 1
  24092934.209     4430697.966 2   3452444.536 1
  24351936.606     2502468.112 2   1949959.031 1
  21240672.187     -779351.235 4   -607240.594 3
  22690102.166    -1927914.003 2  -1502232.796 1
 91  4 15 22 20 45.0000000  0  6 19 11 18 16 02 06
  21728710.628     1698909.344 3   1323821.063 2
  23830522.573     2593780.585 3   2021143.310 1
  24104060.704     4489203.893 2   3498033.418 1
  24356702.705     2527500.037 2   1969464.355 1
  21238816.470     -789100.346 4   -614837.261 3
  22685259.024    -1953367.814 2  -1522066.858 2
 91  4 15 22 21  0.0000000  0  6 19 11 18 16 02 06
  21733349.315     1723253.408 3   1342790.446 2
  23837456.774     2630233.151 2   2049547.877 1
  24115201.289     4547756.689 2   3543658.726 1
  24361478.402     2552641.247 2   1989054.691 1
  21236979.948     -798758.657 4   -622363.155 3
  22680418.874    -1978793.926 2  -1541879.329 1
 91  4 15 22 21 15.0000000  0  6 19 11 18 16 02 06
  21737992.800     1747678.820 3   1361823.211 2
  23844419.752     2666824.509 2   2078060.582 1
  24126348.776     4606354.914 2   3589319.537 1
  24366283.171     2577890.431 2   2008729.307 1
  21235159.305     -808327.108 4   -629819.060 3
  22675587.415    -2004193.188 2  -1561670.856 1
 91  4 15 22 21 30.0000000  0  6 19 11 18 16 02 06
  21742660.873     1772187.025 3   1380920.464 2
  23851410.309     2703555.780 2   2106682.307 1
  24137516.645     4664999.562 2   3635016.484 1
  24371118.827     2603248.933 2   2028488.982 1
  21233354.551     -817804.469 3   -637203.959 3
  22670762.256    -2029564.160 2  -1581440.375 2
 91  4 15 22 21 45.0000000  0  6 19 11 18 16 02 06
  21747340.027     1796777.444 3   1400081.799 2
  23858421.257     2740426.162 2   2135412.431 1
  24148684.811     4723689.942 2   3680749.043 1
  24375957.476     2628715.744 2   2048333.178 1
  21231569.289     -827191.296 4   -644518.321 3
  22665932.602    -2054907.441 2  -1601188.312 1
 91  4 15 22 22  0.0000000  0  6 19 11 18 16 02 06
  21752039.274     1821449.414 3   1419306.677 2
  23865466.677     2777434.372 2   2164249.957 1
  24159861.378     4782424.752 2   3726516.228 1
  24380828.504     2654289.811 2   2068260.900 1
  21229800.213     -836488.600 4   -651762.932 2
  22661126.333    -2080223.692 2  -1620915.157 1
 91  4 15 22 22 15.0000000  0  6 19 11 18 16 02 06
  21756745.415     1846201.130 3   1438593.693 2
  23872531.887     2814578.342 2   2193193.259 1
  24171056.225     4841201.847 2   3772316.361 1
  24385712.724     2679968.839 2   2088270.527 1
  21228045.532     -845698.380 3   -658939.332 3
  22656305.064    -2105514.704 2  -1640622.372 1
 91  4 15 22 22 30.0000000  0  6 19 11 18 16 02 06
  21761467.749     1871034.575 3   1457944.404 2
  23879636.970     2851859.952 2   2222243.807 1
  24182248.376     4900023.095 2   3818150.951 1
  24390617.029     2705754.600 2   2108363.579 1
  21226309.427     -854818.522 4   -666045.884 3
  22651496.692    -2130778.307 2  -1660308.219 1
 91  4 15 22 22 45.0000000  0  6 19 11 18 16 02 06
  21766207.769     1895950.002 3   1477358.989 2
  23886753.448     2889278.855 2   2251401.342 1
  24193445.326     4958888.518 2   3864019.903 1
  24395545.319     2731646.848 2   2128539.245 1
  21224594.019     -863849.081 4   -673082.637 2
  22646696.119    -2156014.396 2  -1679972.632 2
 91  4 15 22 23  0.0000000  0  6 19 11 18 16 02 06
  21770969.070     1920948.197 3   1496838.074 2
  23893898.701     2926835.558 2   2280666.262 1
  24204658.766     5017798.184 2   3909923.317 1
  24400493.390     2757646.035 2   2148798.267 1
  21222888.199     -872789.230 4   -680048.938 3
  22641903.338    -2181222.161 2  -1699614.962 1
 91  4 15 22 23 15.0000000  0  6 19 11 18 16 02 06
  21775734.576     1946028.228 3   1516380.922 2
  23901075.129     2964528.587 2   2310037.398 1
  24215876.394     5076750.863 2   3955860.360 1
  24405459.154     2783750.619 2   2169139.394 1
  21221207.263     -881640.196 4   -686945.748 3
  22637109.057    -2206402.512 2  -1719235.948 1
 91  4 15 22 23 30.0000000  0  6 19 11 18 16 02 06
  21780527.052     1971190.808 3   1535988.102 2
  23908268.947     3002358.489 2   2339515.210 1
  24227106.927     5135747.264 2   4001831.369 1
  24410449.795     2809961.337 2   2189563.139 1
  21219539.519     -890401.283 4   -693772.529 3
  22632318.073    -2231554.792 2  -1738835.025 2
 91  4 15 22 23 45.0000000  0  6 19 11 18 16 02 06
  21785330.032     1996435.301 3   1555659.104 2
  23915496.644     3040324.264 2   2369098.878 1
  24238338.044     5194786.083 2   4047835.461 1
  24415456.629     2836276.951 2   2210068.788 1
  21217887.359     -899073.311 4   -700529.902 3
  22627541.783    -2256679.378 2  -1758412.565 2
 91  4 15 22 24  0.0000000  0  6 19 11 18 16 02 06
  21790156.989     2021759.915 3   1575392.531 2
  23922744.426     3078423.808 2   2398786.796 1
  24249582.659     5253865.256 2   4093871.048 1
  24420481.157     2862695.451 2   2230654.559 1
  21216256.793     -907658.012 4   -707219.235 3
  22622760.092    -2281778.258 2  -1777970.042 2
 91  4 15 22 24 15.0000000  0  6 19 11 18 16 02 06
  21794986.346     2047165.435 3   1595189.009 2
  23930020.695     3116657.560 2   2428579.243 1
  24260824.578     5312985.295 2   4139938.367 1
  24425531.154     2889217.315 2   2251320.708 1
  21214635.511     -916154.745 4   -713840.016 3
  22617995.484    -2306850.553 2  -1797506.854 1
 91  4 15 22 24 30.0000000  0  6 19 11 18 16 02 06
  21799841.188     2072653.308 3   1615049.670 2
  23937320.034     3155026.558 2   2458477.105 1
  24272088.083     5372147.150 2   4186038.315 1
  24430597.048     2915843.520 2   2272068.381 1
  21213037.019     -924562.270 4   -720391.294 3
  22613228.792    -2331894.620 2  -1817021.636 2
 91  4 15 22 24 45.0000000  0  6 19 11 18 16 02 06
  21804702.321     2098221.636 3   1634973.010 2
  23944645.470     3193528.698 2   2488478.733 1
  24283357.582     5431348.680 2   4232169.207
  24435680.934     2942571.854 2   2292895.499 1
  21211454.118     -932882.451 4   -726874.518 3
  22608464.786    -2356912.521 2  -1836516.000 2
 91  4 15 22 25  0.0000000  0  6 19 11 18 16 02 06
  21809592.536     2123871.738 3   1654960.061 2
  23951999.672     3232164.972 2   2518584.861 1
  24294627.683     5490590.929 2   4278331.794 1
  24440786.998     2969403.020 2   2313802.731 1
  21209889.200     -941114.256 3   -733288.866 2
  22603712.176    -2381902.718 2  -1855988.815 1
 91  4 15 22 25 15.0000000  0  6 19 11 18 16 02 06
  21814480.647     2149603.687 3   1675010.896 2
  23959373.070     3270934.881 2   2548795.120 1
  24305909.170     5549873.438 2   4324525.763 1
  24445922.143     2996336.714 2   2334789.935 1
  21208339.272     -949257.788 4   -739634.432 3
  22598958.370    -2406865.316 2  -1875440.133 2
 91  4 15 22 25 30.0000000  0  6 19 11 18 16 02 06
  21819400.544     2175416.836 3   1695125.010 2
  23966781.839     3309837.690 2   2579108.947 1
  24317199.356     5609195.391 2   4370750.434 1
  24451061.486     3023372.217 2   2355856.389 1
  21206804.638     -957313.684 4   -745911.718 3
  22594216.553    -2431800.707 2  -1894870.246 2
 91  4 15 22 25 45.0000000  0  6 19 11 18 16 02 06
  21824323.433     2201310.763 3   1715302.057 2
  23974213.101     3348872.460 2   2609525.611 1
  24328491.636     5668556.167 2   4417005.392 1
  24456219.412     3050508.458 2   2377001.407 1
  21205289.480     -965282.618 4   -752121.250 3
  22589476.829    -2456709.433 2  -1914279.566 1
 91  4 15 22 26  0.0000000  0  6 19 11 18 16 02 06
  21829263.119     2227284.168 3   1735541.043 2
  23981662.338     3388037.443 2   2640043.762 1
  24339789.317     5727953.835 2   4463289.119 1
  24461411.515     3077743.887 2   2398223.785 1
  21203791.117     -973166.079 4   -758264.164 3
  22584740.709    -2481592.660 2  -1933669.034 1
 91  4 15 22 26 15.0000000  0  6 19 11 18 16 02 06
  21834220.787     2253341.877 3   1755845.740 2
  23989143.359     3427337.117 2   2670666.813 1
  24351107.677     5787393.043 2   4509605.167 1
  24466614.114     3105083.071 2   2419527.021 1
  21202306.548     -980959.165 4   -764336.660 3
  22580007.887    -2506445.649 2  -1953034.931 1
 91  4 15 22 26 30.0000000  0  6 19 11 18 16 02 06
  21839198.235     2279481.942 3   1776214.586 2
  23996644.466     3466769.303 2   2701393.149 1
  24362426.647     5846871.294 2   4555951.650 1
  24471829.601     3132523.463 2   2440909.379 1
  21200839.962     -988663.959 4   -770340.366 3
  22575287.656    -2531270.343 2  -1972378.764 1
 91  4 15 22 26 45.0000000  0  6 19 11 18 16 02 06
  21844184.983     2305701.495 3   1796645.372 2
  24004175.553     3506330.705 2   2732220.169 1
  24373756.096     5906385.502 2   4602326.189 1
  24477067.275     3160061.878 1   2462367.757 1
  21199390.172     -996283.581 4   -776277.704 3
  22570566.526    -2556069.427 2  -1991702.666 2
 91  4 15 22 27  0.0000000  0  6 19 11 18 16 02 06
  21849188.825     2331999.693 3   1817137.431 2
  24011725.529     3546020.108 2   2763146.961 1
  24385084.961     5965934.352 2   4648727.726 1
  24482332.232     3187696.958 1   2483901.341 1
  21197955.057    -1003819.094 3   -782149.494 3
  22565851.686    -2580843.804 2  -2011007.297 2
 91  4 15 22 27 15.0000000  0  6 19 11 18 16 02 06
  21854209.444     2358377.799 3   1837691.753 2
  24019308.774     3585838.570 2   2794174.252 1
  24396427.306     6025519.058 2   4695157.187 1
  24487614.274     3215429.951 2   2505511.361 1
  21196537.340    -1011269.106 4   -787954.653 3
  22561144.647    -2605591.978 2  -2030291.506 2
 91  4 15 22 27 30.0000000  0  6 19 11 18 16 02 06
  21859247.758     2384837.354 3   1858309.550 2
  24026902.524     3625787.301 2   2825303.088 1
  24407766.954     6085140.782 2   4741615.493 1
  24492899.918     3243262.140 2   2527198.664 1
  21195136.114    -1018632.206 4   -793692.095 3
  22556437.302    -2630312.398 2  -2049554.100 1
 91  4 15 22 27 45.0000000  0  6 19 11 18 16 02 06
  21864295.365     2411376.669 3   1878989.496 2
  24034531.341     3665864.259 2   2856531.853 1
  24419118.600     6144797.431 2   4788100.965 1
  24498220.935     3271191.318 2   2548961.501 1
  21193752.574    -1025910.063 4   -799363.103 2
  22551739.259    -2655006.916 2  -2068796.512 2
 91  4 15 22 28  0.0000000  0  5 19 11 18 02 06
  21869357.359     2437995.788 3   1899731.645 2
  24042183.540     3706068.990 2   2887860.147 1
  24430480.428     6204488.445 2   4834613.266 1
  21192382.217    -1033102.910 4   -804967.896 3
  22547047.506    -2679675.362 2  -2088018.608 2
 91  4 15 22 28 15.0000000  0  5 19 11 18 02 06
  21874440.337     2464694.387 3   1920535.707 2
  24049861.226     3746400.747 2   2919287.440 1
  24441844.665     6264213.438 2   4881152.006 1
  21191030.758    -1040211.178 4   -810506.762 3
  22542350.954    -2704317.977 2  -2107220.565 2
 91  4 15 22 28 30.0000000  0  5 19 11 18 02 06
  21879538.906     2491471.435 3   1941400.907 2
  24057556.004     3786858.179 2   2950812.693 1
  24453225.688     6323970.929 2   4927716.107 1
  21189693.679    -1047236.110 4   -815980.690 3
  22537671.495    -2728935.787 2  -2126403.215 1
 91  4 15 22 28 45.0000000  0  5 19 11 18 02 06
  21884644.980     2518324.842 3   1962325.582 2
  24065281.949     3827438.826 2   2982433.906 1
  24464596.511     6383758.133 2   4974303.385 1
  21188372.497    -1054180.081 4   -821391.549 3
  22532986.635    -2753530.996 2  -2145568.232 2
 91  4 15 22 29  0.0000000  0  5 19 11 18 02 06
  21889774.122     2545260.278 3   1983314.204 2
  24073024.689     3868148.105 2   3014155.378 1
  24475978.730     6443581.141 2   5020918.505 1
  21187066.898    -1061037.261 4   -826734.768 2
  22528316.468    -2778097.617 2  -2164711.007 2
 91  4 15 22 29 15.0000000  0  5 19 11 18 02 06
  21894913.464     2572276.150 3   2004365.490 2
  24080789.914     3908983.882 2   3045975.410 1
  24487368.749     6503437.646 2   5067559.768 1
  21185780.189    -1067809.523 4   -832011.817 3
  22523648.404    -2802637.328 2  -2183832.784 1
 91  4 15 22 29 30.0000000  0  5 19 11 18 02 06
  21900070.798     2599371.558 3   2025478.759 2
  24088587.517     3949945.008 2   3077893.115 1
  24498753.070     6563326.228 2   5114225.999
  21184506.672    -1074497.988 4   -837223.571 3
  22518982.731    -2827151.138 3  -2202934.372 2
 91  4 15 22 29 45.0000000  0  6 19 11 18 16 02 06
  21905237.720     2626545.842 3   2046653.481 2
  24096412.998     3991030.584 2   3109907.789 1
  24510158.367     6623246.072 2   5160916.714 1
  24541391.351      174252.57512    135762.471 1
  21183249.340    -1081103.172 4   -842370.422 3
  22514327.554    -2851639.409 2  -2222016.068 2
 91  4 15 22 30  0.0000000  0  6 19 11 18 16 02 06
  21910424.431     2653798.379 3   2067889.199 2
  24104248.372     4032239.455 2   3142018.530 2
  24521571.769     6683196.097 2   5207630.785 1
  24546857.466      168545.20112    131315.273 1
  21182008.202    -1087625.935 4   -847453.051 3
  22509666.382    -2876102.753 2  -2241078.348 2
 91  4 15 22 30 15.0000000  0  6 19 11 18 16 02 06
  21915623.426     2681129.981 3   2089186.518 2
  24112117.932     4073572.067 2   3174225.705 1
  24532991.462     6743177.067 2   5254368.964 1
  24552361.954      197416.405 2    153812.186 1
  21180782.952    -1094065.498 4   -852470.850 3
  22505011.205    -2900540.475 2  -2260120.678 1
 91  4 15 22 30 30.0000000  0  6 19 11 18 16 02 06
  21920843.415     2708539.166 3   2110544.280 2
  24120006.364     4115026.776 2   3206528.038 1
  24544400.362     6803187.079 2   5301129.927 1
  24557877.532      226378.357 2    176379.869 1
  21179571.488    -1100423.275 4   -857424.922 3
  22500367.720    -2924953.665 2  -2279143.851 1
 91  4 15 22 30 45.0000000  0  6 19 11 18 16 02 06
  21926071.500     2736027.993 3   2131964.107 2
  24127923.283     4156605.285 2   3238926.785 2
  24555817.961     6863227.776 2   5347914.677 1
  24563405.412      255432.664 2    199019.819 1
  21178377.117    -1106697.456 4   -862313.854 3
  22495726.634    -2949340.371 2  -2298146.385 1
 91  4 15 22 31  0.0000000  0  6 19 11 18 16 02 06
  21931316.966     2763595.142 3   2153444.958 2
  24135850.097     4198305.743 2   3271420.622 1
  24567264.039     6923297.670 2   5394722.636 1
  24568940.778      284577.331 2    221729.741 1
  21177199.829    -1112889.560 4   -867138.829 3
  22491096.637    -2973701.856 3  -2317129.318 2
 91  4 15 22 31 15.0000000  0  6 19 11 18 16 02 06
  21936576.226     2791240.971 3   2174987.121 2
  24143813.783     4240128.031 2   3304009.384 1
  24578698.721     6983396.350 2   5441552.622 1
  24574503.427      313812.375 2    244510.308 1
  21176040.236    -1118999.625 4   -871899.872 3
  22486459.748    -2998037.953 2  -2336092.430 2
 91  4 15 22 31 30.0000000  0  6 19 11 18 16 02 06
  21941857.368     2818966.301 3   2196591.230 2
  24151796.961     4282072.780 2   3336693.532 1
  24590155.287     7043524.614 2   5488405.616 1
  24580088.256      343138.366 2    267361.714 1
  21174887.527    -1125026.840 4   -876596.358 3
  22481838.747    -3022347.462 2  -2355034.835 2
 91  4 15 22 31 45.0000000  0  6 19 11 18 16 02 06
  21947147.507     2846771.460 3   2218257.549 2
  24159797.816     4324139.899 2   3369473.054 1
  24601598.668     7103682.416 2   5535281.697 1
  24585694.374      372555.460 2    290283.952 1
  21173761.508    -1130970.771 4   -881227.949 3
  22477220.442    -3046630.040 3  -2373956.251 1
 91  4 15 22 32  0.0000000  0  6 19 11 18 16 02 06
  21952450.837     2874654.384 2   2239984.484 2
  24167825.361     4366327.145 2   3402346.158 1
  24613044.746     7163867.419 2   5582178.915 1
  24591308.589      402061.044 2    313275.168 1
  21172644.485    -1136833.671 4   -885796.405 3
  22472600.645    -3070887.834 3  -2392858.371 2
 91  4 15 22 32 15.0000000  0  6 19 11 18 16 02 06
  21957774.550     2902615.562 3   2261772.371 1
  24175876.586     4408634.554 2   3435312.977 1
  24624511.808     7224079.645 2   5629097.328 1
  24596928.798      431654.933 2    336335.194 1
  21171540.645    -1142615.087 4   -890301.362 3
  22467987.436    -3095120.166 3  -2411740.627 2
 91  4 15 22 32 30.0000000  0  6 19 11 18 16 02 06
  21963109.352     2930657.634 3   2283623.292 2
  24183949.703     4451064.215 2   3468374.960 1
  24635970.170     7284321.442 2   5676038.843 1
  24602581.386      461339.565 2    359466.086 1
  21170460.494    -1148312.561 4   -894740.919 3
  22463380.823    -3119324.428 3  -2430601.011 2
 91  4 15 22 32 45.0000000  0  6 19 11 18 16 02 06
  21968459.152     2958777.452 3   2305534.790 2
  24192047.092     4493612.647 2   3501529.560 1
  24647435.138     7344589.149 2   5723000.521 1
  24608248.065      491111.396 2    382665.051 1
  21169390.839    -1153929.550 4   -899117.751 3
  22458780.509    -3143503.840 3  -2449442.062 2
 91  4 15 22 33  0.0000000  0  6 19 11 18 16 02 06
  21973825.740     2986977.125 3   2327508.534 2
  24200170.867     4536281.700 2   3534778.114 1
  24658905.497     7404884.909 2   5769984.079 1
  24613933.032      520972.202 1    405933.233 1
  21168337.064    -1159463.729 4   -903430.050 3
  22454183.494    -3167655.917 2  -2468261.772 1
 91  4 15 22 33 15.0000000  0  5 19 11 18 02 06
  21979203.417     3015252.264 3   2349541.071 2
  24208308.139     4579066.738 2   3568117.046 1
  24670384.251     7465204.061 2   5816985.854 1
  21167300.984    -1164919.562 4   -907681.313 3
  22449593.668    -3191784.881 2  -2487063.507 2
 91  4 15 22 33 30.0000000  0  5 19 11 18 02 06
  21984602.375     3043607.343 3   2371635.896 2
  24216476.882     4621971.538 2   3601549.284 1
  24681865.403     7525550.184 2   5864008.628 1
  21166278.087    -1170293.051 4   -911868.401 3
  22445004.749    -3215886.729 3  -2505844.076 1
 91  4 15 22 33 45.0000000  0  5 19 11 18 02 06
  21990017.832     3072041.101 3   2393792.025 1
  24224652.519     4664994.717 2   3635073.786 1
  24693347.751     7585922.031 2   5911051.474 1
  21165270.189    -1175585.262 4   -915992.153 3
  22440427.217    -3239962.123 2  -2524604.074 1
 91  4 15 22 34  0.0000000  0  5 19 11 18 02 06
  21995441.970     3100552.344 2   2416008.547 2
  24232866.537     4708134.632 2   3668689.285 1
  24704845.988     7646318.039 2   5958113.124 1
  21164276.678    -1180797.815 4   -920053.849 3
  22435847.590    -3264012.532 2  -2543344.573 2
 91  4 15 22 34 15.0000000  0  5 19 11 18 02 06
  22000877.809     3129145.024 2   2438288.515 2
  24241104.828     4751394.928 2   3702398.579 1
  24716350.829     7706742.007 2   6005196.541 1
  21163300.853    -1185926.702 4   -924050.346 3
  22431278.748    -3288033.903 2  -2562062.468 2
 91  4 15 22 34 30.0000000  0  5 19 11 18 02 06
  22006340.024     3157813.980 2   2460627.911 2
  24249361.120     4794770.079 2   3736197.308 1
  24727860.757     7767188.279 2   6052297.331 1
  21162339.416    -1190977.252 4   -927985.789 3
  22426713.509    -3312031.265 3  -2580761.625 1
 91  4 15 22 34 45.0000000  0  5 19 11 18 02 06
  22011805.842     3186558.952 2   2483026.547 2
  24257635.088     4838259.433 2   3770085.055 1
  24739357.798     7827656.212 2   6099415.043 1
  21161393.274    -1195949.832 4   -931860.494 3
  22422150.068    -3336004.772 3  -2599442.229 1
 91  4 15 22 35  0.0000000  0  5 19 11 18 02 06
  22017290.550     3215380.656 3   2505484.989 2
  24265927.048     4881863.343 2   3804062.052 1
  24750864.437     7888146.187 2   6146549.914 1
  21160459.417    -1200843.750 4   -935673.896 3
  22417584.532    -3359953.416 2  -2618103.444 2
 91  4 15 22 35 15.0000000  0  6 19 11 18 16 02 06
  22022790.239     3244281.067 2   2528004.740 2
  24274250.487     4925583.269 2   3838129.499 1
  24762390.253     7948659.861 2   6193703.264 1
  24665806.422      187530.13212    146108.331 1
  21159547.747    -1205657.174 4   -939424.579 3
  22413039.676    -3383875.471 2  -2636743.933 2
 91  4 15 22 35 30.0000000  0  5 19 11 18 02 06
  22028309.115     3273258.674 3   2550584.638 2
  24282591.308     4969417.469 2   3872285.943 1
  24773903.785     8009195.301 2   6240873.674 1
  21158649.271    -1210391.896 4   -943113.939 3
  22408487.629    -3407772.392 2  -2655364.838 2
 91  4 15 22 35 45.0000000  0  6 19 11 18 16 02 06
  22033834.595     3302314.382 3   2573225.405 2
  24290953.722     5013366.494 2   3906531.900 1
  24785436.503     8069753.423 2   6288061.642 1
  24677506.714      163054.72312    127036.686 1
  21157762.485    -1215046.826 4   -946741.126 3
  22403949.369    -3431643.150 3  -2673965.357 2
 91  4 15 22 36  0.0000000  0  6 19 11 18 16 02 06
  22039378.957     3331448.481 2   2595927.252 2
  24299336.519     5057430.161 2   3940867.166 1
  24796962.921     8130333.845 2   6335267.047 1
  24683397.637      193930.371 2    151095.423 1
  21156891.589    -1219622.058 4   -950306.199 2
  22399408.115    -3455487.359 3  -2692545.190 2
 91  4 15 22 36 15.0000000  0  6 19 11 18 16 02 06
  22044937.410     3360660.985 2   2618690.191 2
  24307747.794     5101608.250 2   3975291.565 1
  24808489.942     8190936.651 2   6382489.815 1
  24689285.864      224888.614 2    175218.566 1
  21156032.384    -1224117.438 4   -953809.064 3
  22394878.545    -3479304.830 3  -2711104.211 2
 91  4 15 22 36 30.0000000  0  6 19 11 18 16 02 06
  22050512.650     3389948.208 2   2641511.368 2
  24316173.161     5145896.646 2   4009801.970 1
  24820034.046     8251557.433 2   6429726.670 1
  24695192.676      255925.125 2    199402.734 1
  21155188.770    -1228537.044 4   -957252.879 3
  22390346.889    -3503099.257 2  -2729645.247 2
 91  4 15 22 36 45.0000000  0  6 19 11 18 16 02 06
  22056098.979     3419311.910 2   2664392.134 2
  24324621.012     5190296.754 2   4044399.389 1
  24831565.263     8312197.637 2   6476978.556 1
  24701105.184      287041.464 2    223649.087 1
  21154365.539    -1232879.141 4   -960636.295 3
  22385828.713    -3526868.792 2  -2748166.888 2
 91  4 15 22 37  0.0000000  0  6 19 11 18 16 02 06
  22061701.799     3448752.845 2   2687333.074 2
  24333094.053     5234808.950 2   4079084.190 1
  24843103.374     8372857.960 1   6524246.352 1
  24707033.879      318238.074 2    247957.948 1
  21153554.296    -1237143.041 4   -963958.786 3
  22381310.538    -3550612.560 3  -2766668.457 1
 91  4 15 22 37 15.0000000  0  7 19 11 18 16 15 02 06
  22067321.415     3478269.544 2   2710333.068 1
  24341582.074     5279431.412 2   4113854.870 1
  24854649.284     8433536.723 1   6571528.426 1
  24712989.856      349513.303 2    272328.147 1
  25025691.973           0.798 2         0.340 1
  21152757.152    -1241330.329 4   -967221.584 3
  22376792.965    -3574332.021 2  -2785151.078 2
 91  4 15 22 37 30.0000000  0  7 19 11 18 16 15 02 06
  22072950.314     3507865.461 2   2733394.792 2
  24350098.574     5324167.243 2   4148713.926 1
  24866192.193     8494236.773 1   6618826.988 1
  24718960.823      380870.020 2    296761.835 1
  25020650.064      -26534.640 2    -20676.550 1
  21151976.491    -1245437.585 4   -970421.998 3
  22372284.090    -3598023.590 2  -2803611.988 2
 91  4 15 22 37 45.0000000  0  7 19 11 18 16 15 02 06
  22078590.312     3537539.434 2   2756517.322 2
  24358633.371     5369014.855 2   4183660.076 1
  24877756.391     8554956.507 1   6666140.879 1
  24724945.576      412306.726 2    321257.820 1
  25015611.453      -53010.162 2    -41306.690 1
  21151206.622    -1249466.166 4   -973561.115 3
  22367783.304    -3621688.201 3  -2822051.883 2
 91  4 15 22 38  0.0000000  0  7 19 11 18 16 15 02 06
  22084260.882     3567288.952 2   2779698.709 2
  24367191.542     5413971.417 2   4218691.053 1
  24889325.379     8615693.214 2   6713468.012 1
  24730942.623      443820.900 2    345814.163 1
  25010607.019      -79427.834 2    -61891.729 1
  21150458.339    -1253418.651 4   -976640.942 3
  22363289.716    -3645328.479 3  -2840472.825 2
 91  4 15 22 38 15.0000000  0  7 19 11 18 16 15 02 06
  22089932.953     3597113.669 2   2802938.691 1
  24375760.812     5459036.259 2   4253806.457 1
  24900882.074     8676446.273 2   6760807.937 1
  24736947.469      475411.481 2    370430.082 1
  25005577.395     -105787.648 2    -82431.738 1
  21149718.153    -1257295.490 4   -979661.823 3
  22358789.828    -3668944.744 2  -2858875.026 2
 91  4 15 22 38 30.0000000  0  7 19 11 18 16 15 02 06
  22095622.422     3627013.585 2   2826237.298 2
  24384358.857     5504208.933 2   4289005.940 1
  24912433.385     8737215.361 2   6808160.361 1
  24742979.294      507077.765 2    395104.965 1
  25000572.062     -132089.370 2   -102926.490 1
  21148993.856    -1261096.917 4   -982623.936 3
  22354301.039    -3692536.812 3  -2877258.384 2
 91  4 15 22 38 45.0000000  0  7 19 11 18 16 15 02 06
  22101326.567     3656986.786 2   2849593.003 2
  24392976.691     5549487.111 2   4324287.572 1
  24924006.570     8797998.232 2   6855523.488 1
  24749019.809      538817.530 2    419837.111 1
  24995567.331     -158334.626 2   -123377.214 1
  21148285.447    -1264824.881 4   -985528.811 3
  22349814.945    -3716106.569 3  -2895624.377 2
 91  4 15 22 39  0.0000000  0  7 19 11 18 16 15 02 06
  22107042.709     3687034.635 2   2873006.856 2
  24401608.319     5594871.786 2   4359652.177 1
  24935576.161     8858795.873 2   6902898.186
  24755075.314      570631.753 2    444627.237 1
  24990592.876     -184521.757 2   -143782.715
  21147589.331    -1268478.196 4   -988375.523 3
  22345336.042    -3739652.514 3  -2913971.813 2
 91  4 15 22 39 15.0000000  0  7 19 11 18 16 15 02 06
  22112778.639     3717158.442 3   2896479.918 2
  24410264.526     5640363.869 2   4395100.502 1
  24947160.444     8919609.168 2   6950285.048 1
  24761148.513      602521.325 2    469476.117 1
  24985619.616     -210649.175 2   -164141.570 1
  21146913.292    -1272055.803 4   -991163.226 3
  22340860.148    -3763173.308 2  -2932299.637 2
 91  4 15 22 39 30.0000000  0  7 19 11 18 16 15 02 06
  22118518.766     3747356.896 2   2920011.130 2
  24418944.412     5685961.781 2   4430631.302 1
  24958731.526     8980436.512 2   6997682.858 1
  24767224.705      634484.808 2    494382.616 1
  24980661.346     -236717.718 2   -184454.632 1
  21146243.562    -1275558.977 4   -993892.947 3
  22336392.037    -3786670.090 3  -2950608.738 2
 91  4 15 22 39 45.0000000  0  7 19 11 18 16 15 02 06
  22124284.972     3777630.012 2   2943600.533 2
  24427641.095     5731665.238 2   4466244.370 1
  24970303.822     9041277.881 2   7045091.616 1
  24773322.186      666522.001 2    519346.461 1
  24975707.578     -262726.888 2   -204721.394 1
  21145595.408    -1278987.708 4   -996564.650 3
  22331926.631    -3810142.738 3  -2968899.049 2
 91  4 15 22 40  0.0000000  0  7 19 11 18 16 15 02 06
  22130056.885     3807978.531 2   2967248.695 2
  24436365.654     5777474.581 2   4501939.870 1
  24981886.901     9102133.699 2   7092511.602 1
  24779434.954      698633.020 2    544367.930 1
  24970773.293     -288675.838 2   -224941.171 1
  21144951.155    -1282341.348 4   -999177.845 3
  22327461.818    -3833590.423 3  -2987169.927 2
 91  4 15 22 40 15.0000000  0  7 19 11 18 16 15 02 06
  22135848.568     3838403.603 2   2990956.496 2
  24445101.311     5823390.612 2   4537718.544 1
  24993474.177     9163004.484 2   7139943.298 1
  24785555.819      730818.581 2    569447.377 1
  24965851.599     -314562.938 1   -245112.800 1
  21144331.786    -1285618.935 4  -1001731.777 3
  22323001.508    -3857011.971 2  -3005420.422 2
 91  4 15 22 40 30.0000000  0  7 19 11 18 16 15 02 06
  22141653.453     3868904.510 2   3014723.382 1
  24453855.545     5869412.155 2   4573579.396 1
  25005063.556     9223889.486 2   7187386.027 1
  24791699.168      763077.822 2    594584.273 1
  24960918.815     -340388.461 1   -265236.387 1
  21143718.707    -1288821.345 4  -1004227.130 3
  22318551.685    -3880407.734 3  -3023650.843 2
 91  4 15 22 40 45.0000000  0  7 19 11 18 16 15 02 06
  22147470.623     3899478.873 2   3038547.521 2
  24462626.574     5915536.378 2   4609520.298 1
  25016645.440     9284785.655 2   7234837.565 1
  24797843.407      795407.748 2    619776.375 1
  24956021.708     -366154.702 2   -285313.899 1
  21143127.817    -1291951.182 4  -1006665.935 3
  22314102.464    -3903780.408 3  -3041863.232 2
 91  4 15 22 41  0.0000000  0  7 19 11 18 16 15 02 06
  22153309.980     3930130.097 2   3062431.549 1
  24471427.582     5961766.257 2   4645543.500 1
  25028240.211     9345696.214 2   7282300.227 1
  24804002.950      827811.438 2    645025.889 1
  24951121.295     -391857.735 1   -305342.135 1
  21142542.624    -1295005.038 4  -1009045.519 3
  22309659.543    -3927126.341 3  -3060054.830 2
 91  4 15 22 41 15.0000000  0  7 19 11 18 16 15 02 06
  22159153.535     3960855.112 2   3086373.078 2
  24480251.974     6008098.501 2   4681646.514 1
  25039837.085     9406617.945 2   7329771.550 1
  24810193.964      860285.590 2    670330.173 1
  24946243.077     -417500.290 1   -325323.225 1
  21141975.116    -1297986.012 4  -1011368.330 3
  22305222.615    -3950448.398 3  -3078227.796 2
 91  4 15 22 41 30.0000000  0  7 19 11 18 16 15 02 06
  22165005.788     3991653.954 2   3110372.122 1
  24489084.463     6054532.571 2   4717828.817 1
  25051427.354     9467550.407 2   7377251.323 1
  24816394.271      892829.437 2    695688.921 1
  24941378.044     -443082.077 2   -345256.938 1
  21141424.998    -1300894.353 4  -1013634.542 3
  22300787.189    -3973746.602 3  -3096382.201 2
 91  4 15 22 41 45.0000000  0  7 19 11 18 16 15 02 06
  22170887.114     4022527.654 2   3134429.504 2
  24497937.927     6101069.301 2   4754091.147 1
  25063019.734     9528494.308 2   7424739.971 1
  24822598.172      925444.018 2    721102.733 1
  24936530.103     -468601.719 2   -365142.215 1
  21140882.375    -1303729.010 4  -1015843.326 3
  22296356.256    -3997019.845 3  -3114517.124 2
 91  4 15 22 42  0.0000000  0  7 19 11 18 16 15 02 06
  22176774.136     4053476.311 2   3158545.295 2
  24506815.088     6147708.591 2   4790433.405 1
  25074617.506     9589449.652 2   7472237.518 1
  24828810.171      958129.131 2    746571.404 1
  24931684.553     -494058.560 2   -384978.571 1
  21140355.038    -1306489.914 4  -1017994.646 3
  22291935.810    -4020267.746 3  -3132632.327 2
 91  4 15 22 42 15.0000000  0  7 19 11 18 16 15 02 06
  22182678.854     4084501.479 2   3182720.707 2
  24515705.433     6194451.544 2   4826856.440 1
  25086213.778     9650417.308 2   7519744.715 1
  24835038.057      990885.891 1    772096.002 1
  24926855.196     -519450.803 2   -404764.670 1
  21139848.092    -1309175.731 4  -1020087.462 3
  22287526.166    -4043488.701 3  -3150726.520 2
 91  4 15 22 42 30.0000000  0  6 19 11 18 15 02 06
  22188597.950     4115600.190 2   3206953.431 1
  24524616.160     6241294.575 2   4863357.463 1
  25097829.236     9711394.090 2   7567258.971 1
  24922029.434     -544781.218 2   -424502.595 1
  21139351.930    -1311789.602 4  -1022124.203 3
  22283097.633    -4066685.731 3  -3168802.078 2
 91  4 15 22 42 45.0000000  0  6 19 11 18 15 02 06
  22194529.349     4146771.569 2   3231242.759 1
  24533560.173     6288236.789 2   4899935.762 1
  25109429.103     9772379.005 2   7614779.580 1
  24917222.563     -570050.108 2   -444192.494 1
  21138862.966    -1314332.383 4  -1024105.558 3
  22278693.983    -4089859.335 3  -3186859.375 2
 91  4 15 22 43  0.0000000  0  5 19 11 15 02 06
  22200482.028     4178014.904 2   3255588.165 2
  24542509.570     6335276.968 2   4936590.332 1
  24912430.986     -595257.936 2   -463834.835 1
  21138395.597    -1316805.012 4  -1026032.254 3
  22274287.934    -4113010.348 3  -3204899.065 2
 91  4 15 22 43 15.0000000  0  5 19 11 15 02 06
  22206436.802     4209334.378 2   3279992.916 1
  24551476.966     6382418.781 2   4973324.159 1
  24907631.905     -620400.244 2   -483426.086 1
  21137939.605    -1319203.502 4  -1027901.171 3
  22269886.081    -4136134.445 3  -3222917.778 2
 91  4 15 22 43 30.0010000  0  5 19 11 15 02 06
  22212407.170     4240730.851 2   3304457.637 1
  24560465.943     6429663.826 2   5010138.424 1
  24902861.010     -645479.627 2   -502968.346 1
  21137498.912    -1321529.054 4  -1029713.257 3
  22265492.321    -4159234.146 3  -3240917.485 2
 91  4 15 22 43 45.0010000  0  5 19 11 15 02 06
  22218393.729     4272200.009 2   3328979.015 2
  24569474.103     6477005.385 2   5047027.912 1
  24898112.893     -670492.386 2   -522458.635 1
  21137066.016    -1323781.667 4  -1031468.509 3
  22261101.261    -4182306.377 3  -3258895.795 2
 91  4 15 22 44  0.0010000  0  5 19 11 15 02 06
  22224402.764     4303740.946 2   3353556.330 1
  24578505.359     6524443.127 2   5083992.313 1
  24893357.290     -695442.663 2   -541900.342 1
  21136652.603    -1325964.677 4  -1033169.522 3
  22256715.297    -4205355.809 3  -3276856.339 2
 91  4 15 22 44 15.0010000  0  5 19 11 15 02 06
  22230412.410     4335356.163 2   3378191.503 2
  24587554.291     6571979.133 2   5121033.340 1
  24888626.266     -720327.878 2   -561291.270 1
  21136252.076    -1328075.616 4  -1034814.373 3
  22252334.429    -4228379.578 3  -3294796.883 2
 91  4 15 22 44 30.0010000  0  5 19 11 15 02 06
  22236446.930     4367044.669 2   3402883.808 2
  24596617.018     6619612.340 2   5158150.078 1
  24883899.133     -745148.423 2   -580631.822 1
  21135862.047    -1330115.632 4  -1036403.971 3
  22247956.256    -4251378.578 3  -3312718.132 2
 91  4 15 22 44 45.0010000  0  5 19 11 15 02 06
  22242485.945     4398808.026 2   3427634.426 2
  24605695.032     6667343.659 2   5195343.206 1
  24879182.505     -769902.647 2   -599920.941 1
  21135484.913    -1332083.350 4  -1037937.225 3
  22243586.783    -4274351.313 3  -3330618.907 1
 91  4 15 22 45  0.0010000  0  5 19 11 15 02 06
  22248546.850     4430644.752 2   3452442.230 1
  24614798.828     6715171.356 2   5232611.530 1
  24874493.745     -794591.549 2   -619159.248 1
  21135126.956    -1333980.127 4  -1039415.208 3
  22239218.208    -4297299.011 3  -3348500.173 2
 91  4 15 22 45 15.0010000  0  5 19 11 15 02 06
  22254620.050     4462554.975 2   3477307.282 1
  24623922.709     6763095.242 2   5269954.776 1
  24869798.999     -819214.907 2   -638346.170 1
  21134782.192    -1335805.979 4  -1040837.922 3
  22234854.729    -4320221.451 3  -3366361.759 2
 91  4 15 22 45 30.0010000  0  5 19 11 15 02 06
  22260706.729     4494538.485 2   3502229.438 2
  24633059.791     6811114.660 2   5307372.414 1
  24865126.729     -843772.472 2   -657481.808 1
  21134444.932    -1337561.322 4  -1042205.692 3
  22230501.441    -4343118.608 3  -3384203.649 2
 91  4 15 22 45 45.0010000  0  5 19 11 15 02 06
  22266812.011     4526594.646 2   3527208.225 1
  24642207.352     6859228.586 2   5344863.715 1
  24860469.755     -868264.430 2   -676566.269 1
  21134121.448    -1339246.823 4  -1043519.050 3
  22226149.653    -4365991.219 3  -3402026.405 2
 91  4 15 22 46  0.0010000  0  5 19 11 15 02 06
  22272919.081     4558722.830 2   3552243.122 2
  24651380.705     6907435.969 2   5382427.859 1
  24855821.174     -892691.187 2   -695600.317 1
  21133813.862    -1340863.352 4  -1044778.636 3
  22221799.366    -4388839.831 3  -3419830.460 2
 91  4 15 22 46 15.0010000  0  5 19 11 15 02 06
  22279049.831     4590925.069 2   3577335.741 1
  24660578.933     6955738.531 2   5420066.164 1
  24851193.577     -917049.907 2   -714581.194 1
  21133525.462    -1342408.875 4  -1045982.926 3
  22217458.371    -4411662.104 3  -3437614.010 2
 91  4 15 22 46 30.0010000  0  5 19 11 15 02 06
  22285194.384     4623201.399 2   3602486.072 1
  24669788.259     7004135.899 2   5457778.368 1
  24846572.873     -941340.443 2   -733508.769 1
  21133241.862    -1343883.509 4  -1047131.960 3
  22213115.283    -4434457.968 3  -3455376.968 2
 91  4 15 22 46 45.0010000  0  5 19 11 15 02 06
  22291342.829     4655541.235 2   3627685.897 1
  24679008.082     7052617.080 2   5495555.796 1
  24841957.569     -965573.258 2   -752391.343 1
  21132968.748    -1345298.021 4  -1048234.140 3
  22208783.877    -4457237.924 3  -3473127.518 2
 91  4 15 22 47  0.0010000  0  5 19 11 15 02 06
  22297512.851     4687950.854 2   3652940.083 2
  24688254.280     7101188.116 2   5533403.317 1
  24837362.648     -989741.427 2   -771223.492
  21132715.423    -1346646.221 4  -1049284.662 3
  22204455.176    -4479995.342 3  -3490860.519 2
 91  4 15 22 47 15.0010000  0  5 19 11 15 02 06
  22303694.276     4720433.695 2   3678251.357 2
  24697514.264     7149851.870 2   5571323.062 1
  24832771.626    -1013841.234 2   -790002.442 1
  21132474.994    -1347924.724 4  -1050280.868 2
  22200126.771    -4502726.978 3  -3508573.452 2
 91  4 15 22 47 30.0010000  0  5 19 11 15 02 06
  22309887.385     4752987.961 2   3703618.254 1
  24706790.146     7198606.219 2   5609313.393 1
  24828190.499    -1037874.446 2   -808729.399 1
  21132240.551    -1349135.428 4  -1051224.253 3
  22195806.761    -4525434.512 3  -3526267.567 2
 91  4 15 22 47 45.0010000  0  5 19 11 15 02 06
  22316094.889     4785615.419 2   3729042.197 1
  24716084.010     7247452.749 2   5647375.580 1
  24823631.857    -1061838.521 2   -827402.761 1
  21132025.005    -1350276.658 4  -1052113.490 3
  22191488.853    -4548115.877 3  -3543941.288 2
 91  4 15 22 48  0.0010000  0  5 19 11 15 02 06
  22322326.074     4818316.065 2   3754523.167 2
  24725402.757     7296391.049 2   5685509.256 1
  24819082.210    -1085733.494 2   -846022.049 1
  21131821.745    -1351348.443 4  -1052948.625 3
  22187177.837    -4570770.870 3  -3561594.489 2
 91  4 15 22 48 15.0010000  0  5 19 11 15 02 06
  22328560.557     4851095.063 2   3780065.191 2
  24734732.002     7345425.953 2   5723718.200 1
  24814553.538    -1109553.720 2   -864583.137 1
  21131630.779    -1352345.727 4  -1053725.706 3
  22182871.019    -4593394.283 3  -3579223.070 2
 91  4 15 22 48 30.0010000  0  5 19 11 15 02 06
  22334810.030     4883952.713 2   3805668.507 1
  24744084.027     7394557.324 2   5762002.347 1
  24810035.668    -1133298.350 2   -883085.287 1
  21131455.395    -1353268.325 4  -1054444.579 3
  22178577.689    -4615985.517 3  -3596826.560 2
 91  4 15 22 48 45.0010000  0  5 19 11 15 02 06
  22341076.595     4916887.683 2   3831332.078 2
  24753452.237     7443783.629 2   5800360.440 1
  24805534.288    -1156968.270 2   -901529.211 1
  21131291.712    -1354117.505 4  -1055106.250 3
  22174279.867    -4638545.910 3  -3614406.022 2
 91  4 15 22 49  0.0010000  0  5 19 11 15 02 06
  22347366.238     4949899.965 2   3857055.875 1
  24762835.743     7493104.333 2   5838792.119 1
  24801040.395    -1180563.378 2   -919914.932 1
  21131147.809    -1354893.604 4  -1055710.984 3
  22169988.038    -4661075.271 3  -3631961.308 2
 91  4 15 22 49 15.0010000  0  5 19 11 15 02 06
  22353658.281     4982991.806 2   3882841.673 1
  24772237.536     7542521.271 2   5877298.765 1
  24796573.793    -1204081.379 2   -938240.532 1
  21131011.104    -1355594.390 4  -1056257.021 3
  22165711.801    -4683571.470 3  -3649490.744 2
 91  4 15 22 49 30.0010000  0  5 19 11 15 02 06
  22359974.910     5016159.834 2   3908686.840 1
  24781660.610     7592030.761 2   5915877.499 1
  24792107.785    -1227524.784 2   -956507.984 1
  21130895.086    -1356223.305 4  -1056747.053 3
  22161433.461    -4706037.465 3  -3666996.660 2
 91  4 15 22 49 45.0010000  0  5 19 11 15 02 06
  22366288.539     5049405.086 2   3934592.180 1
  24791096.580     7641633.438 2   5954528.855 1
  24787661.260    -1250892.228 2   -974716.256 1
  21130788.056    -1356779.374 4  -1057180.339 3
  22157168.314    -4728472.250 3  -3684478.264 2
 91  4 15 22 50  0.0010000  0  5 19 11 15 02 06
  22372642.041     5082728.049 2   3960558.061 2
  24800549.633     7691329.238 2   5993252.834 1
  24783227.928    -1274183.275 2   -992864.988 1
  21130697.820    -1357262.579 4  -1057556.829 3
  22152904.362    -4750875.323 3  -3701935.142 2
 91  4 15 22 50 15.0010000  0  5 19 11 15 02 06
  22378990.151     5116130.424 2   3986585.870 1
  24810025.477     7741119.643 2   6032050.517 1
  24778811.086    -1297395.511 2  -1010952.279 1
  21130619.574    -1357671.152 4  -1057875.165 3
  22148650.008    -4773244.671 3  -3719365.727 2
 91  4 15 22 50 30.0010000  0  5 19 11 15 02 06
  22385365.230     5149609.749 2   4012673.601 1
  24819520.507     7791001.787 2   6070919.622 1
  24774400.543    -1320531.083 2  -1028979.912 1
  21130554.519    -1358007.643 4  -1058137.347 3
  22144397.756    -4795582.595 3  -3736771.831 2
 91  4 15 22 50 45.0010000  0  5 19 11 15 02 06
  22391748.415     5183165.845 2   4038821.142 1
  24829026.321     7840975.150 2   6109859.865 1
  24770021.167    -1343589.832 2  -1046947.695 1
  21130500.860    -1358272.329 4  -1058343.571 3
  22140155.093    -4817889.221 3  -3754153.580 2
 91  4 15 22 51  0.0010000  0  5 19 11 15 02 06
  22398152.584     5216797.169 2   4065027.312 1
  24838560.919     7891037.845 2   6148869.670 1
  24765645.699    -1366573.082 2  -1064856.584 1
  21130464.886    -1358466.826 4  -1058495.101 3
  22135911.227    -4840165.861 3  -3771511.934 2
 91  4 15 22 51 15.0010000  0  5 19 11 15 02 06
  22404563.340     5250505.057 2   4091293.143 2
  24848103.614     7941190.879 2   6187949.936 1
  24761289.418    -1389478.933 2  -1082705.192 1
  21130438.798    -1358589.826 3  -1058590.926 3
  22131678.458    -4862411.092 3  -3788845.817 2
 91  4 15 22 51 30.0010000  0  5 19 11 15 02 06
  22410990.892     5284288.445 2   4117617.810 2
  24857656.806     7991432.725 2   6227099.391 1
  24756943.921    -1412308.143 2  -1100494.159 1
  21130432.507    -1358642.266 3  -1058631.762 3
  22127454.083    -4884625.746 3  -3806155.864 2
 91  4 15 22 51 45.0010000  0  5 19 11 15 02 06
  22417437.029     5318150.784 2   4144003.996 2
  24867238.773     8041766.505 2   6266320.460 1
  24752606.225    -1435057.082 2  -1118220.446 1
  21130436.407    -1358620.915 3  -1058615.089 3
  22123233.303    -4906806.307 3  -3823439.362 2
 91  4 15 22 52  0.0010000  0  5 19 11 15 02 06
  22423896.663     5352094.683 2   4170453.727 1
  24876832.728     8092194.525 2   6305614.934 1
  24748299.712    -1457722.447 2  -1135881.618 1
  21130456.187    -1358523.324 4  -1058539.019 3
  22119016.423    -4928949.887 3  -3840694.046 2
 91  4 15 22 52 15.0010000  0  5 19 11 15 02 06
  22430373.076     5386113.903 2   4196962.140 2
  24886448.269     8142709.925 2   6344977.519 1
  24743992.893    -1480310.767 2  -1153482.772 1
  21130489.770    -1358356.199 4  -1058408.766 3
  22114806.741    -4951062.885 3  -3857924.889 2
 91  4 15 22 52 30.0010000  0  5 19 11 15 02 06
  22436857.882     5420208.625 2   4223529.410 1
  24896073.111     8193312.642 2   6384408.144 1
  24739726.847    -1502821.184 2  -1171023.269 1
  21130534.434    -1358119.153 4  -1058224.034 3
  22110606.648    -4973144.863 3  -3875131.553 2
 91  4 15 22 52 45.0010000  0  5 19 11 15 02 06
  22443359.781     5454377.152 2   4250154.179 2
  24905727.628     8244000.763 2   6423905.326 1
  24735448.804    -1525254.956 2  -1188504.030 1
  21130587.797    -1357813.611 4  -1057985.923 3
  22106409.548    -4995197.170 3  -3892315.125 2
 91  4 15 22 53  0.0010000  0  5 19 11 15 02 06
  22449880.273     5488619.030 2   4276836.094 2
  24915388.435     8294773.599 2   6463468.505 1
  24731197.748    -1547612.047 2  -1205925.137 1
  21130660.346    -1357440.303 4  -1057695.002 3
  22102221.749    -5017220.168 3  -3909475.855 2
 91  4 15 22 53 15.0010000  0  5 19 11 15 02 06
  22456405.852     5522935.184 2   4303575.903 1
  24925071.429     8345631.252 2   6503097.800 1
  24726957.188    -1569891.512 2  -1223285.588 1
  21130744.587    -1356998.692 4  -1057350.876 3
  22098030.652    -5039212.986 3  -3926613.042 2
 91  4 15 22 53 30.0010000  0  5 19 11 15 02 06
  22462953.025     5557325.928 2   4330373.818 1
  24934760.122     8396574.025 2   6542793.425 1
  24722730.710    -1592092.463 2  -1240584.948 1
  21130840.520    -1356488.456 4  -1056953.264 3
  22093858.139    -5061174.969 3  -3943726.217 2
 91  4 15 22 53 45.0010000  0  5 19 11 15 02 06
  22469504.989     5591788.878 2   4357228.018 1
  24944467.102     8447599.079 2   6582553.109 1
  24718520.723    -1614216.910 2  -1257824.657 1
  21130953.545    -1355911.981 4  -1056504.037 3
  22089682.328    -5083108.420 3  -3960817.178 2
 91  4 15 22 54  0.0010000  0  5 19 11 15 02 06
  22476080.030     5626323.714 2   4384138.211 2
  24954187.275     8498705.826 2   6622376.514 1
  24714321.529    -1636264.809 2  -1275004.792 1
  21131072.861    -1355269.588 4  -1056003.449 3
  22085512.214    -5105013.285 3  -3977885.849 2
 91  4 15 22 54 15.0010000  0  5 19 11 15 02 06
  22482668.569     5660933.598 2   4411106.898 2
  24963921.539     8549896.840 2   6662265.563 1
  24710142.429    -1658232.631 2  -1292122.353 1
  21131210.770    -1354558.330 4  -1055449.193 3
  22081352.597    -5126886.537 3  -3994929.873 2
 91  4 15 22 54 30.0010000  0  5 19 11 15 02 06
  22489266.706     5695617.433 2   4438133.189 1
  24973690.275     8601170.669 2   6702219.147 1
  24705980.107    -1680121.396 2  -1309178.415 1
  21131354.969    -1353779.556 4  -1054842.334 3
  22077195.973    -5148729.078 3  -4011949.988 2
 91  4 15 22 54 45.0010000  0  5 19 11 15 02 06
  22495882.223     5730371.627 2   4465214.335 1
  24983468.601     8652523.386 2   6742234.213 1
  24701830.078    -1701934.066 2  -1326175.192 1
  21131519.857    -1352936.756 4  -1054185.583 3
  22073039.950    -5170544.241 3  -4028948.752 2
 91  4 15 22 55  0.0010000  0  5 19 11 15 02 06
  22502509.441     5765201.183 2   4492354.174 2
  24993257.126     8703959.696 2   6782314.385 1
  24697691.742    -1723665.281 2  -1343108.570 1
  21131690.432    -1352024.942 4  -1053475.056 3
  22068899.817    -5192326.921 3  -4045922.215 2
 91  4 15 22 55 15.0010000  0  5 19 11 15 02 06
  22509156.735     5800105.311 2   4519552.162 1
  25003059.742     8755478.438 2   6822458.824 1
  24693577.993    -1745315.500 2  -1359978.758 1
  21131876.007    -1351045.060 4  -1052711.475 3
  22064760.581    -5214077.711 3  -4062870.820 2
 91  4 15 22 55 30.0010000  0  5 19 11 15 02 06
  22515812.727     5835082.549 2   4546807.081 1
  25012878.543     8807077.804 2   6862666.041 1
  24689469.034    -1766885.788 2  -1376786.683 1
  21132078.368    -1349998.764 4  -1051896.155 3
  22060627.043    -5235797.962 3  -4079795.639 2
 91  4 15 22 55 45.0010000  0  5 19 11 15 02 06
  22522479.810     5870131.697 2   4574118.030 1
  25022704.246     8858756.337 2   6902934.959 1
  24685372.071    -1788377.311 2  -1393533.235 1
  21132288.818    -1348887.020 4  -1051029.831 3
  22056497.100    -5257488.611 3  -4096697.392 2
 91  4 15 22 56  0.0010000  0  5 19 11 15 02 06
  22529158.890     5905251.619 2   4601484.137 1
  25032565.312     8910512.502 2   6943264.382 1
  24681296.390    -1809790.590 2  -1410218.908 1
  21132513.367    -1347711.187 4  -1050113.567 3
  22052374.356    -5279150.637 3  -4113576.836 2
 91  4 15 22 56 15.0010000  0  5 19 11 15 02 06
  22535860.750     5940445.191 2   4628907.656 1
  25042426.089     8962348.641 2   6983656.156 1
  24677245.898    -1831122.572 2  -1426841.024 1
  21132750.804    -1346468.873 4  -1049145.513 3
  22048261.505    -5300781.083 3  -4130431.697 2
 91  4 15 22 56 30.0010000  0  5 19 11 15 02 06
  22542575.804     5975712.384 2   4656388.509 1
  25052305.146     9014264.373 2   7024109.916 1
  24673194.201    -1852372.875 2  -1443399.576 1
  21132998.126    -1345160.003 4  -1048125.589 3
  22044150.452    -5322379.832 3  -4147261.843 2
 91  4 15 22 56 45.0010000  0  5 19 11 15 02 06
  22549292.349     6011054.386 2   4683927.694 1
  25062195.302     9066260.482 2   7064626.347 1
  24669167.389    -1873539.776 2  -1459893.144 1
  21133258.352    -1343783.353 4  -1047052.851 3
  22040044.198    -5343945.588 3  -4164066.277 2
 91  4 15 22 57  0.0010000  0  5 19 11 15 02 06
  22556037.678     6046469.872 2   4711524.083 1
  25072110.341     9118335.454 2   7105204.206 1
  24665165.164    -1894624.053 2  -1476322.302 1
  21133536.857    -1342340.267 4  -1045928.342 3
  22035950.830    -5365479.335 3  -4180845.750 2
 91  4 15 22 57 15.0010000  0  5 19 11 15 02 06
  22562782.414     6081957.444 2   4739176.699 2
  25082031.374     9170487.473 2   7145842.042 1
  24661162.032    -1915627.164 2  -1492688.261 1
  21133821.357    -1340832.266 4  -1044753.248 3
  22031860.464    -5386982.323 3  -4197601.295 2
 91  4 15 22 57 30.0010000  0  5 19 11 15 02 06
  22569558.020     6117516.135 2   4766884.708 2
  25091973.688     9222715.268 2   7186538.969 1
  24657177.187    -1936549.528 2  -1508991.307 1
  21134121.152    -1339260.321 4  -1043528.321 3
  22027771.590    -5408455.267 3  -4214333.391 2
 91  4 15 22 57 45.0010000  0  5 19 11 15 02 06
  22576333.930     6153144.534 2   4794647.026 1
  25101928.898     9275017.147 2   7227293.655 1
  24653212.437    -1957392.241 2  -1525232.250 1
  21134433.240    -1337626.018 4  -1042254.819 3
  22023694.111    -5429899.454 3  -4231043.093 2
 91  4 15 22 58  0.0010000  0  5 19 11 15 02 06
  22583131.122     6188844.003 2   4822464.722 1
  25111885.303     9327393.869 2   7268106.647 1
  24649269.569    -1978153.757 2  -1541409.967 1
  21134754.918    -1335928.192 4  -1040931.803 3
  22019615.734    -5451313.577 3  -4247729.380 2
 91  4 15 22 58 15.0010000  0  4 19 11 15 06
  22589931.620     6224613.016 2   4850336.632 2
  25121874.688     9379843.496 2   7308976.421 1
  24645325.200    -1998835.027 2  -1557525.081 1
  22015546.352    -5472698.927 3  -4264393.237 2
 91  4 15 22 58 30.0010000  0  5 19 11 15 02 06
  22596747.701     6260451.463 2   4878262.626 1
  25131871.866     9432365.562 2   7349902.683 1
  24641403.613    -2019436.021 2  -1573577.752 1
  21135434.542      259465.07514    202231.849 3
  22011479.666    -5494055.371 3  -4281034.561 2
 91  4 15 22 58 45.0010000  0  6 19 11 15 02 06 13
  22603581.765     6296357.108 2   4906240.991 1
  25141881.040     9484957.766 2   7390883.535 1
  24637510.810    -2039958.393 2  -1589569.097 1
  21135793.092      261346.020 4    203697.554 3
  22007423.476    -5515384.913 3  -4297654.945 2
  24526314.183           0.919 2         0.412 1
 91  4 15 22 59  0.0010000  0  6 19 11 15 02 06 13
  22610434.422     6332331.205 2   4934272.690 1
  25151897.108     9537620.671 2   7431919.527 1
  24633614.106    -2060400.808 2  -1605498.133 1
  21136165.139      263287.634 4    205210.526 3
  22003369.084    -5536686.192 3  -4314253.291 2
  24515907.789      -54683.741 2    -42610.810 1
 91  4 15 22 59 15.0010000  0  6 19 11 15 02 06 13
  22617287.977     6368372.513 2   4962356.730 1
  25161927.563     9590352.809 2   7473009.438 1
  24629739.887    -2080764.004 2  -1621365.406 1
  21136544.978      265288.734 4    206769.848 3
  21999319.787    -5557960.237 3  -4330830.417 2
  24505507.390     -109347.872 2    -85206.388 1
 91  4 15 22 59 30.0010000  0  6 19 11 15 02 06 13
  22624153.827     6404483.067 2   4990494.782 1
  25171977.806     9643155.883 2   7514154.681 1
  24625873.460    -2101045.377 2  -1637168.960 1
  21136941.299      267351.051 4    208376.884 3
  21995279.782    -5579204.753 3  -4347384.545 2
  24495104.591     -163989.075 2   -127784.159 1
 91  4 15 22 59 45.0010000  0  6 19 11 15 02 06 13
  22631047.552     6440665.223 2   5018688.591 1
  25182040.640     9696031.910 2   7555356.777 1
  24622039.115    -2121242.489 2  -1652906.819 1
  21137339.722      269476.927 4    210033.438 3
  21991237.980    -5600417.371 3  -4363913.805 2
  24484709.592     -218604.585 2   -170341.572 1
 91  4 15 23  0  0.0010000  0  6 19 11 15 02 06 13
  22637941.880     6476914.718 2   5046934.912 1
  25192117.556     9748976.354 2   7596612.087 1
  24618211.366    -2141359.283 2  -1668582.186 1
  21137756.137      271661.933 4    211736.074 3
  21987208.769    -5621602.001 3  -4380421.266 2
  24474313.686     -273198.376 2   -212882.029 1
 91  4 15 23  0 15.0010000  0  6 19 11 15 02 06 13
  22644854.191     6513231.387 2   5075233.532 1
  25202204.681     9801988.693 2   7637920.394 1
  24614389.917    -2161395.393 2  -1684194.593 1
  21138183.641      273905.969 4    213484.700 3
  21983185.254    -5642758.679 3  -4396906.933 2
  24463925.877     -327770.070 2   -255405.530 1
 91  4 15 23  0 30.0010000  0  6 19 11 15 02 06 13
  22651784.798     6549614.511 2   5103583.951 1
  25212304.387     9855067.777 2   7679280.630 1
  24610587.043    -2181351.296 2  -1699744.595 1
  21138621.938      276208.296 4    215278.746 3
  21979167.141    -5663887.870 3  -4413371.198 2
  24453549.759     -382320.122 2   -297911.829 1
 91  4 15 23  0 45.0010000  0  6 19 11 15 02 06 13
  22658718.092     6586063.095 2   5131985.380 2
  25222414.284     9908212.329 2   7720691.907 1
  24606805.162    -2201227.519 2  -1715232.388 1
  21139071.622      278567.865 4    217117.395 3
  21975147.518    -5684990.475 3  -4429814.745 2
  24443171.844     -436848.940 2   -340401.652 1
 91  4 15 23  1  0.0010000  0  6 19 11 15 02 06 13
  22665663.087     6622576.957 2   5160437.697 2
  25232540.977     9961421.612 2   7762153.699 1
  24603046.062    -2221023.843 2  -1730658.064 1
  21139533.607      280984.236 4    219000.312 3
  21971138.401    -5706066.542 3  -4446237.597 2
  24432806.519     -491356.565 2   -382875.293 1
 91  4 15 23  1 15.0010000  0  6 19 11 15 02 06 13
  22672605.979     6659156.623 2   5188941.249 1
  25242677.861    10014695.863 2   7803666.051 1
  24599295.662    -2240739.748 2  -1746021.006 1
  21139997.984      283457.804 4    220927.785 3
  21967129.571    -5727115.357 3  -4462639.224 2
  24422431.301     -545842.100 2   -425331.794 1
 91  4 15 23  1 30.0010000  0  6 19 11 15 02 06 13
  22679597.444     6695800.355 2   5217494.754 1
  25252830.929    10068033.228 2   7845227.537 1
  24595554.256    -2260376.313 2  -1761322.110 1
  21140484.252      285986.953 4    222898.579 3
  21963130.339    -5748138.316 3  -4479020.705 2
  24412066.578     -600306.606 2   -467771.799
 91  4 15 23  1 45.0010000  0  6 19 11 15 02 06 13
  22686577.810     6732510.093 2   5246099.681 2
  25262995.393    10121434.956 2   7886839.264 1
  24591828.129    -2279931.261 2  -1776559.584 1
  21140976.505      288573.491 4    224914.095 3
  21959135.303    -5769133.346 3  -4495380.416 2
  24401707.553     -654747.780 1   -510193.717 1
 91  4 15 23  2  0.0010000  0  6 19 11 15 02 06 13
  22693582.764     6769286.621 2   5274756.662 1
  25273171.243    10174901.569 2   7928501.491 1
  24588126.597    -2299403.474 2  -1791732.588 1
  21141478.059      291218.118 4    226974.859 3
  21955144.168    -5790099.699 3  -4511717.789 2
  24391353.318     -709164.630 2   -552596.329 1
 91  4 15 23  2 15.0010000  0  6 19 11 15 02 06 13
  22700591.905     6806129.826 2   5303465.568 1
  25283355.496    10228432.641 2   7970213.980 1
  24584440.946    -2318792.705 2  -1806840.971 1
  21141991.907      293920.545 4    229080.674 3
  21951165.021    -5811036.986 3  -4528032.499 2
  24381009.282     -763556.701 2   -594979.868 1
 91  4 15 23  2 30.0010000  0  6 19 11 15 02 06 13
  22707615.443     6843037.938 2   5332225.076 1
  25293558.333    10282026.236 2   8011975.150 1
  24580768.190    -2338100.404 2  -1821885.942 1
  21142516.242      296679.096 4    231230.219 3
  21947180.779    -5831946.920 3  -4544325.913 2
  24370645.755     -817925.262 2   -637344.773 1
 91  4 15 23  2 45.0010000  0  6 19 11 15 02 06 13
  22714642.882     6880011.812 2   5361035.829 1
  25303766.867    10335682.582 2   8053785.243 1
  24577102.928    -2357325.568 2  -1836866.449 1
  21143054.067      299494.431 4    233424.012 3
  21943207.032    -5852828.433 3  -4560597.177 2
  24360314.005     -872269.420 2   -679691.077 1
 91  4 15 23  3  0.0010000  0  6 19 11 15 02 06 13
  22721702.690     6917054.984 2   5389900.596 1
  25313980.192    10389405.052 2   8095646.815 1
  24573468.545    -2376463.938 2  -1851779.286 1
  21143600.590      302370.187 4    235664.877 3
  21939236.881    -5873677.773 3  -4576843.358 2
  24349986.154     -926584.995 2   -722015.101 1
 91  4 15 23  3 15.0010000  0  6 19 11 15 02 06 13
  22728758.310     6954166.885 2   5418818.870 1
  25324217.510    10443192.577 2   8137559.219 1
  24569833.857    -2395515.741 2  -1866624.764 1
  21144158.500      305305.527 4    237952.176 3
  21935279.625    -5894495.303 3  -4593064.766 2
  24339647.817     -980872.391 2   -764317.208 1
 91  4 15 23  3 30.0010000  0  6 19 11 15 02 06 13
  22735841.502     6991348.671 2   5447791.632 1
  25334471.913    10497045.934 2   8179522.819 1
  24566228.258    -2414479.804 2  -1881401.863 1
  21144731.111      308301.568 4    240286.769 3
  21931323.862    -5915279.699 3  -4609260.362 2
  24329318.762    -1035129.899 2   -806596.016 1
 91  4 15 23  3 45.0010000  0  6 19 11 15 02 06 13
  22742924.101     7028600.420 2   5476818.898 1
  25344728.112    10550964.874 2   8221537.534 1
  24562645.135    -2433355.460 2  -1896110.053 1
  21145312.107      311358.401 4    242668.737 3
  21927375.593    -5936030.694 3  -4625429.928 2
  24319001.103    -1089356.893 2   -848851.044 1
 91  4 15 23  4  0.0010000  0  6 19 11 15 02 06 13
  22750029.184     7065920.868 2   5505899.697 1
  25355002.600    10604947.784 2   8263602.111 1
  24559061.715    -2452143.828 2  -1910750.181 1
  21145901.794      314474.740 4    245097.075 3
  21923433.624    -5956749.307 3  -4641574.255 2
  24308687.344    -1143554.423 2   -891083.040 1
 91  4 15 23  4 15.0010000  0  6 19 11 15 02 06 13
  22757140.557     7103313.380 2   5535036.642 1
  25365281.581    10658997.975 2   8305719.061 1
  24555504.977    -2470840.999 2  -1925319.240 1
  21146504.978      317654.055 4    247574.472 3
  21919494.647    -5977431.925 3  -4657690.550 2
  24298380.477    -1197718.704 2   -933288.742 1
 91  4 15 23  4 30.0010000  0  6 19 11 15 02 06 13
  22764277.417     7140775.631 2   5564227.939 1
  25375582.148    10713112.442 2   8347886.084 1
  24551962.330    -2489448.791 2  -1939818.692 1
  21147121.948      320893.567 4    250098.794 3
  21915565.870    -5998080.741 3  -4673780.478 2
  24288072.721    -1251851.699 2   -975470.485 1
 91  4 15 23  4 45.0010000  0  6 19 11 15 02 06 13
  22771419.076     7178306.941 2   5593473.031 1
  25385889.616    10767290.161 2   8390102.435 1
  24548438.572    -2507967.738 2  -1954248.977 1
  21147754.213      324192.663 4    252669.536 3
  21911643.087    -6018696.197 3  -4689844.409 2
  24277782.039    -1305953.611 2  -1017627.620 1
 91  4 15 23  5  0.0010000  0  6 19 11 15 02 06 13
  22778572.121     7215907.433 2   5622772.070 1
  25396203.977    10821530.934 2   8432367.950 1
  24544938.495    -2526397.466 2  -1968609.674 1
  21148393.973      327551.248 4    255286.632 3
  21907725.095    -6039278.083 3  -4705882.199 2
  24267496.759    -1360024.007 2  -1059760.544 1
 91  4 15 23  5 15.0010000  0  6 19 11 15 02 06 13
  22785744.954     7253579.068 2   5652126.509 1
  25406528.826    10875836.548 2   8474684.021 1
  24541440.817    -2544735.455 2  -1982898.911 1
  21149042.423      330971.442 4    257951.731 3
  21903817.904    -6059824.012 3  -4721891.972 2
  24257207.884    -1414060.528 2  -1101867.136 1
 91  4 15 23  5 30.0010000  0  6 19 11 15 02 06 13
  22792926.783     7291322.294 2   5681536.729 1
  25416891.455    10930206.840 2   8517050.487 1
  24537968.616    -2562980.978 2  -1997116.076 1
  21149708.864      334453.458 4    260665.004 3
  21899914.002    -6080333.583 3  -4737873.399 2
  24246931.896    -1468062.391 2  -1143946.293 1
 91  4 15 23  5 45.0010000  0  5 19 15 02 06 13
  22800119.109     7329136.558 2   5711002.323 1
  24534512.007    -2581134.337 2  -2011261.414 1
  21150382.198      337996.701 4    263425.996 3
  21896019.698    -6100807.101 3  -4753826.740 2
  24236663.411    -1522029.632 2  -1185998.701 1
 91  4 15 23  6  0.0010000  0  5 19 15 02 06 13
  22807333.613     7367019.698 2   5740521.599 1
  24531083.886    -2599197.107 2  -2025336.146 1
  21151063.324      341599.037 4    266233.022 3
  21892129.591    -6121246.335 3  -4769753.379 2
  24226393.713    -1575963.872 2  -1228025.157 1
 91  4 15 23  6 15.0010000  0  5 19 15 02 06 13
  22814550.212     7404967.612 2   5770091.312 1
  24527658.452    -2617173.160 2  -2039343.403 1
  21151763.636      345256.354 4    269082.899 3
  21888243.384    -6141655.311 3  -4785656.426 2
  24216146.213    -1629869.017 1  -1270028.980 1
 91  4 15 23  6 30.0010000  0  5 19 15 02 06 13
  22821780.614     7442987.787 2   5799717.353 2
  24524256.706    -2635054.718 2  -2053276.972 1
  21152468.747      348976.030 4    271981.371 3
  21884371.268    -6162026.225 3  -4801529.794 2
  24205895.710    -1683737.118 2  -1312003.927 1
 91  4 15 23  6 45.0010000  0  5 19 15 02 06 13
  22829029.591     7481084.211 2   5829402.820 1
  24520868.459    -2652837.342 2  -2067133.355 1
  21153189.755      352762.065 4    274931.542 3
  21880499.448    -6182354.851 3  -4817370.245 2
  24195648.201    -1737563.611 2  -1353946.745 1
 91  4 15 23  7  0.0010000  0  5 19 15 02 06 13
  22836300.460     7519257.512 2   5859148.189 1
  24517500.889    -2670520.129 2  -2080912.121 1
  21153924.846      356614.855 4    277933.731 3
  21876641.414    -6202640.532 3  -4833177.217 2
  24185415.088    -1791347.644 2  -1395856.593 1
 91  4 15 23  7 15.0010000  0  5 19 15 02 06 13
  22843576.721     7557500.523 2   5888947.845 1
  24514157.306    -2688109.963 2  -2094618.263 1
  21154669.525      360527.243 4    280982.356 3
  21872785.187    -6222890.011 3  -4848955.970 2
  24175191.860    -1845095.851 2  -1437738.186 1
 91  4 15 23  7 30.0010000  0  5 19 15 02 06 13
  22850865.877     7595812.743 2   5918801.441 1
  24510831.102    -2705606.847 2  -2108252.068 1
  21155427.405      364498.813 4    284077.102 3
  21868940.947    -6243103.669 3  -4864706.830 2
  24164968.642    -1898808.460 2  -1479592.279 1
 91  4 15 23  7 45.0010000  0  5 19 15 02 06 13
  22858165.522     7634193.734 2   5948708.653 1
  24507515.997    -2723011.049 2  -2121813.726 1
  21156188.575      368528.900 4    287217.444 3
  21865102.109    -6263281.606 3  -4880429.838 2
  24154750.213    -1952485.346 2  -1521418.618 1
 91  4 15 23  8  0.0010000  0  5 19 15 02 06 13
  22865490.347     7672645.275 2   5978670.813 2
  24504216.780    -2740320.284 2  -2135301.309 1
  21156966.837      372619.147 4    290404.666 3
  21861265.364    -6283422.022 3  -4896123.609 2
  24144542.577    -2006124.363 2  -1563215.045 1
 91  4 15 23  8 15.0010000  0  5 19 15 02 06 13
  22872813.383     7711169.313 2   6008689.471 1
  24500953.241    -2757532.402 2  -2148713.232 1
  21157756.486      376771.486 4    293640.282 3
  21857443.304    -6303522.710 3  -4911786.444 2
  24134348.736    -2059723.255 2  -1604980.539 1
 91  4 15 23  8 30.0010000  0  5 19 15 02 06 13
  22880163.388     7749769.613 2   6038767.536 1
  24497690.006    -2774643.126 2  -2162046.115 1
  21158562.328      380989.649 4    296927.164 3
  21853626.052    -6323579.786 3  -4927415.270 2
  24124154.894    -2113278.015 2  -1646711.752 1
 91  4 15 23  8 45.0010000  0  5 19 15 02 06 13
  22887523.000     7788439.250 2   6068899.653 1
  24494455.539    -2791659.115 2  -2175305.206 1
  21159376.573      385266.754 4    300259.988 3
  21849817.184    -6343599.777 3  -4943015.204 2
  24113964.351    -2166795.053 2  -1688413.549 1
 91  4 15 23  9  0.0010000  0  5 19 15 02 06 13
  22894883.799     7827178.486 2   6099085.991 1
  24491235.467    -2808579.912 2  -2188490.144 1
  21160200.398      389603.019 4    303638.917 3
  21846015.820    -6363582.226 3  -4958585.881 2
  24103793.291    -2220273.588 2  -1730085.324 1
 91  4 15 23  9 15.0010000  0  5 19 15 02 06 13
  22902273.390     7865987.990 2   6129327.083 1
  24488029.793    -2825403.792 2  -2201599.510 1
  21161035.024      393999.101 4    307064.454 3
  21842220.746    -6383526.131 3  -4974126.536 2
  24093628.531    -2273712.322 2  -1771725.863 1
 91  4 15 23  9 30.0010000  0  5 19 15 02 06 13
  22909679.158     7904867.370 2   6159622.649 1
  24484845.992    -2842131.342 2  -2214633.816 1
  21161886.429      398454.380 4    310536.112 3
  21838428.971    -6403431.767 3  -4989637.375 2
  24083467.365    -2327111.677 2  -1813335.763 1
 91  4 15 23  9 45.0010000  0  5 19 15 02 06 13
  22917087.028     7943813.530 2   6189970.231 2
  24481679.885    -2858765.465 2  -2227595.338 1
  21162742.641      402965.607 4    314051.370 3
  21834648.286    -6423302.193 3  -5005120.767 2
  24073311.591    -2380474.240 2  -1854917.204 1
 91  4 15 23 10  0.0010000  0  5 19 15 02 06 13
  22924516.790     7982826.803 2   6220370.130 1
  24478526.666    -2875305.491 2  -2240483.546 1
  21163612.037      407533.126 4    317610.491 3
  21830876.299    -6443136.756 3  -5020576.231 2
  24063163.016    -2433799.399 2  -1896469.032 1
 91  4 15 23 10 15.0010000  0  5 19 15 02 06 13
  22931949.841     8021907.390 2   6250822.450 2
  24475407.928    -2891750.744 2  -2253297.922 1
  21164489.225      412157.252 4    321213.727 3
  21827108.509    -6462934.987 3  -5036003.367 2
  24053019.239    -2487086.187 2  -1937990.960 1
 91  4 15 23 10 30.0010000  0  5 19 15 02 06 13
  22939391.591     8061056.105 2   6281327.877 1
  24472298.482    -2908099.929 2  -2266037.402 1
  21165381.411      416838.649 4    324861.577 3
  21823351.809    -6482695.807 3  -5051401.357 2
  24042890.452    -2540333.381 2  -1979482.448 1
 91  4 15 23 10 45.0010000  0  5 19 15 02 06 13
  22946851.629     8100270.375 2   6311884.377 1
  24469200.126    -2924355.122 2  -2278703.690 1
  21166285.882      421575.021 4    328552.278 3
  21819595.405    -6502421.248 3  -5066771.776 2
  24032759.868    -2593543.010 2  -2020944.341 1
 91  4 15 23 11  0.0010000  0  5 19 15 02 06 13
  22954332.049     8139551.468 2   6342492.954 1
  24466131.453    -2940514.949 2  -2291295.616 1
  21167196.356      426367.298 4    332286.534 3
  21815846.208    -6522110.063 3  -5082113.660 2
  24022647.868    -2646713.678 2  -2062376.120 1
 91  4 15 23 11 15.0010000  0  5 19 15 02 06 13
  22961824.160     8178900.228 2   6373154.271 1
  24463072.666    -2956578.325 2  -2303812.446 1
  21168120.912      431216.116 4    336064.843 3
  21812108.389    -6541761.400 3  -5097426.337 2
  24012532.570    -2699844.133 2  -2103776.249 1
 91  4 15 23 11 30.0010000  0  5 19 15 02 06 13
  22969330.965     8218314.343 2   6403866.474 1
  24460026.477    -2972547.146 2  -2316255.547 1
  21169051.174      436119.104 4    339885.364 3
  21808375.377    -6561377.128 3  -5112711.258 2
  24002434.059    -2752936.308 2  -2145146.567 1
 91  4 15 23 11 45.0010000  0  5 19 15 02 06 13
  22976835.972     8257791.983 2   6434628.199 1
  24457009.963    -2988422.948 2  -2328626.204 1
  21169994.315      441074.463 4    343746.701 3
  21804646.859    -6580958.987 3  -5127969.792 2
  23992334.650    -2805991.544 2  -2186488.511 1
 91  4 15 23 12  0.0010000  0  5 19 15 02 06 13
  22984358.359     8297331.951 2   6465438.479 1
  24454011.736    -3004206.632 2  -2340925.053 1
  21170946.163      446081.047 4    347647.937 3
  21800928.828    -6600507.745 3  -5143202.548 2
  23982242.438    -2859010.660 2  -2227802.342 1
 91  4 15 23 12 15.0010000  0  5 19 15 02 06 13
  22991895.440     8336935.054 2   6496297.995 1
  24451013.213    -3019896.858 2  -2353151.094 1
  21171912.992      451139.626 4    351589.698 3
  21797215.300    -6620022.364 3  -5158408.695 2
  23972165.217    -2911992.498 2  -2269087.106 1
 91  4 15 23 12 30.0010000  0  5 19 15 02 06 13
  22999440.015     8376600.791 2   6527206.273 1
  24448056.064    -3035493.683 2  -2365304.364 1
  21172884.018      456249.672 4    355571.568 3
  21793508.664    -6639503.260 3  -5173588.565 2
  23962085.596    -2964937.252 2  -2310342.542 1
 91  4 15 23 12 45.0010000  0  5 19 15 02 06 13
  23007006.482     8416327.763 2   6558162.281 1
  24445099.509    -3050998.237 2  -2377385.691 1
  21173867.033      461409.645 4    359592.334 3
  21789805.632    -6658951.471 3  -5188742.970 2
  23952021.558    -3017845.750 2  -2351570.145 1
 91  4 15 23 13  0.0010000  0  5 19 15 02 06 13
  23014582.232     8456114.461 2   6589164.831 1
  24442169.338    -3066411.916 2  -2389396.290 1
  21174854.253      466618.023 4    363650.822 3
  21786110.994    -6678368.257 3  -5203872.884 2
  23941958.724    -3070718.941 2  -2392769.809 1
 91  4 15 23 13 15.0010000  0  5 19 15 02 06 13
  23022160.391     8495960.463 2   6620213.605 1
  24439261.652    -3081734.428 2  -2401335.831 1
  21175854.063      471874.440 4    367746.750 3
  21782422.942    -6697753.688 3  -5218978.359 2
  23931903.691    -3123556.903 2  -2433942.463 1
 91  4 15 23 13 30.0010000  0  5 19 15 02 06 13
  23029749.333     8535865.988 2   6651308.743 1
  24436355.161    -3096965.305 2  -2413203.910 1
  21176867.057      477178.939 4    371880.140 3
  21778738.495    -6717107.481 3  -5234059.189 2
  23921848.945    -3176358.928 2  -2475087.105 1
 91  4 15 23 13 45.0010000  0  5 19 15 02 06 13
  23037365.263     8575832.317 2   6682451.268 1
  24433473.257    -3112103.108 2  -2424999.495 1
  21177886.350      482532.689 4    376051.907 3
  21775064.535    -6736428.158 3  -5249114.206 2
  23911812.496    -3229123.459 2  -2516202.521 1
 91  4 15 23 14  0.0010000  0  5 19 15 02 06 13
  23044982.693     8615858.419 2   6713640.340 1
  24430614.135    -3127148.590 2  -2436723.157 1
  21178913.741      487934.654 4    380261.241 3
  21771390.583    -6755716.643 3  -5264144.141 2
  23901778.141    -3281851.227 2  -2557288.899 1
 91  4 15 23 14 15.0010000  0  5 19 15 02 06 13
  23052610.314     8655944.111 2   6744875.876 1
  24427767.010    -3142101.634 2  -2448374.811 1
  21179948.626      493384.442 4    384507.848 3
  21767728.611    -6774972.690 3  -5279148.815 2
  23891752.781    -3334541.833 2  -2598346.722 1
 91  4 15 23 14 30.0010000  0  5 19 15 02 06 13
  23060244.828     8696088.743 2   6776157.364 1
  24424936.070    -3156962.265 2  -2459954.414 1
  21180996.101      498881.551 4    388791.322 3
  21764069.650    -6794196.685 3  -5294128.509 2
  23881729.219    -3387195.309 2  -2639375.164 1
 91  4 15 23 14 45.0010000  0  5 19 15 02 06 13
  23067890.135     8736292.901 2   6807485.183 1
  24422127.614    -3171729.591 2  -2471461.314 1
  21182049.274      504426.535 4    393112.097 3
  21760419.972    -6813387.750 3  -5309082.535 2
  23871722.749    -3439810.852 2  -2680374.046 1
 91  4 15 23 15  0.0010000  0  5 19 15 02 06 13
  23075553.729     8776554.289 2   6838857.611 1
  24419335.344    -3186405.685 2  -2482897.109 1
  21183112.638      510017.133 4    397468.427 3
  21756772.998    -6832547.876 3  -5324012.464 2
  23861718.374    -3492390.328 2  -2721345.289 1
 91  4 15 23 15 15.0010000  0  5 19 15 02 06 13
  23083229.312     8816869.955 2   6870272.341 1
  24416553.273    -3200993.147 2  -2494263.918 1
  21184185.294      515650.327 4    401857.950 3
  21753132.918    -6851679.870 3  -5338920.467 2
  23851721.196    -3544936.367 2  -2762290.051 1
 91  4 15 23 15 30.0010000  0  5 19 15 02 06 13
  23090909.694     8857242.534 2   6901731.414 1
  24413809.575    -3215489.018 2  -2505559.324 1
  21185267.243      521328.683 4    406282.657 3
  21749500.035    -6870780.752 3  -5353804.229 2
  23841718.322    -3597445.895 2  -2803206.795 1
 91  4 15 23 15 45.0010000  0  5 19 15 02 06 13
  23098601.768     8897672.396 2   6933235.136 1
  24411052.677    -3229892.537 2  -2516782.737 1
  21186355.491      527052.775 4    410743.003 3
  21745866.848    -6889849.906 3  -5368663.266 2
  23831743.027    -3649917.872 2  -2844094.287 1
 91  4 15 23 16  0.0010000  0  5 19 15 02 06 13
  23106307.932     8938158.572 2   6964782.683 1
  24408332.964    -3244204.076 2  -2527934.475 1
  21187452.734      532821.376 4    415238.034 3
  21742245.954    -6908888.007 3  -5383498.110 2
  23821758.440    -3702353.024 2  -2884953.045 1
 91  4 15 23 16 15.0010000  0  5 19 15 02 06 13
  23114025.195     8978698.971 2   6996372.567 1
  24405626.435    -3258425.419 2  -2539015.992 1
  21188561.364      538632.354 4    419766.085 3
  21738627.459    -6927896.902 3  -5398310.195 2
  23811781.644    -3754752.921 2  -2925783.952 1
 91  4 15 23 16 30.0010000  0  5 19 15 02 06 13
  23121749.045     9019293.837 2   7028004.844 1
  24402929.801    -3272556.280 2  -2550026.980 1
  21189671.198      544485.814 4    424327.233 3
  21735014.365    -6946876.270 3  -5413099.274 2
  23801825.536    -3807117.078 2  -2966587.426 1
 91  4 15 23 16 45.0010000  0  5 19 15 02 06 13
  23129484.892     9059942.630 2   7059679.177 1
  24400270.344    -3286596.870 2  -2560967.637 1
  21190796.920      550381.108 4    428920.990 3
  21731406.664    -6965826.321 3  -5427865.504 2
  23791860.135    -3859445.451 2  -3007362.563 1
 91  4 15 23 17  0.0010000  0  5 19 15 02 06 13
  23137224.029     9100644.169 2   7091394.593 1
  24397616.585    -3300547.911 2  -2571838.484 1
  21191923.532      556317.352 4    433546.653 3
  21727806.457    -6984747.874 3  -5442609.528 2
  23781911.522    -3911738.692 2  -3048110.772 1
 91  4 15 23 17 15.0010000  0  5 19 15 02 06 13
  23144979.063     9141399.692 2   7123152.064 1
  24394975.713    -3314407.766 2  -2582638.315 1
  21193066.347      562295.760 4    438205.165 3
  21724214.042    -7003639.528 3  -5457330.272 2
  23771968.013    -3963995.294 2  -3088830.348 1
 91  4 15 23 17 30.0010000  0  5 19 15 02 06 13
  23152753.283     9182206.744 2   7154949.708 1
  24392359.724    -3328178.548 2  -2593368.678 1
  21194205.253      568313.887 4    442894.628 3
  21720627.926    -7022503.372 3  -5472029.326 2
  23762033.185    -4016217.148 2  -3129522.586 1
 91  4 15 23 17 45.0010000  0  5 19 15 02 06 13
  23160522.103     9223067.310 2   7186789.016 1
  24389752.426    -3341858.093 2  -2604028.000 1
  21195362.159      574373.294 4    447616.266 3
  21717038.503    -7041337.334 3  -5486705.102 2
  23752098.662    -4068402.127 2  -3170186.422 1
 91  4 15 23 18  0.0010000  0  5 19 15 02 06 13
  23168309.812     9263982.517 2   7218670.930 1
  24387161.016    -3355444.802 2  -2614614.973 1
  21196521.455      580475.257 4    452371.058 3
  21713461.383    -7060139.838 3  -5501356.373 2
  23742175.832    -4120548.376 2  -3210819.630 1
 91  4 15 23 18 15.0010000  0  5 19 15 02 06 13
  23176103.219     9304950.530 2   7250593.965 1
  24384601.689    -3368940.248 2  -2625130.866 1
  21197690.341      586617.918 4    457157.567 3
  21709889.952    -7078912.496 3  -5515984.378 2
  23732265.295    -4172657.509 2  -3251423.929 1
 91  4 15 23 18 30.0010000  0  5 19 15 02 06 13
  23183918.508     9345970.332 2   7282557.371 1
  24382046.262    -3382344.973 2  -2635575.999 1
  21198869.129      592800.264 4    461974.999 3
  21706323.625    -7097656.087 3  -5530589.730 2
  23722351.459    -4224730.070 2  -3292000.177 1
 91  4 15 23 18 45.0010000  0  5 19 15 02 06 13
  23191725.701     9387043.120 2   7314562.083 1
  24379511.216    -3395657.388 2  -2645949.197 1
  21200048.807      599023.483 4    466824.277 3
  21702764.792    -7116369.082 3  -5545171.253 2
  23712445.119    -4276764.301 2  -3332546.554 1
 91  4 15 23 19  0.0010000  0  5 19 15 02 06 13
  23199557.481     9428170.544 2   7346609.331 1
  24376999.851    -3408875.621 2  -2656249.029 1
  21201241.983      605289.315 4    471706.758 3
  21699207.452    -7135049.655 3  -5559727.507 2
  23702553.463    -4328758.262 2  -3373061.542 1
 91  4 15 23 19 15.0010000  0  5 19 15 02 06 13
  23207392.559     9469349.763 2   7378696.985 1
  24374492.987    -3422002.081 2  -2666477.371 1
  21202440.552      611594.842 4    476620.176 3
  21695658.209    -7153700.257 3  -5574260.409 2
  23692669.904    -4380714.135 2  -3413546.440 1
 91  4 15 23 19 30.0010000  0  5 19 15 02 06 13
  23215239.328     9510581.933 2   7410825.866 1
  24372017.307    -3435035.541 2  -2676633.201 1
  21203652.321      617941.003 4    481565.250 3
  21692113.162    -7172319.537 3  -5588768.905 2
  23682788.448    -4432630.469 2  -3454000.489 1
 91  4 15 23 19 45.0010000  0  5 19 15 02 06 13
  23223088.489     9551865.470 2   7442994.752 1
  24369556.609    -3447977.064 2  -2686717.428 1
  21204865.277      624326.057 4    486540.619 3
  21688578.612    -7190908.954 3  -5603254.126 2
  23672913.579    -4484508.692 2  -3494425.287 1
 91  4 15 23 20  0.0010000  0  5 19 15 02 06 13
  23230957.446     9593201.922 2   7475204.917 1
  24367113.002    -3460824.988 2  -2696728.642 1
  21206087.534      630751.688 4    491547.627 3
  21685046.155    -7209466.676 3  -5617714.650 2
  23663051.013    -4536346.758 2  -3534818.802 1
 91  4 15 23 20 15.0010000  0  5 19 15 02 06 13
  23238833.288     9634591.762 2   7507456.683 1
  24364689.176    -3473578.349 2  -2706666.362 1
  21207320.575      637218.363 4    496586.613 3
  21681520.592    -7227991.804 3  -5632149.778 2
  23653190.235    -4588143.503 2  -3575180.086 1
 91  4 15 23 20 30.0010000  0  5 19 15 02 06 13
  23246722.627     9676032.252 2   7539747.903 1
  24362280.042    -3486239.557 2  -2716532.127 1
  21208556.626      643723.343 4    501655.435 3
  21678002.532    -7246486.852 3  -5646561.457 2
  23643344.456    -4639901.230 2  -3615510.624 1
 91  4 15 23 20 45.0010000  0  5 19 15 02 06 13
  23254618.563     9717525.588 2   7572080.241 1
  24359888.001    -3498806.025 2  -2726324.131 1
  21209800.757      650268.631 4    506755.667 3
  21674489.262    -7264949.450 3  -5660947.861 2
  23633509.164    -4691617.636 2  -3655809.310 1
 91  4 15 23 21  0.0010000  0  5 19 15 02 06 13
  23262523.791     9759068.805 2   7604451.514 1
  24357517.843    -3511280.409 2  -2736044.410 1
  21211055.096      656851.442 4    511885.139 3
  21670979.291    -7283382.197 3  -5675310.994 2
  23623672.974    -4743295.180 2  -3696077.419 1
 91  4 15 23 21 15.0010000  0  5 19 15 02 06 13
  23270434.411     9800665.321 2   7636864.244 1
  24355155.773    -3523659.054 2  -2745689.987 1
  21212314.522      663475.075 4    517046.426 3
  21667479.213    -7301781.354 3  -5689647.956 3
  23613847.271    -4794930.006 2  -3736312.581 1
 91  4 15 23 21 30.0010000  0  5 19 15 02 06 13
  23278366.023     9842313.611 2   7669317.440 1
  24352820.689    -3535942.857 2  -2755261.648 1
  21213584.741      670138.169 4    522238.458 3
  21663985.732    -7320148.086 3  -5703959.657 2
  23604026.672    -4846523.018 2  -3776515.111 1
 91  4 15 23 21 45.0010000  0  5 19 15 02 06 13
  23286291.938     9884014.377 2   7701811.463 1
  24350498.502    -3548131.001 2  -2764758.891 1
  21214859.156      676841.343 4    527461.729 3
  21660493.751    -7338481.491 3  -5718245.381 2
  23594216.866    -4898073.100 2  -3816684.250 1
 91  4 15 23 22  0.0010000  0  5 19 15 02 06 13
  23294239.736     9925765.424 2   7734344.657 1
  24348198.790    -3560225.530 2  -2774183.100 1
  21216139.871      683582.294 4    532714.443 3
  21657011.063    -7356783.567 3  -5732506.703 3
  23584413.352    -4949582.172 2  -3856820.959 1
 91  4 15 23 22 15.0010000  0  5 19 15 02 06 13
  23302194.426     9967567.252 2   7766917.431 1
  24345920.367    -3572225.442 2  -2783533.633 1
  21217431.074      690361.487 4    537996.939 3
  21653537.667    -7375053.444 3  -5746742.927 2
  23574620.630    -5001049.087 2  -3896925.278 1
 91  4 15 23 22 30.0010000  0  5 19 15 02 06 13
  23310165.311    10009419.870 2   7799529.773 1
  24343654.238    -3584130.466 2  -2792810.215 1
  21218727.983      697179.027 4    543309.322 3
  21650065.170    -7393290.964 3  -5760953.927 2
  23564838.404    -5052473.533 2  -3936996.496 1
 91  4 15 23 22 45.0010000  0  5 19 15 02 06 13
  23318140.086    10051323.068 2   7832181.529 1
  24341398.597    -3595940.244 2  -2802012.563 1
  21220034.175      704034.542 4    548651.310 3
  21646600.167    -7411495.974 3  -5775139.606 2
  23555055.576    -5103855.386 2  -3977034.073 1
 91  4 15 23 23  0.0010000  0  5 19 15 02 06 13
  23326125.358    10093278.491 2   7864873.970 1
  24339163.948    -3607652.745 2  -2811139.092 1
  21221349.363      710929.722 4    554024.182 3
  21643143.864    -7429666.483 3  -5789298.405 2
  23545287.433    -5155192.363 2  -4017037.154 1
 91  4 15 23 23 15.0010000  0  5 19 15 02 06 13
  23334114.531    10135286.512 2   7897607.427 1
  24336957.473    -3619267.653 2  -2820189.591 1
  21222665.755      717864.742 4    559428.106 3
  21639691.452    -7447802.081 3  -5803429.992 2
  23535529.795    -5206483.926 2  -4057004.358 1
 91  4 15 23 23 30.0010000  0  5 19 15 02 06 13
  23342121.083    10177347.880 2   7930382.471 1
  24334774.686    -3630783.799 2  -2829163.183 1
  21223995.034      724840.554 4    564863.822 3
  21636248.934    -7465901.479 3  -5817533.371 3
  23525779.346    -5257728.623 2  -4096935.498 1
 91  4 15 23 23 45.0010000  0  5 19 15 02 06 13
  23350132.443    10219463.831 2   7963199.989 1
  24332600.590    -3642199.708 2  -2838058.603 1
  21225328.807      731858.464 4    570332.340 3
  21632809.714    -7483963.183 3  -5831607.383 2
  23516030.991    -5308924.911 2  -4136828.491 1
 91  4 15 23 24  0.0010000  0  5 19 15 02 06 13
  23358153.985    10261632.414 2   7996058.553 1
  24330444.781    -3653516.562 2  -2846876.852 1
  21226671.584      738916.398 4    575832.040 3
  21629381.592    -7501988.804 3  -5845653.279 3
  23506302.425    -5360074.350 2  -4176685.424 1
 91  4 15 23 24 15.0010000  0  5 19 15 02 06 13
  23366193.519    10303852.306 2   8028957.076 1
  24328311.457    -3664735.572 2  -2855618.838 1
  21228022.449      746013.058 4    581361.919 3
  21625956.464    -7519979.403 3  -5859671.883 2
  23496573.859    -5411177.660 2  -4216505.945 1
 91  4 15 23 24 30.0010000  0  5 19 15 02 06 13
  23374239.352    10346122.605 2   8061894.905 1
  24326192.826    -3675857.701 2  -2864285.388 1
  21229382.004      753147.403 4    586921.165 3
  21622540.331    -7537935.668 3  -5873663.740 3
  23486851.592    -5462235.447 2  -4256291.470 1
 91  4 15 23 24 45.0010000  0  5 19 15 02 06 13
  23382289.382    10388445.937 2   8094874.032 1
  24324092.178    -3686879.611 2  -2872873.835 1
  21230745.163      760322.179 4    592511.909 3
  21619130.785    -7555854.655 3  -5887626.538 2
  23477144.612    -5513244.739 2  -4296038.754 1
 91  4 15 23 25  0.0010000  0  5 19 15 02 06 13
  23390345.999    10430822.865 2   8127894.909 1
  24322014.023    -3697800.420 2  -2881383.448 1
  21232121.810      767537.850 4    598134.518 3
  21615726.640    -7573735.484 3  -5901559.617 3
  23467449.027    -5564204.334 2  -4335747.743 1
 91  4 15 23 25 15.0010000  0  5 19 15 02 06 13
  23398422.413    10473249.623 2   8160954.629 1
  24319956.843    -3708623.467 2  -2889816.860 1
  21233500.255      774790.775 4    603786.166 3
  21612331.194    -7591581.480 3  -5915465.550 2
  23457758.528    -5615117.419 2  -4375420.518 1
 91  4 15 23 25 30.0010000  0  5 19 15 02 06 13
  23406512.910    10515730.400 2   8194056.448 1
  24317918.552    -3719344.366 2  -2898170.808 1
  21234886.797      782085.162 4    609470.111 3
  21608944.735    -7609388.388 3  -5929341.017 2
  23448088.124    -5665979.741 2  -4415053.298 1
 91  4 15 23 25 45.0010000  0  5 19 15 02 06 13
  23414605.510    10558263.934 2   8227199.394 1
  24315898.253    -3729963.980 2  -2906445.765 1
  21236280.825      789419.767 4    615185.403 3
  21605562.778    -7627157.035 3  -5943186.677 2
  23438412.327    -5716791.912 2  -4454646.950 1
 91  4 15 23 26  0.0010000  0  5 19 15 02 06 13
  23422710.394    10600850.316 2   8260383.495 1
  24313895.640    -3740482.086 2  -2914641.561 1
  21237688.657      796794.299 4    620931.796 3
  21602188.019    -7644887.220 3  -5957002.362 2
  23428744.618    -5767553.498 2  -4494201.199 1
 91  4 15 23 26 15.0010000  0  5 19 15 02 06 13
  23430826.080    10643491.347 2   8293610.181 1
  24311911.917    -3750896.205 2  -2922756.410 1
  21239097.674      804210.867 4    626710.957 3
  21598820.450    -7662576.610 3  -5970786.266 2
  23419106.593    -5818262.177 2  -4533714.272 1
 91  4 15 23 26 30.0010000  0  5 19 15 02 06 13
  23438953.153    10686183.896 2   8326876.999 1
  24309949.169    -3761209.177 2  -2930792.416 1
  21240515.697      811666.311 4    632520.402 3
  21595466.073    -7680228.100 3  -5984540.628 2
  23409461.971    -5868920.647 2  -4573188.609 1
 91  4 15 23 26 45.0010000  0  5 19 15 02 06 13
  23447079.326    10728926.401 2   8360182.798 1
  24308007.117    -3771422.286 2  -2938750.587 1
  21241943.604      819159.053 4    638358.915 3
  21592107.796    -7697843.053 3  -5998266.527 3
  23399834.136    -5919530.139 2  -4612624.385 1
 91  4 15 23 27  0.0010000  0  5 19 15 02 06 13
  23455225.289    10771721.067 2   8393529.150 1
  24306088.142    -3781533.287 2  -2946629.187 1
  21243375.717      826691.262 4    644228.192 3
  21588766.307    -7715418.884 3  -6011961.938 2
  23390207.793    -5970088.007 2  -4652019.898 1
 91  4 15 23 27 15.0010000  0  5 19 15 02 06 13
  23463373.947    10814566.020 2   8426914.726 1
  24304178.164    -3791543.741 2  -2954429.512 1
  21244813.825      834261.079 4    650126.756 3
  21585426.919    -7732957.163 3  -6025628.089 2
  23380604.842    -6020595.567 2  -4691376.214 1
 91  4 15 23 27 30.0010000  0  5 19 15 02 06 13
  23471537.892    10857460.030 2   8460338.559 1
  24302294.273    -3801454.446 2  -2962152.031 1
  21246264.514      841867.472 4    656053.825 3
  21582100.123    -7750458.806 3  -6039265.695 2
  23371004.587    -6071053.401 2  -4730693.785 1
 91  4 15 23 27 45.0010000  0  5 19 15 02 06 13
  23479705.737    10900403.054 2   8493800.552 1
  24300426.864    -3811265.261 2  -2969796.757 1
  21247718.213      849509.954 4    662009.019 3
  21578773.326    -7767923.697 3  -6052874.667 2
  23361410.030    -6121461.396 2  -4769972.507 1
 91  4 15 23 28  0.0010000  0  5 19 15 02 06 13
  23487901.467    10943395.845 2   8527301.317 1
  24298572.648    -3820974.921 2  -2977362.629 1
  21249178.796      857189.632 4    667993.199 3
  21575456.720    -7785350.602 3  -6066454.040 2
  23351827.767    -6171818.160 2  -4809211.790 1
 91  4 15 23 28 15.0010000  0  5 19 15 02 06 13
  23496087.897    10986438.043 2   8560840.616 1
  24296752.904    -3830583.541 2  -2984849.781 1
  21250647.179      864906.066 4    674006.014 3
  21572151.806    -7802739.507 3  -6080003.789 2
  23342253.295    -6222123.658 2  -4848410.664 1
 91  4 15 23 28 30.0010000  0  5 19 15 02 06 13
  23504286.620    11029529.938 2   8594418.629 1
  24294944.861    -3840090.405 2  -2992257.639 1
  21252121.566      872659.374 4    680047.559 3
  21568846.002    -7820089.995 3  -6093523.619 3
  23332686.021    -6272377.288 2  -4887569.087 1
 91  4 15 23 28 45.0010000  0  5 19 15 02 06 13
  23512499.434    11072670.710 2   8628034.712 1
  24293150.298    -3849496.025 2  -2999586.604 1
  21253605.838      880448.879 4    686117.320 3
  21565553.975    -7837402.484 3  -6107013.838 2
  23323139.129    -6322579.301 2  -4926687.374 1
 91  4 15 23 29  0.0010000  0  5 19 15 02 06 13
  23520715.249    11115858.578 2   8661687.504 1
  24291380.331    -3858802.086 2  -3006837.982 1
  21255091.305      888272.732 4    692213.838 3
  21562264.356    -7854678.612 3  -6120475.719 3
  23313593.136    -6372731.383 2  -4965767.141
 91  4 15 23 29 15.0010000  0  5 19 15 02 06 13
  23528932.862    11159095.678 2   8695378.667 1
  24289630.135    -3868005.913 2  -3014009.706 1
  21256588.769      896133.051 4    698338.767 3
  21558981.926    -7871915.848 3  -6133907.299 3
  23304060.038    -6422830.822 2  -5004805.491 1
 91  4 15 23 29 30.0010000  0  5 19 15 02 06 13
  23537169.060    11202382.863 2   8729108.881 1
  24287893.141    -3877106.455 2  -3021100.956 1
  21258091.931      904030.573 4    704492.686 3
  21555713.893    -7889113.016 3  -6147307.656 2
  23294538.327    -6472876.132 2  -5043801.590 1
 91  4 15 23 29 45.0010000  0  5 19 15 02 06 13
  23545416.050    11245720.731 2   8762878.542 1
  24286182.827    -3886102.859 2  -3028111.040 1
  21259601.384      911965.983 4    710676.128 3
  21552444.350    -7906269.387 3  -6160676.218 2
  23285028.307    -6522866.511 2  -5082754.912 1
 91  4 15 23 30  0.0010000  0  5 19 15 02 06 13
  23553684.321    11289106.637 2   8796685.642 1
  24284496.194    -3894997.263 2  -3035041.654 1
  21261119.230      919936.816 4    716887.174 3
  21549188.305    -7923387.075 3  -6174014.640 3
  23275515.600    -6572804.061 2  -5121667.060 1
 91  4 15 23 30 15.0010000  0  5 19 15 02 06 13
  23561949.904    11332540.700 2   8830530.253 1
  24282820.354    -3903789.212 2  -3041892.447 1
  21262643.079      927943.354 4    723126.045 3
  21545940.654    -7940465.478 3  -6187322.462 3
  23266029.862    -6622688.238 2  -5160537.630 1
 91  4 15 23 30 30.0010000  0  5 19 15 02 06 13
  23570225.373    11376024.030 2   8864413.315 1
  24281163.403    -3912477.414 2  -3048662.401 1
  21264171.421      935986.489 4    729393.438 3
  21542699.599    -7957503.428 3  -6200598.755 2
  23256544.727    -6672517.475 2  -5199365.407 1
 91  4 15 23 30 45.0010000  0  5 19 15 02 06 13
  23578507.142    11419556.347 2   8898334.456 1
  24279523.833    -3921061.696 2  -3055351.352 1
  21265708.157      944066.205 4    735689.353 3
  21539464.241    -7974500.639 3  -6213843.311 3
  23247071.588    -6722291.299 2  -5238149.986 1
 91  4 15 23 31  0.0010000  0  5 19 15 02 06 13
  23586803.892    11463139.883 2   8932295.540 1
  24277910.054    -3929539.593 2  -3061957.417 1
  21267256.288      952184.650 4    742015.397 3
  21536235.471    -7991454.673 3  -6227054.207 3
  23237615.533    -6772006.993 2  -5276889.277 1
 91  4 15 23 31 15.0010000  0  5 19 15 02 06 13
  23595101.854    11506772.771 2   8966295.101 1
  24276329.850    -3937912.892 2  -3068481.978 1
  21268807.708      960339.748 4    748370.023 3
  21533017.206    -8008367.166 3  -6240232.740 3
  23228162.174    -6821666.437 2  -5315584.739 1
 91  4 15 23 31 30.0010000  0  5 19 15 02 06 13
  23603420.190    11550458.907 2   9000336.166 1
  24274749.340    -3946177.355 2  -3074921.767 1
  21270365.428      968535.257 4    754756.139 3
  21529809.123    -8025234.035 3  -6253375.720 3
  23218721.118    -6871265.286 2  -5354232.969 1
 91  4 15 23 31 45.0010000  0  5 19 15 02 06 13
  23611732.540    11594194.308 2   9034415.588 1
  24273202.108    -3954336.275 2  -3081279.291 1
  21271931.847      976767.457 4    761170.851 3
  21526607.636    -8042058.748 3  -6266485.852 3
  23209294.441    -6920806.914 2  -5392836.606 1
 91  4 15 23 32  0.0010000  0  5 19 15 02 06 13
  23620073.063    11637981.310 2   9068535.211 1
  24271665.677    -3962387.189 2  -3087552.611 1
  21273509.059      985038.806 4    767616.062 3
  21523414.849    -8058838.642 3  -6279561.066 3
  23199882.456    -6970288.432 2  -5431393.503 1
 91  4 15 23 32 15.0010000  0  5 19 15 02 06 13
  23628410.289    11681820.194 2   9102695.302 1
  24270149.026    -3970329.430 2  -3093741.315 1
  21275090.162      993349.373 4    774091.835 3
  21520231.056    -8075573.247 3  -6292600.984 3
  23190476.169    -7019709.551 2  -5469903.228 1
 91  4 15 23 32 30.0010000  0  5 19 15 02 06 13
  23636769.406    11725713.363 2   9136897.655 1
  24268665.950    -3978160.219 2  -3099843.143 1
  21276674.869     1001701.444 4    780599.958 3
  21517055.352    -8092259.813 3  -6305603.456 3
  23181081.871    -7069067.069 2  -5508363.433 1
 91  4 15 23 32 45.0010000  0  5 19 15 02 06 13
  23645125.521    11769660.014 2   9171141.742 1
  24267193.972    -3985880.060 2  -3105858.560 1
  21278275.455     1010094.693 4    787140.151 3
  21513890.145    -8108898.539 3  -6318568.669 3
  23171698.671    -7118361.197 2  -5546774.250 1
 91  4 15 23 33  0.0010000  0  5 19 15 02 06 13
  23653499.025    11813657.650 2   9205425.527 1
  24265750.167    -3993491.353 2  -3111789.358 1
  21279879.645     1018526.479 4    793710.373 3
  21510730.931    -8125491.813 3  -6331498.458 3
  23162328.951    -7167594.032 2  -5585137.310 1
 91  4 15 23 33 15.0010000  0  5 19 15 02 06 13
  23661887.816    11857710.498 2   9239752.343 1
  24264319.860    -4000989.627 2  -3117632.069 1
  21281493.729     1027001.105 4    800313.987 3
  21507584.308    -8142035.138 3  -6344389.324 3
  23152967.336    -7216761.128 2  -5623449.119 1
 91  4 15 23 33 30.0010000  0  5 19 15 02 06 13
  23670277.209    11901815.539 2   9274119.760 1
  24262914.733    -4008377.555 2  -3123388.808 1
  21283112.612     1035515.339 4    806948.470 3
  21504445.485    -8158531.199 3  -6357243.355 3
  23143633.895    -7265865.061 2  -5661711.706 1
 91  4 15 23 33 45.0010000  0  5 19 15 02 06 13
  23678680.693    11945970.228 2   9308525.922 1
  24261523.401    -4015657.419 2  -3129061.403 1
  21284740.185     1044066.630 4    813611.817 3
  21501312.054    -8174982.304 3  -6370062.365 3
  23134300.455    -7314907.996 2  -5699926.841 1
 91  4 15 23 34  0.0010000  0  5 19 15 02 06 13
  23687089.272    11990177.974 2   9342973.428 1
  24260162.939    -4022825.470 2  -3134646.798 1
  21286374.354     1052658.524 4    820306.804 3
  21498190.908    -8191384.618 3  -6382843.361 3
  23124980.511    -7363885.898 2  -5738091.238 1
 91  4 15 23 34 15.0010000  0  5 19 15 02 06 13
  23695516.139    12034438.508 2   9377462.094 1
  24258825.868    -4029881.466 2  -3140144.859 1
  21288017.815     1061290.776 4    827033.245 3
  21495080.869    -8207737.942 3  -6395586.171 3
  23115674.947    -7412798.379 2  -5776204.631 1
 91  4 15 23 34 30.0010000  0  5 19 15 02 06 13
  23703952.892    12078750.026 2   9411990.436 1
  24257500.786    -4036826.624 2  -3145556.626 1
  21289664.872     1069961.706 4    833789.818 3
  21491976.213    -8224043.791 3  -6408291.993 3
  23106373.894    -7461647.050 2  -5814268.284 1
 91  4 15 23 34 45.0010000  0  5 19 15 02 06 13
  23712384.262    12123114.030 2   9446559.675 1
  24256196.687    -4043659.633 2  -3150880.949 1
  21291323.323     1078672.717 4    840577.624 3
  21488885.352    -8240300.453 3  -6420959.494 3
  23097092.315    -7510430.129 2  -5852280.907 1
 91  4 15 23 35  0.0010000  0  5 19 15 02 06 13
  23720842.304    12167531.845 2   9481170.882 1
  24254925.866    -4050379.031 2  -3156116.755 1
  21292990.770     1087425.082 4    847397.652 3
  21485800.494    -8256506.285 3  -6433587.372 3
  23087821.538    -7559145.888 2  -5890241.049 1
 91  4 15 23 35 15.0010000  0  5 19 15 02 06 13
  23729310.537    12211999.054 2   9515820.551 1
  24253661.938    -4056988.697 2  -3161267.119 1
  21294663.609     1096214.370 4    854246.453 3
  21482722.223    -8272665.387 3  -6446178.851 3
  23078565.445    -7607798.081 2  -5928151.649 1
 91  4 15 23 35 30.0010000  0  5 19 15 02 06 13
  23737777.583    12256516.996 2   9550509.784 1
  24252425.599    -4063487.243 2  -3166330.830 1
  21296343.349     1105041.902 4    861125.051 3
  21479657.442    -8288776.090 3  -6458732.606 3
  23069318.042    -7656384.946 2  -5966011.357 1
 91  4 15 23 35 45.0010000  0  5 19 15 02 06 13
  23746250.615    12301087.018 2   9585239.587 1
  24251199.146    -4069872.889 2  -3171306.609 1
  21298030.279     1113909.195 4    868034.636 3
  21476602.554    -8304836.674 3  -6471247.317 3
  23060089.835    -7704904.651 2  -6003818.732 1
 91  4 15 23 36  0.0010000  0  5 19 15 02 06 13
  23754748.827    12345708.243 2   9620009.282 1
  24250019.459    -4076145.854 2  -3176194.521 1
  21299726.205     1122815.604 4    874974.699 3
  21473555.467    -8320847.412 3  -6483723.177 3
  23050865.816    -7753357.536 2  -6041574.476 1
 91  4 15 23 36 15.0010000  0  5 19 15 02 06 13
  23763243.148    12390382.101 2   9654819.979 1
  24248844.876    -4082304.822 2  -3180993.664 1
  21301428.125     1131762.235 4    881946.108 3
  21470518.265    -8336806.949 3  -6496159.151 3
  23041653.191    -7801742.118 2  -6079276.569 1
 91  4 15 23 36 30.0010000  0  5 19 15 02 06 13
  23771762.048    12435105.103 2   9689668.951 1
  24247689.776    -4088352.620 2  -3185706.194 1
  21303137.845     1140745.825 4    888946.311 3
  21467489.466    -8352718.221 3  -6508557.521 3
  23032460.958    -7850061.268 2  -6116927.677 1
 91  4 15 23 36 45.0010000  0  5 19 15 02 06 13
  23780282.151    12479878.058 2   9724556.893 1
  24246562.553    -4094288.374 2  -3190331.326 1
  21304855.356     1149767.163 4    895975.935 3
  21464469.653    -8368580.063 3  -6520917.363 3
  23023281.314    -7898313.589 2  -6154527.137 1
 91  4 15 23 37  0.0010000  0  5 19 15 02 06 13
  23788815.447    12524702.553 2   9759484.948 1
  24245458.417    -4100110.178 2  -3194867.762 1
  21306579.760     1158828.107 4    903036.415 3
  21461464.534    -8384390.597 3  -6533237.224 3
  23014112.158    -7946496.971 2  -6192072.467 1
 91  4 15 23 37 15.0010000  0  5 19 15 02 06 13
  23797344.843    12569577.204 2   9794452.095 1
  24244368.075    -4105818.940 2  -3199316.117 1
  21308308.362     1167926.968 4    910126.445 3
  21458463.917    -8400150.895 3  -6545517.949 3
  23004958.594    -7994612.476 2  -6229564.905 1
 91  4 15 23 37 30.0010000  0  5 19 15 02 06 13
  23805899.420    12614500.186 2   9829456.931 1
  24243309.204    -4111416.192 2  -3203677.529 1
  21310047.162     1177062.054 4    917244.699 3
  21455477.085    -8415862.245 3  -6557760.535 3
  22995810.728    -8042661.331 2  -6267005.338 1
 91  4 15 23 37 45.0010000  0  5 19 15 02 06 13
  23814459.389    12659474.787 2   9864501.968 1
  24242261.135    -4116898.592 2  -3207949.485 1
  21311795.552     1186236.399 4    924393.537 3
  21452496.544    -8431521.327 3  -6569962.377 3
  22986679.954    -8090639.927 2  -6304391.085 1
 91  4 15 23 38  0.0010000  0  5 19 15 02 06 13
  23823032.559    12704498.206 2   9899585.079 1
  24241247.836    -4122268.360 2  -3212133.637 1
  21313547.240     1195447.613 4    931571.112 3
  21449527.102    -8447130.406 3  -6582125.267 3
  22977565.958    -8138550.471 2  -6341723.763 1
 91  4 15 23 38 15.0010000  0  5 19 15 02 06 13
  23831604.821    12749569.999 2   9934705.861 1
  24240248.026    -4127525.657 2  -3216230.193 1
  21315307.321     1204695.391 4    938777.182 3
  21446561.551    -8462689.434 3  -6594249.154 3
  22968455.566    -8186393.190 2  -6379003.623 1
 91  4 15 23 38 30.0010000  0  5 19 15 02 06 13
  23840184.587    12794690.525 2   9969864.590 1
  24239259.314    -4132670.053 2  -3220238.791 1
  21317073.999     1213980.035 4    946011.975 3
  21443611.600    -8478197.992 3  -6606333.716 3
  22959366.463    -8234167.265 2  -6416229.977 1
 91  4 15 23 38 45.0010000  0  5 19 15 02 06 13
  23848775.434    12839860.541 2  10005061.859 1
  24238305.974    -4137700.715 2  -3224158.700 1
  21318846.068     1223302.051 4    953275.879 3
  21440672.730    -8493655.076 3  -6618378.166 3
  22950289.348    -8281871.545 2  -6453401.981 1
 91  4 15 23 39  0.0010000  0  5 19 15 02 06 13
  23857392.369    12885079.005 2  10040296.931 1
  24237374.516    -4142618.058 2  -3227990.361 1
  21320627.735     1232660.489 4    960568.173 3
  21437737.761    -8509061.205 3  -6630382.917 3
  22941224.518    -8329506.483 2  -6490519.921 1
 91  4 15 23 39 15.0010000  0  5 19 15 02 06 13
  23866003.606    12930345.821 2  10075569.640 1
  24236450.553    -4147422.036 2  -3231733.641 1
  21322415.397     1242055.584 4    967889.030 3
  21434818.086    -8524416.040 3  -6642347.702 3
  22932170.185    -8377071.788 2  -6527583.626 1
 91  4 15 23 39 30.0010000  0  5 19 15 02 06 13
  23874618.744    12975661.205 2  10110880.282 1
  24235562.267    -4152111.964 2  -3235388.070 1
  21324209.061     1251487.520 4    975238.598 3
  21431906.500    -8539719.082 3  -6654272.121 3
  22923137.141    -8424566.692 2  -6564592.460 1
 91  4 15 23 39 45.0010000  0  5 19 15 02 06 13
  23883262.360    13021024.820 2  10146228.430 1
  24234683.579    -4156687.837 2  -3238953.578 1
  21326013.509     1260956.052 4    982616.681 3
  21429006.012    -8554970.368 3  -6666156.204 3
  22914110.091    -8471991.201 2  -6601546.425 1
 91  4 15 23 40  0.0010000  0  5 19 15 02 06 13
  23891892.488    13066438.627 2  10181615.712 1
  24233845.654    -4161147.586 2  -3242428.678 1
  21327821.858     1270462.995 4    990024.690 3
  21426111.213    -8570167.569 3  -6677998.155 3
  22905095.928    -8519342.926 2  -6638443.724 1
 91  4 15 23 40 15.0010000  0  5 19 15 02 06 13
  23900550.797    13111899.461 2  10217039.644 1
  24233018.828    -4165494.372 2  -3245815.767 1
  21329637.100     1280004.983 4    997460.015 3
  21423231.403    -8585313.807 3  -6689800.389 3
  22896103.953    -8566624.845 2  -6675286.609 1
 91  4 15 23 40 30.0010000  0  5 19 15 02 06 13
  23909221.391    13157409.491 2  10252501.867 1
  24232206.992    -4169725.359 2  -3249112.539 1
  21331461.040     1289584.441 4   1004924.530 3
  21420359.098    -8600406.175 3  -6701560.646 3
  22887117.981    -8613833.835 2  -6712072.629 1
 91  4 15 23 40 45.0010000  0  5 19 15 02 06 13
  23917877.301    13202971.526 2  10288004.622 1
  24231432.630    -4173837.722 2  -3252316.937 1
  21333292.170     1299204.236 4   1012420.476 3
  21417496.075    -8615441.777 3  -6713276.672 3
  22878146.990    -8660966.854 2  -6748799.494 1
 91  4 15 23 41  0.0010000  0  5 19 15 02 06 13
  23926557.188    13248580.366 2  10323543.915 1
  24230668.458    -4177835.967 2  -3255432.402 1
  21335128.701     1308859.439 4   1019944.014 3
  21414645.347    -8630425.095 3  -6724951.961 3
  22869191.590    -8708028.609 2  -6785470.822 1
 91  4 15 23 41 15.0010000  0  5 19 15 02 06 13
  23935245.774    13294239.696 2  10359122.501 1
  24229929.764    -4181716.146 2  -3258455.865 1
  21336972.421     1318553.834 4   1027498.095 3
  21411806.318    -8645352.181 3  -6736583.429 3
  22860249.680    -8755014.906 2  -6822083.294 1
 91  4 15 23 41 30.0010000  0  5 19 15 02 06 13
  23943955.046    13339950.684 2  10394741.310 1
  24229215.065    -4185477.115 2  -3261386.460 1
  21338826.341     1328288.379 4   1035083.454 3
  21408975.675    -8660221.466 3  -6748169.855 3
  22851321.860    -8801923.997 2  -6858635.680 1
 91  4 15 23 41 45.0010000  0  5 19 15 02 06 13
  23952648.431    13385711.662 2  10430399.123 1
  24228518.644    -4189120.217 2  -3264225.157 1
  21340683.253     1338061.371 4   1042698.772 3
  21406158.521    -8675034.488 3  -6759712.438 3
  22842412.931    -8848757.386 2  -6895129.025 1
 91  4 15 23 42  0.0010000  0  5 19 15 02 06 13
  23961371.786    13431524.123 2  10466097.014 1
  24227845.912    -4192643.574 2  -3266970.609 1
  21342549.458     1347874.362 4   1050345.268 3
  21403348.573    -8689789.335 3  -6771209.696 3
  22833516.888    -8895513.275 2  -6931562.027 1
 91  4 15 23 42 15.0010000  0  5 19 15 02 06 13
  23970099.949    13477390.951 2  10501837.276 1
  24227198.962    -4196044.114 2  -3269620.314 1
  21344429.161     1357730.447 4   1058025.340 3
  21400550.012    -8704482.674 3  -6782659.020 3
  22824636.429    -8942188.090 2  -6967931.861 1
 91  4 15 23 42 30.0010000  0  5 19 15 02 06 13
  23978844.890    13523307.182 2  10537616.068 1
  24226569.996    -4199326.286 2  -3272177.772 1
  21346309.456     1367624.552 4   1065735.034 3
  21397767.932    -8719119.303 3  -6794064.155 3
  22815763.779    -8988786.312 2  -7004241.970 1
 91  4 15 23 42 45.0010000  0  5 19 15 02 06 13
  23987588.042    13569272.987 2  10573433.481 1
  24225974.010    -4202489.827 2  -3274642.828 1
  21348202.046     1377556.969 4   1073474.579 3
  21394991.254    -8733698.613 3  -6805424.618 3
  22806917.801    -9035307.365 2  -7040491.985 1
 91  4 15 23 43  0.0010000  0  5 19 15 02 06 13
  23996351.873    13615287.115 2  10609288.514 1
  24225393.310    -4205535.779 2  -3277016.229 1
  21350097.637     1387526.609 4   1081243.137 3
  21392228.971    -8748221.446 3  -6816741.093 3
  22798073.018    -9081752.002 2  -7076682.436 1
 91  4 15 23 43 15.0010000  0  5 19 15 02 06 13
  24005113.304    13661351.628 2  10645182.799 1
  24224835.095    -4208461.883 2  -3279296.296 1
  21352004.012     1397535.559 4   1089042.330 3
  21389476.575    -8762685.410 3  -6828011.675 3
  22789253.129    -9128117.807 2  -7112811.423 1
 91  4 15 23 43 30.0010000  0  5 19 15 02 06 13
  24013881.035    13707465.068 2  10681115.252 1
  24224301.162    -4211269.118 2  -3281483.676 1
  21353913.092     1407582.317 4   1096870.975 3
  21386734.674    -8777091.547 3  -6839237.206 3
  22780439.233    -9174406.007 2  -7148879.953 1
 91  4 15 23 43 45.0010000  0  5 19 15 02 06 13
  24022669.750    13753628.924 2  10717086.979 1
  24223793.919    -4213955.698 2  -3283577.062 1
  21355835.661     1417668.451 4   1104730.306 3
  21384005.661    -8791438.085 3  -6850416.297 3
  22771651.111    -9220614.451 2  -7184886.388 1
 91  4 15 23 44  0.0010000  0  5 19 15 02 06 13
  24031463.264    13799841.595 2  10753096.775 1
  24223310.051    -4216523.047 2  -3285577.561 1
  21357760.333     1427792.156 4   1112618.917 3
  21381285.940    -8805726.316 3  -6861549.953 3
  22762871.689    -9266744.404 2  -7220831.623 1
 91  4 15 23 44 15.0010000  0  5 19 15 02 06 13
  24040266.969    13846103.883 2  10789145.169 1
  24222830.684    -4218970.057 2  -3287484.257 1
  21359696.391     1437954.504 4   1120537.635 3
  21378580.921    -8819955.124 3  -6872637.304 3
  22754103.958    -9312794.505 2  -7256714.650 1
 91  4 15 23 44 30.0010000  0  5 19 15 02 06 13
  24049070.673    13892415.734 2  10825232.226 1
  24222398.085    -4221296.437 2  -3289296.983 1
  21361633.653     1448155.438 4   1128486.417 3
  21375880.988    -8834124.022 3  -6883677.970 3
  22745354.218    -9358764.432 2  -7292535.226 1
 91  4 15 23 44 45.0010000  0  5 19 15 02 06 13
  24057901.059    13938773.647 2  10861355.156 1
  24221975.973    -4223505.562 2  -3291018.333 1
  21363583.497     1458391.639 4   1136462.689 3
  21373192.145    -8848236.162 3  -6894674.418 3
  22736623.359    -9404657.104 2  -7328295.542 1
 91  4 15 23 45  0.0010000  0  5 19 15 02 06 13
  24066732.048    13985178.407 2  10897514.543 1
  24221574.251    -4225596.313 2  -3292647.424 1
  21365538.741     1468663.830 4   1144466.997 3
  21370520.700    -8862290.402 3  -6905625.725 3
  22727910.797    -9450471.368 2  -7363994.852 1
 91  4 15 23 45 15.0010000  0  5 19 15 02 06 13
  24075563.934    14031631.937 2  10933712.064 1
  24221201.611    -4227566.441 2  -3294182.538 1
  21367497.589     1478974.171 4   1152501.042 3
  21367860.336    -8876284.369 3  -6916530.093 3
  22719205.424    -9496204.799 2  -7399631.092 1
 91  4 15 23 45 30.0010000  0  5 19 15 02 06 13
  24084422.206    14078134.921 2  10969947.978 1
  24220840.958    -4229414.861 2  -3295622.826 1
  21369469.028     1489323.379 4   1160565.365 3
  21365204.474    -8890217.210 3  -6927386.824 3
  22710519.535    -9541856.339 2  -7435203.548 1
 91  4 15 23 45 45.0010000  0  5 19 15 02 06 13
  24093271.176    14124683.252 2  11006219.324 1
  24220520.180    -4231145.395 2  -3296971.230 1
  21371443.459     1499707.331 4   1168656.767 3
  21362564.500    -8904092.537 3  -6938198.732 3
  22701847.736    -9587429.402 2  -7470714.865 1
 91  4 15 23 46  0.0010000  0  5 19 15 02 06 13
  24102139.333    14171278.936 2  11042527.553 1
  24220220.088    -4232756.100 2  -3298226.282 1
  21373429.581     1510128.167 4   1176776.912 3
  21359936.820    -8917907.988 3  -6948963.981 3
  22693192.734    -9632921.967 3  -7506163.441 1
 91  4 15 23 46 15.0010000  0  5 19 15 02 06 13
  24111024.583    14217922.064 2  11078872.704 1
  24219937.386    -4234246.563 2  -3299387.634 1
  21375418.706     1520585.987 4   1184925.866 3
  21357322.036    -8931663.117 3  -6959682.231 3
  22684545.819    -9678333.268 2  -7541548.732 1
 91  4 15 23 46 30.0010000  0  5 19 15 02 06 13
  24119910.434    14264611.643 2  11115254.105 1
  24219666.375    -4235617.407 2  -3300455.794 1
  21377417.724     1531079.727 4   1193102.812 3
  21354713.542    -8945358.669 3  -6970354.058 3
  22675919.583    -9723663.940 2  -7576871.127 1
 91  4 15 23 46 45.0010000  0  5 19 15 02 06 13
  24128802.280    14311349.528 2  11151673.126 1
  24219430.440    -4236866.708 2  -3301429.247 1
  21379418.234     1541611.295 4   1201309.242 3
  21352118.233    -8958992.423 3  -6980977.729 2
  22667312.246    -9768911.729 3  -7612128.965 1
 91  4 15 23 47  0.0010000  0  5 19 15 02 06 13
  24137706.716    14358136.933 2  11188130.702 1
  24219228.078    -4237992.626 2  -3302306.498 1
  21381428.944     1552182.218 4   1209546.334 3
  21349539.125    -8972562.563 3  -6991551.827 3
  22658712.098    -9814074.562 3  -7647320.641 1
 91  4 15 23 47 15.0010000  0  5 19 15 02 06 13
  24146608.753    14404971.572 2  11224625.097 1
  24219028.718    -4238997.126 2  -3303089.181 1
  21383448.048     1562790.242 4   1217812.331 3
  21346970.497    -8986071.248 3  -7002078.049 3
  22650143.134    -9859154.528 3  -7682447.721 1
 91  4 15 23 47 30.0010000  0  5 19 15 02 06 13
  24155534.173    14451849.697 2  11261153.405 1
  24218855.734    -4239884.229 2  -3303780.388 1
  21385474.045     1573431.399 4   1226104.149 3
  21344406.379    -8999521.763 3  -7012558.943 3
  22641579.265    -9904155.016 3  -7717512.871 1
 91  4 15 23 47 45.0010000  0  5 19 15 02 06 13
  24164459.296    14498773.367 2  11297717.232 1
  24218710.636    -4240651.425 2  -3304378.174 1
  21387506.637     1584107.935 4   1234423.538 3
  21341860.235    -9012911.669 3  -7022992.596 3
  22633029.182    -9949073.427 2  -7752514.059 1
 91  4 15 23 48  0.0010000  0  5 19 15 02 06 13
  24173416.493    14545745.161 2  11334318.456 1
  24218589.819    -4241295.927 2  -3304880.305 1
  21389545.529     1594822.470 4   1242772.534 3
  21339321.299    -9026238.078 3  -7033376.777 3
  22624495.886    -9993906.910 2  -7787449.078 1
 91  4 15 23 48 15.0010000  0  5 19 15 02 06 13
  24182350.908    14592764.090 2  11370956.425 1
  24218495.082    -4241818.132 2  -3305287.218 1
  21391592.806     1605574.269 4   1251150.562 3
  21336797.945    -9039501.563 3  -7043711.934 3
  22615980.581   -10038655.535 2  -7822317.936 1
 91  4 15 23 48 30.0010000  0  5 19 15 02 06 13
  24191307.206    14639830.001 2  11407631.087 1
  24218411.146    -4242217.949 2  -3305598.703 1
  21393644.585     1616363.296 4   1259557.601 3
  21334288.682    -9052701.757 3  -7053997.770 3
  22607481.470   -10083319.223 2  -7857120.670 1
 91  4 15 23 48 45.0010000  0  5 19 15 02 06 13
  24200269.499    14686940.618 2  11444340.476 1
  24218358.682    -4242497.597 2  -3305816.558 1
  21395705.360     1627187.177 4   1267991.805 3
  21331787.211    -9065840.754 3  -7064235.909 3
  22598996.144   -10127900.224 2  -7891858.940 1
 91  4 15 23 49  0.0010000  0  5 19 15 02 06 13
  24209243.186    14734096.760 2  11481085.424 1
  24218331.399    -4242656.234 2  -3305940.123 1
  21397769.730     1638046.609 4   1276453.706 3
  21329299.534    -9078917.455 3  -7074425.511 3
  22590526.105   -10172397.319 2  -7926531.835 1
 91  4 15 23 49 15.0010000  0  5 19 15 02 06 13
  24218224.071    14781301.689 2  11517868.381 1
  24218322.106    -4242690.146 2  -3305966.509 1
  21399843.993     1648945.113 4   1284946.056 3
  21326821.149    -9091928.039 3  -7084563.602 3
  22582075.253   -10216806.583 2  -7961136.298 1
 91  4 15 23 49 30.0010000  0  5 19 15 02 06 13
  24227217.250    14828553.166 2  11554687.563 1
  24218342.794    -4242601.258 2  -3305897.197 1
  21401925.159     1659880.544 4   1293467.178 3
  21324358.950    -9104874.438 3  -7094651.669 3
  22573639.399   -10261129.765 2  -7995673.683 1
 91  4 15 23 49 45.0010000  0  5 19 15 02 06 13
  24236223.910    14875851.080 2  11591542.994 1
  24218379.064    -4242389.318 2  -3305731.985 1
  21404011.411     1670852.785 4   1302016.985 3
  21321907.255    -9117756.341 3  -7104689.486 3
  22565226.317   -10305366.513 2  -8030143.718 2
 91  4 15 23 50  0.0010000  0  5 19 15 02 06 13
  24245235.970    14923194.414 2  11628433.730 1
  24218442.923    -4242054.969 2  -3305471.424 1
  21406108.456     1681861.094 4   1310594.899 3
  21319469.041    -9130574.405 3  -7114677.548 3
  22556825.835   -10349517.348 2  -8064546.796 1
 91  4 15 23 50 15.0010000  0  5 19 15 02 06 13
  24254247.437    14970584.776 2  11665361.207 1
  24218524.468    -4241596.588 2  -3305114.236 1
  21408209.706     1692907.078 4   1319202.159 3
  21317044.019    -9143326.519 3  -7124614.230 3
  22548438.841   -10393580.118 2  -8098881.273 1
 91  4 15 23 50 30.0010000  0  5 19 15 02 06 13
  24263286.179    15018020.254 2  11702323.771 1
  24218639.587    -4241016.032 2  -3304661.822 1
  21410319.647     1703988.705 4   1327837.202 3
  21314631.291    -9156014.457 3  -7134500.898 3
  22540073.128   -10437556.373 3  -8133148.341 1
 91  4 15 23 50 45.0010000  0  5 19 15 02 06 13
  24272321.325    15065501.166 2  11739321.773 1
  24218776.589    -4240312.234 2  -3304113.351 1
  21412433.479     1715106.641 4   1336500.540 3
  21312224.557    -9168637.354 3  -7144336.899 3
  22531721.210   -10481445.419 3  -8167347.402 1
 91  4 15 23 51  0.0010000  0  5 19 15 02 06 13
  24281356.769    15113026.684 2  11776354.481 1
  24218932.480    -4239485.868 2  -3303469.395 1
  21414556.010     1726260.060 4   1345191.513 3
  21309835.212    -9181195.676 3  -7154122.572 3
  22523382.789   -10525247.668 3  -8201478.885 1
 91  4 15 23 51 15.0010000  0  4 15 02 06 13
  24219111.162    -4238536.464 2  -3302729.541 1
  21416684.535     1737449.292 4   1353910.398 3
  21307458.754    -9193688.845 3  -7163857.485 3
  22515062.944   -10568962.301 3  -8235542.080 1
 91  4 15 23 51 30.0010000  0  4 15 02 06 13
  24219321.315    -4237463.612 2  -3301893.543 1
  21418821.760     1748674.705 4   1362657.475 3
  21305092.487    -9206116.062 3  -7173541.002 3
  22506766.788   -10612588.632 3  -8269536.462 1
 91  4 15 23 51 45.0010000  0  4 15 02 06 13
  24219548.551    -4236266.650 2  -3300960.782 1
  21420964.673     1759936.767 4   1371433.105 3
  21302740.320    -9218476.609 3  -7183172.578 3
  22498476.625   -10656125.816 3  -8303461.361 1
 91  4 15 23 52  0.0010000  0  4 15 02 06 13
  24219798.578    -4234947.420 2  -3299932.782 1
  21423114.784     1771233.336 4   1380235.623 3
  21300403.736    -9230772.212 3  -7192753.542 3
  22490207.456   -10699575.430 3  -8337318.070 1
 91  4 15 23 52 15.0010000  0  4 15 02 06 13
  24220073.192    -4233502.363 2  -3298806.706 1
  21425272.695     1782567.928 4   1389067.770 3
  21298076.453    -9242999.210 3  -7202281.048 3
  22481957.761   -10742933.682 3  -8371103.550 1
 91  4 15 23 52 30.0010000  0  4 15 02 06 13
  24220368.188    -4231932.240 2  -3297583.178 1
  21427436.295     1793939.667 4   1397928.873 3
  21295761.454    -9255158.101 3  -7211755.484 3
  22473726.964   -10786201.273 3  -8404818.413 1
 91  4 15 23 52 45.0010000  0  4 15 02 06 13
  24220693.766    -4230237.316 2  -3296262.449 1
  21429605.593     1805348.218 4   1406818.647 3
  21293463.540    -9267248.938 3  -7221176.894 3
  22465505.154   -10829377.988 3  -8438462.436 1
 91  4 15 23 53  0.0010000  0  4 15 02 06 13
  24221033.129    -4228417.897 2  -3294844.690 1
  21431784.183     1816793.203 4   1415736.810 3
  21291173.731    -9279271.892 3  -7230545.406 3
  22457310.026   -10872463.954 3  -8472035.760 1
 91  4 15 23 53 15.0010000  0  4 15 02 06 13
  24221408.465    -4226470.895 2  -3293327.495 1
  21433971.768     1828277.089 4   1424685.294 3
  21288898.606    -9291224.022 3  -7239858.734 3
  22449125.098   -10915456.222 3  -8505536.064 1
 91  4 15 23 53 30.0010000  0  4 15 02 06 13
  24221799.996    -4224396.744 2  -3291711.233 1
  21436163.254     1839799.415 4   1433663.731 3
  21286636.971    -9303105.562 3  -7249117.052 3
  22440962.043   -10958355.147 2  -8538963.663 1
 91  4 15 23 53 45.0010000  0  4 15 02 06 13
  24222226.305    -4222196.720 2  -3289996.892 1
  21438365.829     1851358.924 4   1442671.137 3
  21284388.223    -9314917.514 3  -7258321.148 3
  22432815.182   -11001161.710 2  -8572319.279 1
 91  4 15 23 54  0.0010000  0  4 15 02 06 13
  24222666.399    -4219870.391 2  -3288184.068 1
  21440567.506     1862955.655 4   1451707.545 3
  21282152.675    -9326659.572 3  -7267470.782 3
  22424688.711   -11043875.398 2  -8605602.513 1
 91  4 15 23 54 15.0010000  0  4 15 02 06 13
  24223137.974    -4217417.153 2  -3286272.455 1
  21442783.570     1874590.551 4   1460773.699 3
  21279933.609    -9338330.599 3  -7276565.065 3
  22416579.028   -11086495.112 2  -8638812.528 1
 91  4 15 23 54 30.0010000  0  4 15 02 06 13
  24223623.038    -4214837.079 2  -3284261.977 1
  21445004.729     1886263.021 4   1469869.132 3
  21277726.235    -9349930.519 3  -7285603.939 3
  22408484.928   -11129020.678 2  -8671949.208 1
 91  4 15 23 54 45.0010000  0  4 15 02 06 13
  24224141.676    -4212129.455 2  -3282152.089 1
  21447231.892     1897973.637 4   1478994.289 3
  21275531.452    -9361458.718 3  -7294586.935 3
  22400410.921   -11171451.189 3  -8705011.790 1
 91  4 15 23 55  0.0010000  0  4 15 02 06 13
  24224675.905    -4209292.541 2  -3279941.443 1
  21449467.439     1909724.120 4   1488150.500 3
  21273354.066    -9372913.261 3  -7303512.532 3
  22392352.795   -11213784.712 3  -8737998.778 1
 91  4 15 23 55 15.0010000  0  4 15 02 06 13
  24225244.913    -4206326.299 2  -3277630.062 1
  21451712.584     1921514.421 4   1497337.745 3
  21271186.260    -9384293.859 3  -7312380.508 3
  22384319.561   -11256020.910 3  -8770909.977 1
 91  4 15 23 55 30.0010000  0  4 15 02 06 13
  24225831.302    -4203231.650 2  -3275218.624 1
  21453962.834     1933343.300 4   1506555.064 3
  21269035.250    -9395601.184 3  -7321191.381 3
  22376299.807   -11298160.544 3  -8803745.899 1
 91  4 15 23 55 45.0010000  0  4 15 02 06 13
  24226446.483    -4200009.041 2  -3272707.467 1
  21456223.265     1945210.340 4   1515802.100 3
  21266898.035    -9406835.515 3  -7329945.394 3
  22368297.146   -11340203.842 3  -8836506.764 1
 91  4 15 23 56  0.0010000  0  4 15 02 06 13
  24227084.742    -4196658.551 2  -3270096.629 1
  21458487.902     1957115.100 4   1525078.533 3
  21264771.307    -9417996.998 3  -7338642.634 3
  22360317.572   -11382151.127 3  -8869192.801 1
 91  4 15 23 56 15.0010000  0  4 15 02 06 13
  24227739.483    -4193182.599 2  -3267388.098 1
  21460759.126     1969055.320 4   1534382.592 3
  21262662.867    -9429087.806 3  -7347284.800 3
  22352354.784   -11424004.222 3  -8901805.479 1
 91  4 15 23 56 30.0010000  0  4 15 02 06 13
  24228425.713    -4189578.466 2  -3264579.581 1
  21463036.650     1981033.207 4   1543716.010 3
  21260567.018    -9440105.124 3  -7355869.703 3
  22344406.393   -11465760.452 3  -8934342.661 1
 91  4 15 23 56 45.0010000  0  4 15 02 06 13
  24229143.711    -4185845.658 2  -3261670.879 1
  21465324.365     1993049.264 4   1553079.180 3
  21258482.859    -9451048.238 3  -7364396.778 3
  22336480.173   -11507418.982 3  -8966803.708 1
 91  4 15 23 57  0.0010000  0  4 15 02 06 13
  24229873.104    -4181986.089 2  -3258663.406 1
  21467615.980     2005101.382 4   1562470.432 3
  21256417.286    -9461918.917 3  -7372867.424 3
  22328567.450   -11548981.630 3  -8999190.023 1
 91  4 15 23 57 15.0010000  0  4 15 02 06 13
  24230628.881    -4178000.455 2  -3255557.630 1
  21469916.582     2017188.831 4   1571889.220 3
  21254361.013    -9472717.740 3  -7381282.067 3
  22320676.017   -11590448.706 3  -9031501.903 1
 91  4 15 23 57 30.0010000  0  4 15 02 06 13
  24231414.342    -4173887.045 2  -3252352.374 1
  21472226.485     2029313.313 4   1581336.877 3
  21252317.924    -9483442.741 3  -7389639.184 3
  22312806.169   -11631818.240 3  -9063737.756 1
 91  4 15 23 57 45.0010000  0  4 15 02 06 13
  24232227.077    -4169646.619 2  -3249048.080 1
  21474538.490     2041473.731 4   1590812.533 3
  21250291.029    -9494094.517 3  -7397939.246 3
  22304951.599   -11673090.868 3  -9095898.127 1
 91  4 15 23 58  0.0010000  0  4 15 02 06 13
  24233051.207    -4165277.845 2  -3245643.807 1
  21476860.381     2053671.550 4   1600317.323 3
  21248280.319    -9504671.520 3  -7406181.048 3
  22297116.225   -11714264.576 3  -9127981.407 1
 91  4 15 23 58 15.0010000  0  4 15 02 06 13
  24233906.817    -4160782.070 2  -3242140.549 1
  21479188.266     2065905.236 4   1609850.064 3
  21246277.706    -9515174.830 3  -7414365.419 3
  22289300.037   -11755340.810 3  -9159988.755 1
 91  4 15 23 58 30.0010000  0  4 15 02 06 13
  24234793.001    -4156159.041 2  -3238538.163 1
  21481521.849     2078174.802 4   1619410.768 3
  21244293.983    -9525604.178 3  -7422492.157 3
  22281499.737   -11796319.167 3  -9191919.781 1
 91  4 15 23 58 45.0010000  0  4 15 02 06 13
  24235696.276    -4151406.219 2  -3234834.612 1
  21483861.435     2090482.828 4   1629001.444 3
  21242322.850    -9535956.801 3  -7430559.105 3
  22273721.023   -11837197.008 3  -9223772.507 1
 91  4 15 23 59  0.0010000  0  4 15 02 06 13
  24236622.036    -4146522.937 2  -3231029.448 1
  21486214.204     2102829.738 4   1638622.416 3
  21240371.793    -9546231.986 3  -7438565.718 3
  22265964.497   -11877973.668 3  -9255546.414 1
 91  4 15 23 59 15.0010000  0  4 15 02 06 13
  24237579.870    -4141509.848 2  -3227123.106 1
  21488571.772     2115214.598 4   1648272.960 3
  21238430.343    -9556430.228 3  -7446512.367 3
  22258224.453   -11918649.560 3  -9287241.779 1
 91  4 15 23 59 30.0010000  0  4 15 02 06 13
  24238548.200    -4136368.397 2  -3223116.754 1
  21490936.538     2127636.106 4   1657952.065 3
  21236508.071    -9566552.579 3  -7454399.885 3
  22250498.204   -11959225.655 3  -9318859.384 1
 91  4 15 23 59 45.0010000  0  4 15 02 06 13
  24239555.209    -4131096.528 2  -3219008.773 1
  21493304.297     2140096.009 4   1667661.087 3
  21234592.098    -9576597.082 3  -7462226.750 3
  22242799.534   -11999699.859 3  -9350397.584 1
 91  4 16  0  0  0.0010000  0  4 15 02 06 13
  24240590.984    -4125691.382 2  -3214796.952 1
  21495684.350     2152597.255 4   1677402.322 3
  21232696.210    -9586560.332 3  -7469990.290 3
  22235115.845   -12040068.771 3  -9381853.767 2
 91  4 16  0  0 15.0020000  0  4 15 02 06 13
  24241638.462    -4120153.619 2  -3210481.727 1
  21498070.993     2165139.541 4   1687175.536 3
  21230813.510    -9596444.058 3  -7477691.863 3
  22227455.849   -12080336.052 3  -9413230.730 1
 91  4 16  0  0 30.0020000  0  4 15 02 06 13
  24242723.412    -4114485.941 2  -3206065.294 1
  21500466.035     2177719.195 4   1696977.850 3
  21228951.205    -9606248.586 3  -7485331.733 3
  22219812.644   -12120498.161 3  -9444525.752 1
 91  4 16  0  0 45.0020000  0  4 15 02 06 13
  24243823.649    -4108684.507 2  -3201544.744 1
  21502868.573     2190340.195 4   1706812.420 3
  21227102.380    -9615971.185 3  -7492907.756 3
  22212185.023   -12160553.892 3  -9475737.889 1
 91  4 16  0  1  0.0020000  0  4 15 02 06 13
  24244960.766    -4102750.214 2  -3196920.545 1
  21505276.511     2203001.553 4   1716678.417 3
  21225264.358    -9625612.326 3  -7500420.306 3
  22204588.586   -12200504.113 3  -9506867.811 1
 91  4 16  0  1 15.0020000  0  4 15 02 06 13
  24246107.769    -4096681.855 2  -3192191.910 1
  21507692.834     2215704.513 4   1726576.836 3
  21223447.616    -9635170.608 3  -7507868.285 3
  22197006.536   -12240347.242 3  -9537914.264 1
 91  4 16  0  1 30.0020000  0  4 15 02 06 13
  24247275.764    -4090479.441 2  -3187358.824 1
  21510121.756     2228449.038 4   1736507.647 3
  21221642.565    -9644646.003 3  -7515251.685 3
  22189443.071   -12280083.327 3  -9568877.354 1
 91  4 16  0  1 45.0020000  0  4 15 02 06 13
  24248485.125    -4084142.903 2  -3182421.253 1
  21512551.271     2241235.218 4   1746470.901 3
  21219857.294    -9654037.839 3  -7522569.972 3
  22181899.089   -12319711.641 3  -9599756.425 1
 91  4 16  0  2  0.0020000  0  4 15 02 06 13
  24249726.865    -4077673.020 2  -3177379.750 1
  21514992.783     2254062.068 4   1756465.857 3
  21218079.833    -9663347.033 3  -7529823.863 3
  22174380.593   -12359233.061 3  -9630552.232 1
 91  4 16  0  2 15.0020000  0  4 15 02 06 13
  24250979.695    -4071068.229 2  -3172233.119 1
  21517441.782     2266930.806 4   1766493.449 3
  21216330.239    -9672571.788 3  -7537011.951 3
  22166880.088   -12398645.708 3  -9661263.249 1
 91  4 16  0  2 30.0020000  0  4 15 02 06 13
  24252259.511    -4064327.396 2  -3166980.447 1
  21519898.284     2279842.492 4   1776554.507 3
  21214591.447    -9681710.851 3  -7544133.269 3
  22159404.161   -12437948.418 3  -9691888.613 1
 91  4 16  0  2 45.0020000  0  4 15 02 06 13
  24253566.602    -4057451.123 2  -3161622.310 1
  21522364.680     2292796.395 4   1786648.451 3
  21212869.739    -9690764.747 3  -7551188.226 3
  22151940.232   -12477141.658 3  -9722428.678 1
 91  4 16  0  3  0.0020000  0  4 15 02 06 13
  24254911.473    -4050438.908 2  -3156158.217 1
  21524837.961     2305793.040 4   1796775.715 3
  21211157.925    -9699732.731 3  -7558176.225 3
  22144507.774   -12516224.626 3  -9752882.829 2
 91  4 16  0  3 15.0020000  0  4 15 02 06 13
  24256269.231    -4043288.655 2  -3150586.570 1
  21527319.050     2318834.727 4   1806938.079 3
  21209471.588    -9708612.387 3  -7565095.415 3
  22137090.315   -12555194.703 3  -9783249.000 1
 91  4 16  0  3 30.0020000  0  4 15 02 06 13
  24257649.177    -4036003.866 2  -3144910.076 1
  21529809.126     2331917.989 4   1817132.838 3
  21207796.952    -9717406.650 3  -7571948.063 3
  22129697.129   -12594054.938 3  -9813529.579 1
 91  4 16  0  3 45.0020000  0  4 15 02 06 13
  24259063.901    -4028580.718 2  -3139125.799 1
  21532306.392     2345046.150 4   1827362.576 3
  21206139.399    -9726111.945 3  -7578731.378 3
  22122320.433   -12632801.846 3  -9843721.845 1
 91  4 16  0  4  0.0020000  0  4 15 02 06 13
  24260506.205    -4021021.374 2  -3133235.390 1
  21534814.154     2358216.858 4   1837625.458 3
  21204498.634    -9734730.242 3  -7585446.903 3
  22114970.428   -12671437.303 3  -9873827.266 1
 91  4 16  0  4 15.0020000  0  4 15 02 06 13
  24261967.687    -4013324.353 2  -3127237.696 1
  21537329.420     2371431.814 4   1847922.833 3
  21202875.554    -9743259.636 3  -7592093.164 3
  22107636.598   -12709959.323 3  -9903844.322 1
 91  4 16  0  4 30.0020000  0  4 15 02 06 13
  24263456.156    -4005489.118 2  -3121132.306 1
  21539852.468     2384691.573 4   1858255.125 3
  21201268.965    -9751699.257 3  -7598669.459 3
  22100330.358   -12748367.227 3  -9933772.416 1
 91  4 16  0  4 45.0020000  0  4 15 02 06 13
  24264982.404    -3997513.981 2  -3114917.893 1
  21542384.216     2397997.589 4   1868623.444 3
  21199681.265    -9760047.497 3  -7605174.567 3
  22093044.203   -12786659.212 3  -9963610.218 1
 91  4 16  0  5  0.0020000  0  4 15 02 06 13
  24266520.937    -3989399.062 2  -3108594.538 1
  21544924.060     2411349.391 4   1879027.444 3
  21198110.056    -9768304.570 3  -7611608.619 3
  22085776.335   -12824835.616 3  -9993357.949 2
 91  4 16  0  5 15.0020000  0  4 15 02 06 13
  24268099.946    -3981143.882 2  -3102161.904 1
  21547474.095     2424747.553 4   1889467.579 3
  21196554.727    -9776469.373 3  -7617970.782 3
  22078535.149   -12862895.076 3 -10023014.563 1
 91  4 16  0  5 30.0020000  0  4 15 02 06 13
  24269689.443    -3972747.452 2  -3095619.152 1
  21550034.923     2438193.226 4   1899944.726 3
  21195020.391    -9784540.671 3  -7624260.078 3
  22071318.542   -12900836.235 3 -10052578.981 2
 91  4 16  0  5 45.0020000  0  4 15 02 06 13
  24271310.725    -3964209.940 2  -3088966.535 1
  21552599.050     2451686.206 4   1910458.734 3
  21193499.543    -9792518.371 3  -7630476.439 3
  22064119.629   -12938659.239 3 -10082051.341 1
 91  4 16  0  6  0.0020000  0  4 15 02 06 13
  24272969.770    -3955532.704 2  -3082205.007 1
  21555176.962     2465224.674 4   1921008.182 3
  21191999.086    -9800403.900 3  -7636620.991 3
  22056944.091   -12976365.433 3 -10111432.689 2
 91  4 16  0  6 15.0020000  0  4 15 02 06 13
  24274633.020    -3946714.023 2  -3075333.301 1
  21557763.267     2478810.492 4   1931594.534 3
  21190520.808    -9808195.249 3  -7642692.151 3
  22049791.648   -13013953.027 3 -10140721.588 1
 91  4 16  0  6 30.0020000  0  4 15 02 06 13
  24276343.935    -3937756.055 2  -3068353.040 1
  21560354.380     2492441.580 4   1942216.163 3
  21189053.926    -9815894.296 3  -7648691.372 3
  22042661.681   -13051423.634 3 -10169919.355 1
 91  4 16  0  6 45.0020000  0  4 15 02 06 13
  24278087.526    -3928656.202 2  -3061262.309 1
  21562958.371     2506120.275 4   1952874.889 3
  21187610.121    -9823498.191 3  -7654616.469 3
  22035552.401   -13088774.411 3 -10199023.727 1
 91  4 16  0  7  0.0020000  0  4 15 02 06 13
  24279838.019    -3919413.780 2  -3054060.296 1
  21565571.062     2519847.551 4   1963571.477 3
  21186181.611    -9831005.794 3  -7660466.535 3
  22028468.904   -13126004.296 3 -10228033.928 1
 91  4 16  0  7 15.0020000  0  4 15 02 06 13
  24281620.288    -3910032.295 2  -3046750.054 1
  21568193.053     2533619.525 4   1974302.888 3
  21184769.889    -9838420.851 3  -7666244.478 3
  22021408.494   -13163116.850 3 -10256952.694 1
 91  4 16  0  7 30.0020000  0  4 15 02 06 13
  24283442.422    -3900508.332 2  -3039328.751 1
  21570823.132     2547439.697 4   1985071.854 3
  21183375.258    -9845739.475 3  -7671947.277 3
  22014366.074   -13200108.402 3 -10285777.122 2
 91  4 16  0  7 45.0020000  0  4 15 02 06 13
  24285279.852    -3890840.498 2  -3031795.336 1
  21573461.605     2561309.345 4   1995879.365 3
  21181999.806    -9852960.083 3  -7677573.699 3
  22007350.930   -13236977.303 3 -10314506.046 1
 91  4 16  0  8  0.0020000  0  4 15 02 06 13
  24287147.260    -3881029.772 2  -3024150.621 1
  21576109.667     2575227.283 4   2006724.519 3
  21180645.041    -9860083.489 3  -7683124.391 3
  22000355.574   -13273724.322 3 -10343139.964 1
 91  4 16  0  8 15.0020000  0  4 15 02 06 13
  24289043.741    -3871078.452 2  -3016396.316 1
  21578766.131     2589191.377 4   2017605.630 3
  21179307.674    -9867111.724 3  -7688600.917 3
  21993386.594   -13310351.439 3 -10371680.468 1
 91  4 16  0  8 30.0020000  0  4 15 02 06 13
  24290960.918    -3860982.950 2  -3008529.674 1
  21581433.388     2603205.341 4   2028525.606 3
  21177991.578    -9874040.807 3  -7694000.186 3
  21986439.802   -13346854.772 3 -10400124.492 1
 91  4 16  0  8 45.0020000  0  4 15 02 06 13
  24292905.675    -3850744.985 2  -3000551.985 1
  21584112.328     2617267.074 4   2039482.792 3
  21176687.489    -9880872.511 3  -7699323.565 3
  21979511.900   -13383235.873 3 -10428473.282 1
 91  4 16  0  9  0.0020000  0  4 15 02 06 13
  24294881.005    -3840365.053 2  -2992463.723 1
  21586797.873     2631376.119 4   2050476.858 3
  21175408.868    -9887606.948 3  -7704571.166 3
  21972613.680   -13419495.196 3 -10456727.190 1
 91  4 16  0  9 15.0020000  0  4 15 02 06 13
  24296885.416    -3829841.975 2  -2984263.878 1
  21589490.311     2645533.817 4   2061508.834 3
  21174145.542    -9894242.720 3  -7709741.887 3
  21965740.633   -13455631.029 3 -10484884.880 1
 91  4 16  0  9 30.0020000  0  4 15 02 06 13
  24298915.914    -3819176.640 2  -2975953.239 1
  21592191.439     2659739.225 4   2072577.986 3
  21172901.707    -9900780.372 3  -7714836.132 3
  21958888.578   -13491644.127 3 -10512946.911 2
 91  4 16  0  9 45.0020000  0  4 15 02 06 13
  24300965.591    -3808369.062 2  -2967531.753 1
  21594904.860     2673992.269 4   2083684.248 3
  21171676.153    -9907219.699 3  -7719853.769 3
  21952061.704   -13527534.066 3 -10540912.979 1
 91  4 16  0 10  0.0020000  0  4 15 02 06 13
  24303052.750    -3797416.937 2  -2958997.593 1
  21597627.871     2688294.965 4   2094829.207 3
  21170471.887    -9913558.297 3  -7724792.924 3
  21945251.320   -13563298.622 3 -10568781.356 2
 91  4 16  0 10 15.0020000  0  4 15 02 06 13
  24305161.783    -3786322.294 2  -2950352.328 1
  21600355.383     2702645.377 4   2106011.346 3
  21169284.705    -9919798.021 3  -7729655.025 3
  21938470.017   -13598939.692 3 -10596553.495 1
 91  4 16  0 10 30.0020000  0  4 15 02 06 13
  24307299.304    -3775083.914 2  -2941595.188 1
  21603096.987     2717044.658 4   2117231.561 3
  21168113.420    -9925937.374 3  -7734438.920 3
  21931712.394   -13634455.344 3 -10624227.906 2
 91  4 16  0 10 45.0020000  0  4 15 02 06 13
  24309472.502    -3763701.143 2  -2932725.456 1
  21605843.983     2731493.419 4   2128490.330 3
  21166965.213    -9931975.424 3  -7739143.878 3
  21924977.858   -13669844.929 3 -10651804.091 1
 91  4 16  0 11  0.0020000  0  4 15 02 06 13
  24311662.783    -3752174.987 2  -2923743.984 1
  21608605.672     2745990.713 4   2139786.920 3
  21165837.397    -9937912.914 3  -7743770.471 3
  21918266.399   -13705109.438 3 -10679282.800 2
 91  4 16  0 11 15.0020000  0  4 15 02 06 13
  24313884.545    -3740503.488 2  -2914649.316 1
  21611370.057     2760538.485 4   2151122.851 3
  21164721.272    -9943747.708 3  -7748317.044 3
  21911582.530   -13740246.520 3 -10706662.270 1
 91  4 16  0 11 30.0020000  0  4 15 02 06 13
  24316129.097    -3728689.481 2  -2905443.603 1
  21614151.831     2775133.855 4   2162495.863 3
  21163633.321    -9949482.358 3  -7752785.579 3
  21904916.939   -13775258.662 3 -10733944.332 2
 91  4 16  0 11 45.0020000  0  4 15 02 06 13
  24318407.519    -3716731.224 2  -2896125.442 1
  21616939.904     2789778.575 4   2173907.329 3
  21162563.963    -9955114.785 3  -7757174.466 3
  21898278.039   -13810144.003 3 -10761127.613 1
 91  4 16  0 12  0.0020000  0  4 15 02 06 13
  24320711.123    -3704627.029 2  -2886693.592 1
  21619733.074     2804474.217 4   2185358.477 3
  21161510.493    -9960643.243 3  -7761482.335 3
  21891662.216   -13844900.644 3 -10788210.614 1
 91  4 16  0 12 15.0020000  0  4 15 02 06 13
  24323037.211    -3692376.966 2  -2877148.074 1
  21622537.332     2819220.647 4   2196849.206 3
  21160478.906    -9966067.470 3  -7765709.002 3
  21885076.076   -13879528.303 3 -10815193.103 2
 91  4 16  0 12 30.0020000  0  4 15 02 06 13
  24325401.078    -3679982.126 2  -2867489.754 1
  21625354.181     2834016.965 4   2208378.797 3
  21159467.701    -9971388.268 3  -7769855.053 3
  21878510.920   -13914027.792 3 -10842075.722 1
 91  4 16  0 12 45.0020000  0  4 15 02 06 13
  24327787.727    -3667441.786 2  -2857718.024 1
  21628180.026     2848863.693 4   2219947.674 3
  21158472.698    -9976604.718 3  -7773919.792 3
  21871969.148   -13948398.445 3 -10868857.964 2
 91  4 16  0 13  0.0020000  0  4 15 02 06 13
  24330203.151    -3654756.350 2  -2847833.241 1
  21631016.062     2863760.655 4   2231555.689 3
  21157500.765    -9981716.883 3  -7777903.276 3
  21865454.964   -13982640.018 3 -10895539.597 2
 91  4 16  0 13 15.0020000  0  4 15 02 06 13
  24332647.656    -3641927.403 2  -2837836.656 1
  21633859.287     2878706.094 4   2243201.486 3
  21156549.222    -9986726.187 3  -7781806.612 3
  21858962.654   -14016754.089 3 -10922121.868 1
 91  4 16  0 13 30.0020000  0  4 15 02 06 13
  24335112.848    -3628953.257 2  -2827726.912 1
  21636713.619     2893701.763 4   2254886.420 3
  21155614.771    -9991630.627 3  -7785628.231 3
  21852495.228   -14050738.743 3 -10948603.317 2
 91  4 16  0 13 45.0020000  0  4 15 02 06 13
  24337607.122    -3615834.030 2  -2817504.116 1
  21639577.531     2908747.595 4   2266610.441 3
  21154701.008    -9996430.010 3  -7789367.993 3
  21846055.391   -14084593.852 3 -10974983.817 2
 91  4 16  0 14  0.0020000  0  4 15 02 06 13
  24340129.882    -3602570.131 2  -2807168.613 1
  21642448.641     2923843.227 4   2278373.264 3
  21153804.922   -10001124.584 3  -7793026.079 3
  21839635.334   -14118319.387 3 -11001263.352 1
 91  4 16  0 14 15.0020000  0  4 15 02 06 13
  24342685.911    -3589162.701 2  -2796721.265 1
  21645330.554     2938987.197 4   2290173.762 3
  21152930.134   -10005715.271 3  -7796603.225 3
  21833239.864   -14151916.480 3 -11027442.810 2
 91  4 16  0 14 30.0020000  0  4 15 02 06 13
  24345268.622    -3575608.876 2  -2786159.916 1
  21648220.249     2954182.586 4   2302014.318 3
  21152080.518   -10010198.963 3  -7800096.989 3
  21826873.772   -14185382.103 3 -11053519.831 1
 91  4 16  0 14 45.0020000  0  4 15 02 06 13
  24347874.716    -3561908.902 2  -2775484.479 1
  21651122.839     2969429.127 4   2313894.732 3
  21151248.893   -10014575.642 3  -7803507.368 3
  21820529.562   -14218716.075 3 -11079494.242 2
 91  4 16  0 15  0.0020000  0  4 15 02 06 13
  24350504.796    -3548063.528 2  -2764695.865 1
  21654035.028     2984726.261 4   2325814.576 3
  21150435.259   -10018845.655 3  -7806834.633 3
  21814211.135   -14251918.844 3 -11105366.433 2
 91  4 16  0 15 15.0020000  0  4 15 02 06 13
  24353160.954    -3534075.039 2  -2753795.738 1
  21656955.304     3000071.310 4   2337771.757 3
  21149641.108   -10023011.239 3  -7810080.518 3
  21807917.295   -14284992.618 3 -11131138.103 2
 91  4 16  0 15 30.0020000  0  4 15 02 06 13
  24355856.393    -3519941.661 2  -2742782.692 1
  21659884.576     3015466.305 4   2349767.859 3
  21148868.543   -10027070.189 3  -7813243.320 3
  21801649.229   -14317935.078 3 -11156807.476 2
 91  4 16  0 15 45.0020000  0  4 15 02 06 13
  24358571.316    -3505663.449 2  -2731656.811 1
  21662824.336     3030911.134 4   2361802.785 3
  21148117.861   -10031022.307 3  -7816322.861 3
  21795402.461   -14350746.140 3 -11182374.440 2
 91  4 16  0 16  0.0020000  0  4 15 02 06 13
  24361316.209    -3491240.987 2  -2720418.495 1
  21665770.997     3046405.348 4   2373876.196 3
  21147387.264   -10034867.881 3  -7819319.402 3
  21789186.859   -14383426.196 3 -11207839.332 1
 91  4 16  0 16 15.0020000  0  4 15 02 06 13
  24364091.090    -3476672.351 2  -2709066.341 1
  21668728.748     3061950.703 4   2385989.455 3
  21146672.861   -10038604.902 3  -7822231.348 3
  21782993.149   -14415973.127 3 -11233200.469 2
 91  4 16  0 16 30.0020000  0  4 15 02 06 13
  24366886.659    -3461957.635 2  -2697600.276 1
  21671694.901     3077547.116 4   2398142.499 3
  21145984.241   -10042233.159 3  -7825058.544 3
  21776823.118   -14448386.667 3 -11258457.690 2
 91  4 16  0 16 45.0020000  0  4 15 02 06 13
  24369715.793    -3447097.371 2  -2686020.839 1
  21674676.934     3093194.068 4   2410334.930 3
  21145316.901   -10045752.784 3  -7827801.077 3
  21770680.973   -14480667.132 3 -11283611.202 2
 91  4 16  0 17  0.0020000  0  4 15 02 06 13
  24372563.825    -3432092.105 2  -2674328.364 1
  21677663.469     3108891.171 4   2422566.437 3
  21144664.254   -10049164.109 3  -7830459.237 3
  21764567.002   -14512814.815 3 -11308661.255 2
 91  4 16  0 17 15.0020000  0  4 15 02 06 13
  24375455.021    -3416940.758 2  -2662522.128 1
  21680658.092     3124639.595 4   2434837.937 3
  21144036.186   -10052465.683 3  -7833031.879 3
  21758472.225   -14544828.505 3 -11333606.876 2
 91  4 16  0 17 30.0020000  0  4 15 02 06 13
  24378364.513    -3401644.878 2  -2650603.260 1
  21683663.211     3140437.396 4   2447147.914 3
  21143426.414   -10055659.205 3  -7835520.318 3
  21752405.919   -14576709.750 3 -11358449.321 1
 91  4 16  0 17 45.0020000  0  4 15 02 06 13
  24381302.475    -3386203.166 2  -2638570.752 1
  21686680.921     3156286.521 4   2459497.878 3
  21142843.917   -10058742.678 3  -7837923.012 3
  21746365.700   -14608456.748 3 -11383187.134 1
 91  4 16  0 18  0.0020000  0  4 15 02 06 13
  24384264.126    -3370618.838 2  -2626427.073 1
  21689707.627     3172183.671 4   2471885.259 3
  21142276.104   -10061719.109 3  -7840242.294 3
  21740345.576   -14640072.346 3 -11407822.565 2
 91  4 16  0 18 15.0020000  0  4 15 02 06 13
  24387259.648    -3354889.291 2  -2614170.316 1
  21692739.427     3188131.375 4   2484312.046 3
  21141728.385   -10064585.596 3  -7842475.906 3
  21734360.212   -14671553.898 3 -11432353.544 2
 91  4 16  0 18 30.0020000  0  4 15 02 06 13
  24390285.455    -3339013.471 2  -2601799.529 1
  21695784.717     3204130.637 4   2496778.991 3
  21141207.043   -10067340.921 3  -7844622.899 3
  21728392.848   -14702899.811 3 -11456778.827 2
 91  4 16  0 18 45.0020000  0  4 15 02 06 13
  24393331.949    -3322993.100 2  -2589316.238 1
  21698839.605     3220179.803 4   2509284.833 3
  21140701.597   -10069986.462 3  -7846684.347 3
  21722451.259   -14734111.689 3 -11481099.672 2
 91  4 16  0 19  0.0020000  0  4 15 02 06 13
  24396415.908    -3306826.886 2  -2576719.082 1
  21701901.690     3236279.998 4   2521830.431 3
  21140220.434   -10072520.788 3  -7848659.127 3
  21716539.352   -14765188.211 3 -11505315.055 2
 91  4 16  0 19 15.0020000  0  4 15 02 06 13
  24399513.366    -3290515.896 2  -2564009.241 1
  21704973.662     3252430.273 4   2534415.056 3
  21139759.949   -10074944.651 3  -7850547.837 3
  21710650.828   -14796130.070 3 -11529425.514 2
 91  4 16  0 19 30.0020000  0  4 15 02 06 13
  24402641.404    -3274061.758 2  -2551187.790 1
  21708058.520     3268629.019 4   2547037.461 3
  21139320.753   -10077259.303 3  -7852351.456 3
  21704787.485   -14826938.707 3 -11553432.152 1
 91  4 16  0 19 45.0020000  0  4 15 02 06 13
  24405804.213    -3257465.075 2  -2538255.299 1
  21711149.686     3284875.875 4   2559697.344 3
  21138898.641   -10079465.256 3  -7854070.353 3
  21698952.630   -14857614.223 3 -11577335.072 2
 91  4 16  0 20  0.0020000  0  4 15 02 06 13
  24408981.112    -3240723.657 2  -2525209.953 1
  21714249.840     3301173.069 4   2572396.452 3
  21138502.922   -10081559.734 3  -7855702.408 3
  21693139.648   -14888154.179 3 -11601132.361 2
 91  4 16  0 20 15.0020000  0  4 15 02 06 13
  24412206.279    -3223836.946 2  -2512051.552 1
  21717364.381     3317521.150 4   2585135.208 3
  21138124.584   -10083542.141 3  -7857247.127 3
  21687356.951   -14918557.902 3 -11624823.482 2
 91  4 16  0 20 30.0020000  0  4 15 02 06 13
  24415441.340    -3206807.353 2  -2498781.715 1
  21720484.323     3333917.742 4   2597911.770 3
  21137767.832   -10085414.397 3  -7858706.014 3
  21681591.949   -14948827.519 3 -11648410.120 2
 91  4 16  0 20 45.0020000  0  4 15 02 06 13
  24418705.185    -3189634.097 2  -2485399.980 1
  21723616.855     3350363.882 4   2610726.940 3
  21137428.765   -10087175.502 3  -7860078.294 3
  21675859.317   -14978961.722 3 -11671891.222 2
 91  4 16  0 21  0.0020000  0  4 15 02 06 13
  24422016.093    -3172316.916 2  -2471906.100 1
  21726750.888     3366859.415 4   2623580.601 3
  21137119.076   -10088824.957 3  -7861363.567 3
  21670150.068   -15008960.401 3 -11695266.719 2
 91  4 16  0 21 15.0020000  0  4 15 02 06 13
  24425332.690    -3154853.824 2  -2458298.451 1
  21729901.402     3383406.319 4   2636474.284 3
  21136825.284   -10090360.827 3  -7862560.343 3
  21664466.305   -15038821.747 3 -11718535.207 2
 91  4 16  0 21 30.0020000  0  4 15 02 06 13
  24428676.580    -3137247.211 2  -2444578.981 1
  21733059.115     3400002.425 4   2649406.320 2
  21136556.368   -10091784.993 3  -7863670.077 3
  21658811.920   -15068547.378 3 -11741697.938 2
 91  4 16  0 21 45.0020000  0  4 15 02 06 13
  24432060.037    -3119492.088 2  -2430743.822 1
  21736228.520     3416653.150 4   2662380.907 3
  21136306.036   -10093091.881 3  -7864688.418 3
  21653182.715   -15098131.902 3 -11764750.711 2
 91  4 16  0 22  0.0020000  0  4 15 02 06 13
  24435462.385    -3101595.782 2  -2416798.702 1
  21739402.426     3433351.224 4   2675392.386 3
  21136081.198   -10094288.595 3  -7865620.909 3
  21647574.198   -15127582.336 3 -11787699.001 2
 91  4 16  0 22 15.0020000  0  4 15 02 06 13
  24438895.305    -3083553.939 2  -2402740.063 1
  21742596.715     3450100.674 4   2688443.893 3
  21135871.037   -10095370.690 3  -7866464.085 3
  21641998.958   -15156894.324 3 -11810539.442 2
 91  4 16  0 22 30.0020000  0  4 15 02 06 13
  24442353.109    -3065369.815 2  -2388570.623 1
  21745790.105     3466898.456 4   2701533.069 3
  21135686.666   -10096341.049 3  -7867220.200 3
  21636444.100   -15186070.780 3 -11833274.232 1
 91  4 16  0 22 45.0020000  0  4 15 02 06 13
  24445842.699    -3047043.632 2  -2374290.487 1
  21748994.288     3483744.354 4   2714659.743 3
  21135522.983   -10097199.617 3  -7867889.210 3
  21630918.026   -15215111.809 3 -11855903.522 2
 91  4 16  0 23  0.0020000  0  4 15 02 06 13
  24449354.163    -3028572.506 2  -2359897.381 1
  21752210.459     3500641.360 4   2727826.241 3
  21135384.176   -10097943.225 3  -7868468.631 3
  21625419.236   -15244014.137 3 -11878424.718 2
 91  4 16  0 23 15.0020000  0  4 15 02 06 13
  24452903.110    -3009957.411 2  -2345392.116 1
  21755436.821     3517588.667 4   2741031.926 3
  21135260.663   -10098572.546 3  -7868958.993 3
  21619945.321   -15272778.331 3 -11900838.294 2
 91  4 16  0 23 30.0020000  0  4 15 02 06 13
  24456476.330    -2991197.924 2  -2330774.321 1
  21758670.983     3534586.650 4   2754277.101 3
  21135166.528   -10099086.871 3  -7869359.757 3
  21614498.994   -15301403.956 3 -11923143.906 2
 91  4 16  0 23 45.0020000  0  4 15 02 06 13
  24460070.848    -2972296.063 2  -2316045.593 1
  21761912.937     3551633.301 4   2767560.215 3
  21135089.485   -10099488.086 3  -7869672.388 3
  21609078.145   -15329893.048 3 -11945343.106 2
 91  4 16  0 24  0.0020000  0  4 15 02 06 13
  24463691.742    -2953249.964 2  -2301204.483 1
  21765165.090     3568730.655 4   2780882.825 3
  21135034.918   -10099773.902 3  -7869895.092 3
  21603685.182   -15358243.150 3 -11967434.005 2
 91  4 16  0 24 15.0020000  0  4 15 02 06 13
  24467344.107    -2934060.841 2  -2286251.904 1
  21768433.429     3585877.662 4   2794244.121 3
  21135001.946   -10099944.986 3  -7870028.399 3
  21598317.992   -15386454.948 3 -11989417.150 2
